<?xml version="1.0" encoding="UTF-8" standalone="no" ?>
<gpx xmlns="http://www.topografix.com/GPX/1/1" xmlns:xsi="http://www.w3.org/2001/XMLSchema-instance" xsi:schemaLocation="http://www.topografix.com/GPX/1/1 http://www.topografix.com/GPX/1/1/gpx.xsd" version="1.1" creator="VisuGPX - https://www.visugpx.com">
  <metadata>
    <name>Le terminus du funiculaire de Barèges depuis la sortie du village (Piste de l'Ayré)</name>
  </metadata>
  <trk>
    <name><![CDATA[SityTrail - Le terminus du funiculaire de Barèges depuis la sortie du village (Piste de l'Ayré)]]></name>
    <trkseg>
      <trkpt lat="42.89899" lon="0.07565">
        <ele>1308</ele>
        <time>2021-03-20T08:44:11.522Z</time>
      </trkpt>
      <trkpt lat="42.899" lon="0.07576">
        <ele>1312</ele>
        <time>2021-03-20T08:48:21.527Z</time>
      </trkpt>
      <trkpt lat="42.89899" lon="0.07576">
        <ele>1312</ele>
        <time>2021-03-20T08:48:26.530Z</time>
      </trkpt>
      <trkpt lat="42.89899" lon="0.07576">
        <ele>1312</ele>
        <time>2021-03-20T08:48:31.530Z</time>
      </trkpt>
      <trkpt lat="42.89899" lon="0.07576">
        <ele>1312</ele>
        <time>2021-03-20T08:48:36.629Z</time>
      </trkpt>
      <trkpt lat="42.89897" lon="0.07578">
        <ele>1312</ele>
        <time>2021-03-20T08:48:41.532Z</time>
      </trkpt>
      <trkpt lat="42.89896" lon="0.0758">
        <ele>1312</ele>
        <time>2021-03-20T08:52:18.531Z</time>
      </trkpt>
      <trkpt lat="42.89894" lon="0.07582">
        <ele>1312</ele>
        <time>2021-03-20T08:52:23.533Z</time>
      </trkpt>
      <trkpt lat="42.89894" lon="0.07583">
        <ele>1312</ele>
        <time>2021-03-20T08:52:28.562Z</time>
      </trkpt>
      <trkpt lat="42.89895" lon="0.07584">
        <ele>1312</ele>
        <time>2021-03-20T08:52:33.534Z</time>
      </trkpt>
      <trkpt lat="42.89894" lon="0.07589">
        <ele>1312</ele>
        <time>2021-03-20T08:52:38.531Z</time>
      </trkpt>
      <trkpt lat="42.89893" lon="0.07592">
        <ele>1312</ele>
        <time>2021-03-20T08:52:43.537Z</time>
      </trkpt>
      <trkpt lat="42.89891" lon="0.07595">
        <ele>1312</ele>
        <time>2021-03-20T08:52:47.540Z</time>
      </trkpt>
      <trkpt lat="42.89888" lon="0.07598">
        <ele>1317</ele>
        <time>2021-03-20T08:52:52.543Z</time>
      </trkpt>
      <trkpt lat="42.89884" lon="0.076">
        <ele>1317</ele>
        <time>2021-03-20T08:52:57.533Z</time>
      </trkpt>
      <trkpt lat="42.89882" lon="0.07603">
        <ele>1317</ele>
        <time>2021-03-20T08:53:02.531Z</time>
      </trkpt>
      <trkpt lat="42.89882" lon="0.07606">
        <ele>1317</ele>
        <time>2021-03-20T08:53:07.558Z</time>
      </trkpt>
      <trkpt lat="42.89881" lon="0.07608">
        <ele>1317</ele>
        <time>2021-03-20T08:53:12.533Z</time>
      </trkpt>
      <trkpt lat="42.89881" lon="0.07612">
        <ele>1317</ele>
        <time>2021-03-20T08:53:17.540Z</time>
      </trkpt>
      <trkpt lat="42.8988" lon="0.07617">
        <ele>1317</ele>
        <time>2021-03-20T08:53:22.545Z</time>
      </trkpt>
      <trkpt lat="42.89877" lon="0.0762">
        <ele>1317</ele>
        <time>2021-03-20T08:53:26.544Z</time>
      </trkpt>
      <trkpt lat="42.89877" lon="0.07624">
        <ele>1317</ele>
        <time>2021-03-20T08:53:31.537Z</time>
      </trkpt>
      <trkpt lat="42.89878" lon="0.07629">
        <ele>1319</ele>
        <time>2021-03-20T08:53:36.538Z</time>
      </trkpt>
      <trkpt lat="42.89878" lon="0.07633">
        <ele>1319</ele>
        <time>2021-03-20T08:53:41.538Z</time>
      </trkpt>
      <trkpt lat="42.89878" lon="0.07638">
        <ele>1319</ele>
        <time>2021-03-20T08:53:46.536Z</time>
      </trkpt>
      <trkpt lat="42.89877" lon="0.07642">
        <ele>1319</ele>
        <time>2021-03-20T08:53:51.537Z</time>
      </trkpt>
      <trkpt lat="42.89877" lon="0.07646">
        <ele>1319</ele>
        <time>2021-03-20T08:53:55.579Z</time>
      </trkpt>
      <trkpt lat="42.89876" lon="0.07651">
        <ele>1319</ele>
        <time>2021-03-20T08:54:00.538Z</time>
      </trkpt>
      <trkpt lat="42.89877" lon="0.07656">
        <ele>1322</ele>
        <time>2021-03-20T08:54:04.541Z</time>
      </trkpt>
      <trkpt lat="42.89876" lon="0.07659">
        <ele>1322</ele>
        <time>2021-03-20T08:54:08.563Z</time>
      </trkpt>
      <trkpt lat="42.89874" lon="0.07662">
        <ele>1332</ele>
        <time>2021-03-20T08:54:13.537Z</time>
      </trkpt>
      <trkpt lat="42.8987" lon="0.07663">
        <ele>1332</ele>
        <time>2021-03-20T08:54:17.577Z</time>
      </trkpt>
      <trkpt lat="42.89867" lon="0.07659">
        <ele>1332</ele>
        <time>2021-03-20T08:54:22.536Z</time>
      </trkpt>
      <trkpt lat="42.89861" lon="0.0766">
        <ele>1332</ele>
        <time>2021-03-20T08:54:27.542Z</time>
      </trkpt>
      <trkpt lat="42.89859" lon="0.07659">
        <ele>1332</ele>
        <time>2021-03-20T08:54:31.544Z</time>
      </trkpt>
      <trkpt lat="42.89857" lon="0.07656">
        <ele>1332</ele>
        <time>2021-03-20T08:54:36.539Z</time>
      </trkpt>
      <trkpt lat="42.89854" lon="0.07652">
        <ele>1330</ele>
        <time>2021-03-20T08:54:41.535Z</time>
      </trkpt>
      <trkpt lat="42.8985" lon="0.07652">
        <ele>1330</ele>
        <time>2021-03-20T08:54:46.538Z</time>
      </trkpt>
      <trkpt lat="42.89847" lon="0.07649">
        <ele>1330</ele>
        <time>2021-03-20T08:54:51.538Z</time>
      </trkpt>
      <trkpt lat="42.89845" lon="0.07644">
        <ele>1343</ele>
        <time>2021-03-20T08:54:56.544Z</time>
      </trkpt>
      <trkpt lat="42.89844" lon="0.07642">
        <ele>1343</ele>
        <time>2021-03-20T08:55:00.535Z</time>
      </trkpt>
      <trkpt lat="42.89843" lon="0.07634">
        <ele>1343</ele>
        <time>2021-03-20T08:55:05.534Z</time>
      </trkpt>
      <trkpt lat="42.89845" lon="0.07628">
        <ele>1343</ele>
        <time>2021-03-20T08:55:09.541Z</time>
      </trkpt>
      <trkpt lat="42.89845" lon="0.07621">
        <ele>1340</ele>
        <time>2021-03-20T08:55:14.537Z</time>
      </trkpt>
      <trkpt lat="42.89847" lon="0.07616">
        <ele>1340</ele>
        <time>2021-03-20T08:55:19.533Z</time>
      </trkpt>
      <trkpt lat="42.89845" lon="0.07613">
        <ele>1340</ele>
        <time>2021-03-20T08:56:08.534Z</time>
      </trkpt>
      <trkpt lat="42.89846" lon="0.0761">
        <ele>1340</ele>
        <time>2021-03-20T08:56:13.533Z</time>
      </trkpt>
      <trkpt lat="42.89845" lon="0.07608">
        <ele>1340</ele>
        <time>2021-03-20T08:56:18.533Z</time>
      </trkpt>
      <trkpt lat="42.89846" lon="0.07602">
        <ele>1340</ele>
        <time>2021-03-20T08:56:23.534Z</time>
      </trkpt>
      <trkpt lat="42.89846" lon="0.07597">
        <ele>1337</ele>
        <time>2021-03-20T08:56:28.540Z</time>
      </trkpt>
      <trkpt lat="42.89844" lon="0.07593">
        <ele>1337</ele>
        <time>2021-03-20T08:56:33.537Z</time>
      </trkpt>
      <trkpt lat="42.89845" lon="0.07589">
        <ele>1337</ele>
        <time>2021-03-20T08:56:38.533Z</time>
      </trkpt>
      <trkpt lat="42.89843" lon="0.07584">
        <ele>1337</ele>
        <time>2021-03-20T08:56:43.541Z</time>
      </trkpt>
      <trkpt lat="42.8984" lon="0.0758">
        <ele>1337</ele>
        <time>2021-03-20T08:56:48.534Z</time>
      </trkpt>
      <trkpt lat="42.89838" lon="0.07579">
        <ele>1337</ele>
        <time>2021-03-20T08:56:52.562Z</time>
      </trkpt>
      <trkpt lat="42.8984" lon="0.07578">
        <ele>1337</ele>
        <time>2021-03-20T08:56:57.542Z</time>
      </trkpt>
      <trkpt lat="42.8984" lon="0.07575">
        <ele>1337</ele>
        <time>2021-03-20T08:57:01.535Z</time>
      </trkpt>
      <trkpt lat="42.89841" lon="0.07569">
        <ele>1332</ele>
        <time>2021-03-20T08:57:06.542Z</time>
      </trkpt>
      <trkpt lat="42.89839" lon="0.07563">
        <ele>1332</ele>
        <time>2021-03-20T08:57:11.541Z</time>
      </trkpt>
      <trkpt lat="42.89839" lon="0.07555">
        <ele>1332</ele>
        <time>2021-03-20T08:57:16.534Z</time>
      </trkpt>
      <trkpt lat="42.89837" lon="0.0755">
        <ele>1332</ele>
        <time>2021-03-20T08:57:20.551Z</time>
      </trkpt>
      <trkpt lat="42.89839" lon="0.07545">
        <ele>1332</ele>
        <time>2021-03-20T08:57:25.550Z</time>
      </trkpt>
      <trkpt lat="42.89837" lon="0.07539">
        <ele>1330</ele>
        <time>2021-03-20T08:57:30.572Z</time>
      </trkpt>
      <trkpt lat="42.89833" lon="0.07535">
        <ele>1330</ele>
        <time>2021-03-20T08:57:35.545Z</time>
      </trkpt>
      <trkpt lat="42.8983" lon="0.07533">
        <ele>1330</ele>
        <time>2021-03-20T08:57:39.579Z</time>
      </trkpt>
      <trkpt lat="42.89825" lon="0.07531">
        <ele>1330</ele>
        <time>2021-03-20T08:57:44.536Z</time>
      </trkpt>
      <trkpt lat="42.89823" lon="0.07528">
        <ele>1330</ele>
        <time>2021-03-20T08:57:48.566Z</time>
      </trkpt>
      <trkpt lat="42.89821" lon="0.07525">
        <ele>1330</ele>
        <time>2021-03-20T08:57:52.583Z</time>
      </trkpt>
      <trkpt lat="42.89818" lon="0.07524">
        <ele>1338</ele>
        <time>2021-03-20T08:57:57.539Z</time>
      </trkpt>
      <trkpt lat="42.89815" lon="0.07522">
        <ele>1338</ele>
        <time>2021-03-20T08:58:02.527Z</time>
      </trkpt>
      <trkpt lat="42.89814" lon="0.07518">
        <ele>1338</ele>
        <time>2021-03-20T08:58:06.535Z</time>
      </trkpt>
      <trkpt lat="42.89812" lon="0.07515">
        <ele>1338</ele>
        <time>2021-03-20T08:58:11.533Z</time>
      </trkpt>
      <trkpt lat="42.89811" lon="0.07511">
        <ele>1334</ele>
        <time>2021-03-20T08:58:16.540Z</time>
      </trkpt>
      <trkpt lat="42.89811" lon="0.07506">
        <ele>1334</ele>
        <time>2021-03-20T08:58:21.529Z</time>
      </trkpt>
      <trkpt lat="42.89811" lon="0.07502">
        <ele>1334</ele>
        <time>2021-03-20T08:58:26.585Z</time>
      </trkpt>
      <trkpt lat="42.89808" lon="0.07488">
        <ele>1334</ele>
        <time>2021-03-20T08:59:01.536Z</time>
      </trkpt>
      <trkpt lat="42.89805" lon="0.07487">
        <ele>1334</ele>
        <time>2021-03-20T08:59:06.522Z</time>
      </trkpt>
      <trkpt lat="42.89805" lon="0.07485">
        <ele>1333</ele>
        <time>2021-03-20T08:59:10.530Z</time>
      </trkpt>
      <trkpt lat="42.89804" lon="0.07482">
        <ele>1333</ele>
        <time>2021-03-20T08:59:15.530Z</time>
      </trkpt>
      <trkpt lat="42.89803" lon="0.07478">
        <ele>1333</ele>
        <time>2021-03-20T08:59:20.535Z</time>
      </trkpt>
      <trkpt lat="42.89788" lon="0.07477">
        <ele>1344</ele>
        <time>2021-03-20T09:00:02.521Z</time>
      </trkpt>
      <trkpt lat="42.89785" lon="0.07475">
        <ele>1344</ele>
        <time>2021-03-20T09:00:06.579Z</time>
      </trkpt>
      <trkpt lat="42.89782" lon="0.07473">
        <ele>1344</ele>
        <time>2021-03-20T09:00:11.535Z</time>
      </trkpt>
      <trkpt lat="42.8978" lon="0.07472">
        <ele>1344</ele>
        <time>2021-03-20T09:00:15.563Z</time>
      </trkpt>
      <trkpt lat="42.89777" lon="0.07472">
        <ele>1344</ele>
        <time>2021-03-20T09:00:20.535Z</time>
      </trkpt>
      <trkpt lat="42.89776" lon="0.07469">
        <ele>1344</ele>
        <time>2021-03-20T09:01:00.531Z</time>
      </trkpt>
      <trkpt lat="42.89775" lon="0.07472">
        <ele>1344</ele>
        <time>2021-03-20T09:01:04.576Z</time>
      </trkpt>
      <trkpt lat="42.89774" lon="0.07476">
        <ele>1344</ele>
        <time>2021-03-20T09:01:09.532Z</time>
      </trkpt>
      <trkpt lat="42.89773" lon="0.07479">
        <ele>1344</ele>
        <time>2021-03-20T09:01:14.532Z</time>
      </trkpt>
      <trkpt lat="42.89772" lon="0.0748">
        <ele>1344</ele>
        <time>2021-03-20T09:01:19.523Z</time>
      </trkpt>
      <trkpt lat="42.89769" lon="0.07483">
        <ele>1344</ele>
        <time>2021-03-20T09:01:24.593Z</time>
      </trkpt>
      <trkpt lat="42.89767" lon="0.07486">
        <ele>1344</ele>
        <time>2021-03-20T09:01:29.524Z</time>
      </trkpt>
      <trkpt lat="42.89764" lon="0.07491">
        <ele>1348</ele>
        <time>2021-03-20T09:01:34.754Z</time>
      </trkpt>
      <trkpt lat="42.89762" lon="0.07495">
        <ele>1367</ele>
        <time>2021-03-20T09:01:39.528Z</time>
      </trkpt>
      <trkpt lat="42.89761" lon="0.07498">
        <ele>1367</ele>
        <time>2021-03-20T09:01:44.540Z</time>
      </trkpt>
      <trkpt lat="42.89759" lon="0.07501">
        <ele>1367</ele>
        <time>2021-03-20T09:01:49.594Z</time>
      </trkpt>
      <trkpt lat="42.89757" lon="0.07504">
        <ele>1367</ele>
        <time>2021-03-20T09:01:54.528Z</time>
      </trkpt>
      <trkpt lat="42.89755" lon="0.07505">
        <ele>1367</ele>
        <time>2021-03-20T09:01:59.537Z</time>
      </trkpt>
      <trkpt lat="42.89753" lon="0.07506">
        <ele>1367</ele>
        <time>2021-03-20T09:02:04.535Z</time>
      </trkpt>
      <trkpt lat="42.89752" lon="0.07501">
        <ele>1367</ele>
        <time>2021-03-20T09:02:14.531Z</time>
      </trkpt>
      <trkpt lat="42.8975" lon="0.075">
        <ele>1367</ele>
        <time>2021-03-20T09:02:19.533Z</time>
      </trkpt>
      <trkpt lat="42.8975" lon="0.07498">
        <ele>1367</ele>
        <time>2021-03-20T09:02:24.707Z</time>
      </trkpt>
      <trkpt lat="42.89749" lon="0.07495">
        <ele>1367</ele>
        <time>2021-03-20T09:02:29.533Z</time>
      </trkpt>
      <trkpt lat="42.8975" lon="0.0749">
        <ele>1367</ele>
        <time>2021-03-20T09:02:34.535Z</time>
      </trkpt>
      <trkpt lat="42.8975" lon="0.07486">
        <ele>1365</ele>
        <time>2021-03-20T09:02:38.563Z</time>
      </trkpt>
      <trkpt lat="42.8975" lon="0.0748">
        <ele>1365</ele>
        <time>2021-03-20T09:02:43.529Z</time>
      </trkpt>
      <trkpt lat="42.8975" lon="0.07475">
        <ele>1365</ele>
        <time>2021-03-20T09:02:48.534Z</time>
      </trkpt>
      <trkpt lat="42.8975" lon="0.0747">
        <ele>1365</ele>
        <time>2021-03-20T09:02:53.592Z</time>
      </trkpt>
      <trkpt lat="42.89747" lon="0.07459">
        <ele>1365</ele>
        <time>2021-03-20T09:03:47.562Z</time>
      </trkpt>
      <trkpt lat="42.89747" lon="0.07456">
        <ele>1369</ele>
        <time>2021-03-20T09:03:52.524Z</time>
      </trkpt>
      <trkpt lat="42.89748" lon="0.07454">
        <ele>1369</ele>
        <time>2021-03-20T09:03:56.541Z</time>
      </trkpt>
      <trkpt lat="42.89748" lon="0.07454">
        <ele>1369</ele>
        <time>2021-03-20T09:04:01.536Z</time>
      </trkpt>
      <trkpt lat="42.89748" lon="0.07453">
        <ele>1369</ele>
        <time>2021-03-20T09:04:06.561Z</time>
      </trkpt>
      <trkpt lat="42.89741" lon="0.0745">
        <ele>1369</ele>
        <time>2021-03-20T09:06:44.531Z</time>
      </trkpt>
      <trkpt lat="42.89741" lon="0.07451">
        <ele>1369</ele>
        <time>2021-03-20T09:06:49.531Z</time>
      </trkpt>
      <trkpt lat="42.89738" lon="0.07453">
        <ele>1369</ele>
        <time>2021-03-20T09:06:54.532Z</time>
      </trkpt>
      <trkpt lat="42.89735" lon="0.07455">
        <ele>1380</ele>
        <time>2021-03-20T09:06:59.536Z</time>
      </trkpt>
      <trkpt lat="42.89733" lon="0.07458">
        <ele>1380</ele>
        <time>2021-03-20T09:07:04.532Z</time>
      </trkpt>
      <trkpt lat="42.89736" lon="0.07466">
        <ele>1379</ele>
        <time>2021-03-20T09:07:27.775Z</time>
      </trkpt>
      <trkpt lat="42.89736" lon="0.07467">
        <ele>1365</ele>
        <time>2021-03-20T09:07:32.535Z</time>
      </trkpt>
      <trkpt lat="42.89738" lon="0.07473">
        <ele>1365</ele>
        <time>2021-03-20T09:07:37.533Z</time>
      </trkpt>
      <trkpt lat="42.89741" lon="0.07477">
        <ele>1365</ele>
        <time>2021-03-20T09:07:42.535Z</time>
      </trkpt>
      <trkpt lat="42.89741" lon="0.07482">
        <ele>1365</ele>
        <time>2021-03-20T09:07:47.534Z</time>
      </trkpt>
      <trkpt lat="42.89741" lon="0.07488">
        <ele>1367</ele>
        <time>2021-03-20T09:07:52.531Z</time>
      </trkpt>
      <trkpt lat="42.89741" lon="0.07491">
        <ele>1367</ele>
        <time>2021-03-20T09:07:57.530Z</time>
      </trkpt>
      <trkpt lat="42.8974" lon="0.07495">
        <ele>1367</ele>
        <time>2021-03-20T09:08:02.534Z</time>
      </trkpt>
      <trkpt lat="42.89743" lon="0.07497">
        <ele>1367</ele>
        <time>2021-03-20T09:08:07.529Z</time>
      </trkpt>
      <trkpt lat="42.89745" lon="0.075">
        <ele>1367</ele>
        <time>2021-03-20T09:08:12.534Z</time>
      </trkpt>
      <trkpt lat="42.89747" lon="0.07505">
        <ele>1367</ele>
        <time>2021-03-20T09:08:17.535Z</time>
      </trkpt>
      <trkpt lat="42.89748" lon="0.07506">
        <ele>1367</ele>
        <time>2021-03-20T09:08:22.541Z</time>
      </trkpt>
      <trkpt lat="42.8975" lon="0.07509">
        <ele>1367</ele>
        <time>2021-03-20T09:08:27.565Z</time>
      </trkpt>
      <trkpt lat="42.89751" lon="0.07512">
        <ele>1367</ele>
        <time>2021-03-20T09:08:32.532Z</time>
      </trkpt>
      <trkpt lat="42.89751" lon="0.07519">
        <ele>1372</ele>
        <time>2021-03-20T09:08:37.532Z</time>
      </trkpt>
      <trkpt lat="42.89752" lon="0.07524">
        <ele>1372</ele>
        <time>2021-03-20T09:08:42.529Z</time>
      </trkpt>
      <trkpt lat="42.89754" lon="0.07528">
        <ele>1372</ele>
        <time>2021-03-20T09:08:47.537Z</time>
      </trkpt>
      <trkpt lat="42.89754" lon="0.07532">
        <ele>1372</ele>
        <time>2021-03-20T09:08:52.531Z</time>
      </trkpt>
      <trkpt lat="42.89754" lon="0.07535">
        <ele>1372</ele>
        <time>2021-03-20T09:08:56.533Z</time>
      </trkpt>
      <trkpt lat="42.89755" lon="0.07539">
        <ele>1372</ele>
        <time>2021-03-20T09:09:01.534Z</time>
      </trkpt>
      <trkpt lat="42.89757" lon="0.07543">
        <ele>1377</ele>
        <time>2021-03-20T09:09:06.535Z</time>
      </trkpt>
      <trkpt lat="42.89759" lon="0.07547">
        <ele>1377</ele>
        <time>2021-03-20T09:09:11.532Z</time>
      </trkpt>
      <trkpt lat="42.89757" lon="0.0755">
        <ele>1377</ele>
        <time>2021-03-20T09:09:16.536Z</time>
      </trkpt>
      <trkpt lat="42.89759" lon="0.07556">
        <ele>1377</ele>
        <time>2021-03-20T09:09:21.533Z</time>
      </trkpt>
      <trkpt lat="42.89759" lon="0.0756">
        <ele>1377</ele>
        <time>2021-03-20T09:09:25.562Z</time>
      </trkpt>
      <trkpt lat="42.8976" lon="0.07564">
        <ele>1377</ele>
        <time>2021-03-20T09:09:30.532Z</time>
      </trkpt>
      <trkpt lat="42.8976" lon="0.07567">
        <ele>1377</ele>
        <time>2021-03-20T09:09:35.531Z</time>
      </trkpt>
      <trkpt lat="42.89761" lon="0.07572">
        <ele>1377</ele>
        <time>2021-03-20T09:09:40.518Z</time>
      </trkpt>
      <trkpt lat="42.89762" lon="0.07575">
        <ele>1377</ele>
        <time>2021-03-20T09:09:44.537Z</time>
      </trkpt>
      <trkpt lat="42.89764" lon="0.0758">
        <ele>1366</ele>
        <time>2021-03-20T09:09:49.532Z</time>
      </trkpt>
      <trkpt lat="42.89763" lon="0.07583">
        <ele>1377</ele>
        <time>2021-03-20T09:09:54.533Z</time>
      </trkpt>
      <trkpt lat="42.89762" lon="0.07584">
        <ele>1377</ele>
        <time>2021-03-20T09:09:59.539Z</time>
      </trkpt>
      <trkpt lat="42.89764" lon="0.07589">
        <ele>1366</ele>
        <time>2021-03-20T09:10:04.530Z</time>
      </trkpt>
      <trkpt lat="42.89765" lon="0.07594">
        <ele>1366</ele>
        <time>2021-03-20T09:10:09.535Z</time>
      </trkpt>
      <trkpt lat="42.89767" lon="0.07599">
        <ele>1366</ele>
        <time>2021-03-20T09:10:14.533Z</time>
      </trkpt>
      <trkpt lat="42.89767" lon="0.07603">
        <ele>1366</ele>
        <time>2021-03-20T09:10:18.564Z</time>
      </trkpt>
      <trkpt lat="42.89768" lon="0.07608">
        <ele>1366</ele>
        <time>2021-03-20T09:10:23.531Z</time>
      </trkpt>
      <trkpt lat="42.89767" lon="0.07611">
        <ele>1366</ele>
        <time>2021-03-20T09:10:28.531Z</time>
      </trkpt>
      <trkpt lat="42.8976" lon="0.07618">
        <ele>1378</ele>
        <time>2021-03-20T09:11:27.532Z</time>
      </trkpt>
      <trkpt lat="42.89758" lon="0.07614">
        <ele>1378</ele>
        <time>2021-03-20T09:11:32.533Z</time>
      </trkpt>
      <trkpt lat="42.89755" lon="0.0761">
        <ele>1378</ele>
        <time>2021-03-20T09:11:37.533Z</time>
      </trkpt>
      <trkpt lat="42.89754" lon="0.07607">
        <ele>1378</ele>
        <time>2021-03-20T09:11:42.534Z</time>
      </trkpt>
      <trkpt lat="42.89752" lon="0.07602">
        <ele>1378</ele>
        <time>2021-03-20T09:11:47.533Z</time>
      </trkpt>
      <trkpt lat="42.89752" lon="0.07597">
        <ele>1378</ele>
        <time>2021-03-20T09:11:52.521Z</time>
      </trkpt>
      <trkpt lat="42.89751" lon="0.07594">
        <ele>1377</ele>
        <time>2021-03-20T09:11:56.532Z</time>
      </trkpt>
      <trkpt lat="42.89749" lon="0.07589">
        <ele>1377</ele>
        <time>2021-03-20T09:12:01.531Z</time>
      </trkpt>
      <trkpt lat="42.89747" lon="0.07586">
        <ele>1377</ele>
        <time>2021-03-20T09:12:05.544Z</time>
      </trkpt>
      <trkpt lat="42.89745" lon="0.07583">
        <ele>1377</ele>
        <time>2021-03-20T09:12:10.532Z</time>
      </trkpt>
      <trkpt lat="42.89747" lon="0.07577">
        <ele>1377</ele>
        <time>2021-03-20T09:12:15.534Z</time>
      </trkpt>
      <trkpt lat="42.89746" lon="0.07575">
        <ele>1377</ele>
        <time>2021-03-20T09:12:20.530Z</time>
      </trkpt>
      <trkpt lat="42.89747" lon="0.07574">
        <ele>1377</ele>
        <time>2021-03-20T09:12:25.531Z</time>
      </trkpt>
      <trkpt lat="42.89747" lon="0.07571">
        <ele>1377</ele>
        <time>2021-03-20T09:12:30.531Z</time>
      </trkpt>
      <trkpt lat="42.89749" lon="0.07572">
        <ele>1377</ele>
        <time>2021-03-20T09:13:43.689Z</time>
      </trkpt>
      <trkpt lat="42.89749" lon="0.07573">
        <ele>1377</ele>
        <time>2021-03-20T09:13:48.530Z</time>
      </trkpt>
      <trkpt lat="42.89748" lon="0.07573">
        <ele>1377</ele>
        <time>2021-03-20T09:13:53.534Z</time>
      </trkpt>
      <trkpt lat="42.89745" lon="0.07576">
        <ele>1377</ele>
        <time>2021-03-20T09:13:58.534Z</time>
      </trkpt>
      <trkpt lat="42.89743" lon="0.07579">
        <ele>1377</ele>
        <time>2021-03-20T09:14:03.530Z</time>
      </trkpt>
      <trkpt lat="42.89736" lon="0.07586">
        <ele>1377</ele>
        <time>2021-03-20T09:16:04.528Z</time>
      </trkpt>
      <trkpt lat="42.89736" lon="0.07588">
        <ele>1377</ele>
        <time>2021-03-20T09:16:09.528Z</time>
      </trkpt>
      <trkpt lat="42.89738" lon="0.07593">
        <ele>1377</ele>
        <time>2021-03-20T09:16:14.536Z</time>
      </trkpt>
      <trkpt lat="42.89737" lon="0.07597">
        <ele>1378</ele>
        <time>2021-03-20T09:16:19.532Z</time>
      </trkpt>
      <trkpt lat="42.89735" lon="0.07598">
        <ele>1395</ele>
        <time>2021-03-20T09:16:24.530Z</time>
      </trkpt>
      <trkpt lat="42.89733" lon="0.07596">
        <ele>1393</ele>
        <time>2021-03-20T09:17:33.531Z</time>
      </trkpt>
      <trkpt lat="42.89736" lon="0.076">
        <ele>1395</ele>
        <time>2021-03-20T09:17:38.530Z</time>
      </trkpt>
      <trkpt lat="42.89736" lon="0.07605">
        <ele>1395</ele>
        <time>2021-03-20T09:17:43.529Z</time>
      </trkpt>
      <trkpt lat="42.89734" lon="0.07611">
        <ele>1395</ele>
        <time>2021-03-20T09:17:48.816Z</time>
      </trkpt>
      <trkpt lat="42.89732" lon="0.07615">
        <ele>1395</ele>
        <time>2021-03-20T09:17:53.531Z</time>
      </trkpt>
      <trkpt lat="42.89723" lon="0.07616">
        <ele>1395</ele>
        <time>2021-03-20T09:18:47.525Z</time>
      </trkpt>
      <trkpt lat="42.89723" lon="0.07616">
        <ele>1395</ele>
        <time>2021-03-20T09:18:52.531Z</time>
      </trkpt>
      <trkpt lat="42.89722" lon="0.07619">
        <ele>1395</ele>
        <time>2021-03-20T09:18:57.551Z</time>
      </trkpt>
      <trkpt lat="42.89722" lon="0.07623">
        <ele>1395</ele>
        <time>2021-03-20T09:19:02.530Z</time>
      </trkpt>
      <trkpt lat="42.89724" lon="0.07627">
        <ele>1401</ele>
        <time>2021-03-20T09:19:07.526Z</time>
      </trkpt>
      <trkpt lat="42.89721" lon="0.07628">
        <ele>1401</ele>
        <time>2021-03-20T09:19:22.531Z</time>
      </trkpt>
      <trkpt lat="42.89721" lon="0.07625">
        <ele>1401</ele>
        <time>2021-03-20T09:19:26.536Z</time>
      </trkpt>
      <trkpt lat="42.89721" lon="0.07623">
        <ele>1395</ele>
        <time>2021-03-20T09:19:31.531Z</time>
      </trkpt>
      <trkpt lat="42.8972" lon="0.0762">
        <ele>1395</ele>
        <time>2021-03-20T09:19:36.529Z</time>
      </trkpt>
      <trkpt lat="42.89718" lon="0.07617">
        <ele>1395</ele>
        <time>2021-03-20T09:19:41.535Z</time>
      </trkpt>
      <trkpt lat="42.89717" lon="0.07614">
        <ele>1395</ele>
        <time>2021-03-20T09:19:46.529Z</time>
      </trkpt>
      <trkpt lat="42.89715" lon="0.07611">
        <ele>1395</ele>
        <time>2021-03-20T09:19:51.532Z</time>
      </trkpt>
      <trkpt lat="42.89715" lon="0.07607">
        <ele>1395</ele>
        <time>2021-03-20T09:19:56.528Z</time>
      </trkpt>
      <trkpt lat="42.89714" lon="0.07603">
        <ele>1395</ele>
        <time>2021-03-20T09:20:01.531Z</time>
      </trkpt>
      <trkpt lat="42.89712" lon="0.07601">
        <ele>1395</ele>
        <time>2021-03-20T09:20:06.531Z</time>
      </trkpt>
      <trkpt lat="42.89709" lon="0.07596">
        <ele>1393</ele>
        <time>2021-03-20T09:20:11.531Z</time>
      </trkpt>
      <trkpt lat="42.89707" lon="0.07594">
        <ele>1414</ele>
        <time>2021-03-20T09:20:16.533Z</time>
      </trkpt>
      <trkpt lat="42.89705" lon="0.0759">
        <ele>1414</ele>
        <time>2021-03-20T09:20:21.531Z</time>
      </trkpt>
      <trkpt lat="42.89705" lon="0.07588">
        <ele>1414</ele>
        <time>2021-03-20T09:20:26.532Z</time>
      </trkpt>
      <trkpt lat="42.89703" lon="0.07585">
        <ele>1414</ele>
        <time>2021-03-20T09:20:31.531Z</time>
      </trkpt>
      <trkpt lat="42.89701" lon="0.07579">
        <ele>1414</ele>
        <time>2021-03-20T09:20:40.533Z</time>
      </trkpt>
      <trkpt lat="42.897" lon="0.07575">
        <ele>1414</ele>
        <time>2021-03-20T09:20:45.534Z</time>
      </trkpt>
      <trkpt lat="42.89699" lon="0.07573">
        <ele>1414</ele>
        <time>2021-03-20T09:20:50.531Z</time>
      </trkpt>
      <trkpt lat="42.89698" lon="0.07573">
        <ele>1414</ele>
        <time>2021-03-20T09:20:55.534Z</time>
      </trkpt>
      <trkpt lat="42.89697" lon="0.07569">
        <ele>1406</ele>
        <time>2021-03-20T09:21:00.532Z</time>
      </trkpt>
      <trkpt lat="42.89695" lon="0.07566">
        <ele>1406</ele>
        <time>2021-03-20T09:21:10.530Z</time>
      </trkpt>
      <trkpt lat="42.89694" lon="0.07563">
        <ele>1406</ele>
        <time>2021-03-20T09:21:15.532Z</time>
      </trkpt>
      <trkpt lat="42.89693" lon="0.07561">
        <ele>1406</ele>
        <time>2021-03-20T09:21:20.530Z</time>
      </trkpt>
      <trkpt lat="42.89691" lon="0.07558">
        <ele>1406</ele>
        <time>2021-03-20T09:21:25.535Z</time>
      </trkpt>
      <trkpt lat="42.89691" lon="0.07555">
        <ele>1406</ele>
        <time>2021-03-20T09:21:30.533Z</time>
      </trkpt>
      <trkpt lat="42.89688" lon="0.07545">
        <ele>1406</ele>
        <time>2021-03-20T09:21:45.534Z</time>
      </trkpt>
      <trkpt lat="42.89686" lon="0.07543">
        <ele>1406</ele>
        <time>2021-03-20T09:21:50.533Z</time>
      </trkpt>
      <trkpt lat="42.89684" lon="0.07542">
        <ele>1395</ele>
        <time>2021-03-20T09:21:55.536Z</time>
      </trkpt>
      <trkpt lat="42.89684" lon="0.07542">
        <ele>1406</ele>
        <time>2021-03-20T09:22:00.532Z</time>
      </trkpt>
      <trkpt lat="42.89683" lon="0.07538">
        <ele>1395</ele>
        <time>2021-03-20T09:22:04.554Z</time>
      </trkpt>
      <trkpt lat="42.89679" lon="0.07532">
        <ele>1419</ele>
        <time>2021-03-20T09:22:19.534Z</time>
      </trkpt>
      <trkpt lat="42.89679" lon="0.0753">
        <ele>1419</ele>
        <time>2021-03-20T09:22:24.530Z</time>
      </trkpt>
      <trkpt lat="42.89678" lon="0.07529">
        <ele>1419</ele>
        <time>2021-03-20T09:22:29.533Z</time>
      </trkpt>
      <trkpt lat="42.89676" lon="0.07528">
        <ele>1419</ele>
        <time>2021-03-20T09:22:34.534Z</time>
      </trkpt>
      <trkpt lat="42.89675" lon="0.07526">
        <ele>1419</ele>
        <time>2021-03-20T09:22:39.531Z</time>
      </trkpt>
      <trkpt lat="42.89674" lon="0.07521">
        <ele>1419</ele>
        <time>2021-03-20T09:22:44.534Z</time>
      </trkpt>
      <trkpt lat="42.89671" lon="0.07517">
        <ele>1419</ele>
        <time>2021-03-20T09:22:49.531Z</time>
      </trkpt>
      <trkpt lat="42.89669" lon="0.07514">
        <ele>1419</ele>
        <time>2021-03-20T09:22:54.535Z</time>
      </trkpt>
      <trkpt lat="42.89668" lon="0.07511">
        <ele>1413</ele>
        <time>2021-03-20T09:22:59.535Z</time>
      </trkpt>
      <trkpt lat="42.89665" lon="0.07506">
        <ele>1413</ele>
        <time>2021-03-20T09:23:14.530Z</time>
      </trkpt>
      <trkpt lat="42.89663" lon="0.07506">
        <ele>1413</ele>
        <time>2021-03-20T09:23:19.533Z</time>
      </trkpt>
      <trkpt lat="42.89663" lon="0.07506">
        <ele>1413</ele>
        <time>2021-03-20T09:23:24.531Z</time>
      </trkpt>
      <trkpt lat="42.89661" lon="0.07502">
        <ele>1413</ele>
        <time>2021-03-20T09:23:29.532Z</time>
      </trkpt>
      <trkpt lat="42.89661" lon="0.07498">
        <ele>1413</ele>
        <time>2021-03-20T09:23:34.534Z</time>
      </trkpt>
      <trkpt lat="42.8966" lon="0.07491">
        <ele>1413</ele>
        <time>2021-03-20T09:23:44.536Z</time>
      </trkpt>
      <trkpt lat="42.89658" lon="0.07488">
        <ele>1413</ele>
        <time>2021-03-20T09:23:49.564Z</time>
      </trkpt>
      <trkpt lat="42.89656" lon="0.07488">
        <ele>1413</ele>
        <time>2021-03-20T09:23:54.538Z</time>
      </trkpt>
      <trkpt lat="42.89656" lon="0.07485">
        <ele>1412</ele>
        <time>2021-03-20T09:23:59.533Z</time>
      </trkpt>
      <trkpt lat="42.89656" lon="0.07483">
        <ele>1412</ele>
        <time>2021-03-20T09:24:04.531Z</time>
      </trkpt>
      <trkpt lat="42.89653" lon="0.07482">
        <ele>1412</ele>
        <time>2021-03-20T09:24:09.533Z</time>
      </trkpt>
      <trkpt lat="42.89651" lon="0.07483">
        <ele>1424</ele>
        <time>2021-03-20T09:24:14.531Z</time>
      </trkpt>
      <trkpt lat="42.89651" lon="0.07488">
        <ele>1428</ele>
        <time>2021-03-20T09:24:19.530Z</time>
      </trkpt>
      <trkpt lat="42.89651" lon="0.07492">
        <ele>1428</ele>
        <time>2021-03-20T09:24:24.534Z</time>
      </trkpt>
      <trkpt lat="42.89652" lon="0.07496">
        <ele>1428</ele>
        <time>2021-03-20T09:24:29.532Z</time>
      </trkpt>
      <trkpt lat="42.89652" lon="0.07499">
        <ele>1428</ele>
        <time>2021-03-20T09:24:34.529Z</time>
      </trkpt>
      <trkpt lat="42.89652" lon="0.07503">
        <ele>1428</ele>
        <time>2021-03-20T09:24:39.531Z</time>
      </trkpt>
      <trkpt lat="42.89651" lon="0.07508">
        <ele>1428</ele>
        <time>2021-03-20T09:24:44.534Z</time>
      </trkpt>
      <trkpt lat="42.89651" lon="0.07511">
        <ele>1428</ele>
        <time>2021-03-20T09:24:49.529Z</time>
      </trkpt>
      <trkpt lat="42.89651" lon="0.07513">
        <ele>1428</ele>
        <time>2021-03-20T09:24:54.533Z</time>
      </trkpt>
      <trkpt lat="42.89651" lon="0.07516">
        <ele>1433</ele>
        <time>2021-03-20T09:24:59.524Z</time>
      </trkpt>
      <trkpt lat="42.89651" lon="0.0752">
        <ele>1433</ele>
        <time>2021-03-20T09:25:04.526Z</time>
      </trkpt>
      <trkpt lat="42.89653" lon="0.07522">
        <ele>1419</ele>
        <time>2021-03-20T09:25:08.531Z</time>
      </trkpt>
      <trkpt lat="42.89656" lon="0.07524">
        <ele>1419</ele>
        <time>2021-03-20T09:25:12.806Z</time>
      </trkpt>
      <trkpt lat="42.89656" lon="0.07526">
        <ele>1419</ele>
        <time>2021-03-20T09:25:17.534Z</time>
      </trkpt>
      <trkpt lat="42.89656" lon="0.07528">
        <ele>1419</ele>
        <time>2021-03-20T09:25:27.583Z</time>
      </trkpt>
      <trkpt lat="42.89657" lon="0.07528">
        <ele>1419</ele>
        <time>2021-03-20T09:25:32.529Z</time>
      </trkpt>
      <trkpt lat="42.89657" lon="0.07532">
        <ele>1419</ele>
        <time>2021-03-20T09:25:37.532Z</time>
      </trkpt>
      <trkpt lat="42.89657" lon="0.07537">
        <ele>1419</ele>
        <time>2021-03-20T09:25:42.530Z</time>
      </trkpt>
      <trkpt lat="42.89658" lon="0.0754">
        <ele>1419</ele>
        <time>2021-03-20T09:25:47.532Z</time>
      </trkpt>
      <trkpt lat="42.89653" lon="0.07547">
        <ele>1437</ele>
        <time>2021-03-20T09:25:57.533Z</time>
      </trkpt>
      <trkpt lat="42.89651" lon="0.0755">
        <ele>1437</ele>
        <time>2021-03-20T09:26:02.524Z</time>
      </trkpt>
      <trkpt lat="42.89649" lon="0.07552">
        <ele>1437</ele>
        <time>2021-03-20T09:26:07.527Z</time>
      </trkpt>
      <trkpt lat="42.89649" lon="0.07552">
        <ele>1437</ele>
        <time>2021-03-20T09:26:11.536Z</time>
      </trkpt>
      <trkpt lat="42.89649" lon="0.07555">
        <ele>1437</ele>
        <time>2021-03-20T09:26:16.539Z</time>
      </trkpt>
      <trkpt lat="42.89643" lon="0.0756">
        <ele>1437</ele>
        <time>2021-03-20T09:27:47.722Z</time>
      </trkpt>
      <trkpt lat="42.89642" lon="0.07559">
        <ele>1437</ele>
        <time>2021-03-20T09:27:52.528Z</time>
      </trkpt>
      <trkpt lat="42.89641" lon="0.07557">
        <ele>1437</ele>
        <time>2021-03-20T09:27:57.529Z</time>
      </trkpt>
      <trkpt lat="42.8964" lon="0.07557">
        <ele>1437</ele>
        <time>2021-03-20T09:28:01.719Z</time>
      </trkpt>
      <trkpt lat="42.89639" lon="0.07554">
        <ele>1437</ele>
        <time>2021-03-20T09:28:06.539Z</time>
      </trkpt>
      <trkpt lat="42.89637" lon="0.0755">
        <ele>1437</ele>
        <time>2021-03-20T09:28:16.531Z</time>
      </trkpt>
      <trkpt lat="42.89635" lon="0.07547">
        <ele>1437</ele>
        <time>2021-03-20T09:28:20.825Z</time>
      </trkpt>
      <trkpt lat="42.89635" lon="0.07546">
        <ele>1437</ele>
        <time>2021-03-20T09:28:25.533Z</time>
      </trkpt>
      <trkpt lat="42.89632" lon="0.07543">
        <ele>1437</ele>
        <time>2021-03-20T09:28:30.530Z</time>
      </trkpt>
      <trkpt lat="42.89631" lon="0.0754">
        <ele>1433</ele>
        <time>2021-03-20T09:28:34.765Z</time>
      </trkpt>
      <trkpt lat="42.89622" lon="0.07531">
        <ele>1446</ele>
        <time>2021-03-20T09:29:18.530Z</time>
      </trkpt>
      <trkpt lat="42.89622" lon="0.07531">
        <ele>1446</ele>
        <time>2021-03-20T09:29:23.529Z</time>
      </trkpt>
      <trkpt lat="42.89622" lon="0.07531">
        <ele>1446</ele>
        <time>2021-03-20T09:29:28.528Z</time>
      </trkpt>
      <trkpt lat="42.89621" lon="0.0753">
        <ele>1446</ele>
        <time>2021-03-20T09:29:32.833Z</time>
      </trkpt>
      <trkpt lat="42.8962" lon="0.07529">
        <ele>1446</ele>
        <time>2021-03-20T09:29:37.530Z</time>
      </trkpt>
      <trkpt lat="42.89621" lon="0.0753">
        <ele>1446</ele>
        <time>2021-03-20T09:29:47.527Z</time>
      </trkpt>
      <trkpt lat="42.8962" lon="0.0753">
        <ele>1446</ele>
        <time>2021-03-20T09:29:52.533Z</time>
      </trkpt>
      <trkpt lat="42.89619" lon="0.07534">
        <ele>1446</ele>
        <time>2021-03-20T09:29:57.598Z</time>
      </trkpt>
      <trkpt lat="42.89619" lon="0.07537">
        <ele>1446</ele>
        <time>2021-03-20T09:30:02.537Z</time>
      </trkpt>
      <trkpt lat="42.89619" lon="0.07542">
        <ele>1446</ele>
        <time>2021-03-20T09:30:07.530Z</time>
      </trkpt>
      <trkpt lat="42.89618" lon="0.07545">
        <ele>1451</ele>
        <time>2021-03-20T09:30:12.530Z</time>
      </trkpt>
      <trkpt lat="42.89616" lon="0.07549">
        <ele>1451</ele>
        <time>2021-03-20T09:30:17.531Z</time>
      </trkpt>
      <trkpt lat="42.89615" lon="0.07553">
        <ele>1451</ele>
        <time>2021-03-20T09:30:22.534Z</time>
      </trkpt>
      <trkpt lat="42.89614" lon="0.07558">
        <ele>1451</ele>
        <time>2021-03-20T09:30:27.532Z</time>
      </trkpt>
      <trkpt lat="42.89614" lon="0.07562">
        <ele>1451</ele>
        <time>2021-03-20T09:30:32.530Z</time>
      </trkpt>
      <trkpt lat="42.89613" lon="0.07566">
        <ele>1451</ele>
        <time>2021-03-20T09:30:37.601Z</time>
      </trkpt>
      <trkpt lat="42.89612" lon="0.07571">
        <ele>1455</ele>
        <time>2021-03-20T09:30:42.535Z</time>
      </trkpt>
      <trkpt lat="42.89613" lon="0.07575">
        <ele>1455</ele>
        <time>2021-03-20T09:30:47.567Z</time>
      </trkpt>
      <trkpt lat="42.89613" lon="0.07579">
        <ele>1455</ele>
        <time>2021-03-20T09:30:52.587Z</time>
      </trkpt>
      <trkpt lat="42.89614" lon="0.07583">
        <ele>1455</ele>
        <time>2021-03-20T09:30:57.526Z</time>
      </trkpt>
      <trkpt lat="42.89612" lon="0.07585">
        <ele>1455</ele>
        <time>2021-03-20T09:31:02.535Z</time>
      </trkpt>
      <trkpt lat="42.89612" lon="0.0759">
        <ele>1455</ele>
        <time>2021-03-20T09:31:07.534Z</time>
      </trkpt>
      <trkpt lat="42.89612" lon="0.07593">
        <ele>1455</ele>
        <time>2021-03-20T09:31:12.533Z</time>
      </trkpt>
      <trkpt lat="42.89611" lon="0.07596">
        <ele>1455</ele>
        <time>2021-03-20T09:31:17.671Z</time>
      </trkpt>
      <trkpt lat="42.8961" lon="0.07601">
        <ele>1462</ele>
        <time>2021-03-20T09:31:22.529Z</time>
      </trkpt>
      <trkpt lat="42.8961" lon="0.07604">
        <ele>1462</ele>
        <time>2021-03-20T09:31:26.559Z</time>
      </trkpt>
      <trkpt lat="42.8961" lon="0.07608">
        <ele>1462</ele>
        <time>2021-03-20T09:31:31.531Z</time>
      </trkpt>
      <trkpt lat="42.89609" lon="0.0761">
        <ele>1462</ele>
        <time>2021-03-20T09:31:35.544Z</time>
      </trkpt>
      <trkpt lat="42.89609" lon="0.07614">
        <ele>1462</ele>
        <time>2021-03-20T09:31:39.530Z</time>
      </trkpt>
      <trkpt lat="42.89611" lon="0.07618">
        <ele>1462</ele>
        <time>2021-03-20T09:31:44.533Z</time>
      </trkpt>
      <trkpt lat="42.89612" lon="0.07624">
        <ele>1462</ele>
        <time>2021-03-20T09:31:49.536Z</time>
      </trkpt>
      <trkpt lat="42.89612" lon="0.07628">
        <ele>1463</ele>
        <time>2021-03-20T09:31:53.534Z</time>
      </trkpt>
      <trkpt lat="42.8961" lon="0.07632">
        <ele>1463</ele>
        <time>2021-03-20T09:31:58.532Z</time>
      </trkpt>
      <trkpt lat="42.89609" lon="0.07636">
        <ele>1463</ele>
        <time>2021-03-20T09:32:02.530Z</time>
      </trkpt>
      <trkpt lat="42.89607" lon="0.0764">
        <ele>1463</ele>
        <time>2021-03-20T09:32:07.532Z</time>
      </trkpt>
      <trkpt lat="42.89606" lon="0.07644">
        <ele>1463</ele>
        <time>2021-03-20T09:32:12.531Z</time>
      </trkpt>
      <trkpt lat="42.89606" lon="0.07646">
        <ele>1463</ele>
        <time>2021-03-20T09:32:17.536Z</time>
      </trkpt>
      <trkpt lat="42.89607" lon="0.0765">
        <ele>1463</ele>
        <time>2021-03-20T09:32:22.669Z</time>
      </trkpt>
      <trkpt lat="42.89606" lon="0.07654">
        <ele>1465</ele>
        <time>2021-03-20T09:32:27.528Z</time>
      </trkpt>
      <trkpt lat="42.89604" lon="0.07657">
        <ele>1465</ele>
        <time>2021-03-20T09:32:32.555Z</time>
      </trkpt>
      <trkpt lat="42.89602" lon="0.07661">
        <ele>1465</ele>
        <time>2021-03-20T09:32:37.530Z</time>
      </trkpt>
      <trkpt lat="42.89603" lon="0.07667">
        <ele>1465</ele>
        <time>2021-03-20T09:32:42.530Z</time>
      </trkpt>
      <trkpt lat="42.89601" lon="0.0767">
        <ele>1465</ele>
        <time>2021-03-20T09:32:47.525Z</time>
      </trkpt>
      <trkpt lat="42.89598" lon="0.0767">
        <ele>1465</ele>
        <time>2021-03-20T09:32:51.833Z</time>
      </trkpt>
      <trkpt lat="42.89594" lon="0.07672">
        <ele>1477</ele>
        <time>2021-03-20T09:32:56.527Z</time>
      </trkpt>
      <trkpt lat="42.89592" lon="0.07674">
        <ele>1477</ele>
        <time>2021-03-20T09:33:01.531Z</time>
      </trkpt>
      <trkpt lat="42.89592" lon="0.07677">
        <ele>1477</ele>
        <time>2021-03-20T09:33:06.531Z</time>
      </trkpt>
      <trkpt lat="42.8959" lon="0.07681">
        <ele>1476</ele>
        <time>2021-03-20T09:33:11.530Z</time>
      </trkpt>
      <trkpt lat="42.8959" lon="0.07683">
        <ele>1476</ele>
        <time>2021-03-20T09:33:15.523Z</time>
      </trkpt>
      <trkpt lat="42.89588" lon="0.07686">
        <ele>1476</ele>
        <time>2021-03-20T09:33:20.841Z</time>
      </trkpt>
      <trkpt lat="42.89586" lon="0.07689">
        <ele>1476</ele>
        <time>2021-03-20T09:33:25.537Z</time>
      </trkpt>
      <trkpt lat="42.89584" lon="0.0769">
        <ele>1476</ele>
        <time>2021-03-20T09:33:30.532Z</time>
      </trkpt>
      <trkpt lat="42.89583" lon="0.0769">
        <ele>1476</ele>
        <time>2021-03-20T09:33:34.728Z</time>
      </trkpt>
      <trkpt lat="42.89581" lon="0.07693">
        <ele>1476</ele>
        <time>2021-03-20T09:33:39.535Z</time>
      </trkpt>
      <trkpt lat="42.89578" lon="0.07694">
        <ele>1476</ele>
        <time>2021-03-20T09:33:44.527Z</time>
      </trkpt>
      <trkpt lat="42.89576" lon="0.07696">
        <ele>1476</ele>
        <time>2021-03-20T09:33:49.532Z</time>
      </trkpt>
      <trkpt lat="42.89575" lon="0.07701">
        <ele>1476</ele>
        <time>2021-03-20T09:33:54.524Z</time>
      </trkpt>
      <trkpt lat="42.89573" lon="0.07704">
        <ele>1476</ele>
        <time>2021-03-20T09:33:59.724Z</time>
      </trkpt>
      <trkpt lat="42.89571" lon="0.07707">
        <ele>1476</ele>
        <time>2021-03-20T09:34:04.532Z</time>
      </trkpt>
      <trkpt lat="42.8957" lon="0.0771">
        <ele>1477</ele>
        <time>2021-03-20T09:34:09.567Z</time>
      </trkpt>
      <trkpt lat="42.89569" lon="0.07713">
        <ele>1492</ele>
        <time>2021-03-20T09:34:14.678Z</time>
      </trkpt>
      <trkpt lat="42.89568" lon="0.07717">
        <ele>1492</ele>
        <time>2021-03-20T09:34:19.533Z</time>
      </trkpt>
      <trkpt lat="42.89568" lon="0.0772">
        <ele>1492</ele>
        <time>2021-03-20T09:34:23.530Z</time>
      </trkpt>
      <trkpt lat="42.89566" lon="0.07722">
        <ele>1492</ele>
        <time>2021-03-20T09:34:28.823Z</time>
      </trkpt>
      <trkpt lat="42.89567" lon="0.07721">
        <ele>1492</ele>
        <time>2021-03-20T09:34:43.533Z</time>
      </trkpt>
      <trkpt lat="42.89567" lon="0.07722">
        <ele>1492</ele>
        <time>2021-03-20T09:34:47.661Z</time>
      </trkpt>
      <trkpt lat="42.89565" lon="0.07725">
        <ele>1492</ele>
        <time>2021-03-20T09:34:52.533Z</time>
      </trkpt>
      <trkpt lat="42.89561" lon="0.07727">
        <ele>1492</ele>
        <time>2021-03-20T09:34:57.531Z</time>
      </trkpt>
      <trkpt lat="42.89561" lon="0.07731">
        <ele>1492</ele>
        <time>2021-03-20T09:35:02.530Z</time>
      </trkpt>
      <trkpt lat="42.89561" lon="0.07735">
        <ele>1492</ele>
        <time>2021-03-20T09:35:07.535Z</time>
      </trkpt>
      <trkpt lat="42.89561" lon="0.07739">
        <ele>1494</ele>
        <time>2021-03-20T09:35:12.528Z</time>
      </trkpt>
      <trkpt lat="42.8956" lon="0.07742">
        <ele>1494</ele>
        <time>2021-03-20T09:35:16.530Z</time>
      </trkpt>
      <trkpt lat="42.89559" lon="0.07746">
        <ele>1494</ele>
        <time>2021-03-20T09:35:21.528Z</time>
      </trkpt>
      <trkpt lat="42.89558" lon="0.0775">
        <ele>1494</ele>
        <time>2021-03-20T09:35:26.529Z</time>
      </trkpt>
      <trkpt lat="42.89555" lon="0.07764">
        <ele>1497</ele>
        <time>2021-03-20T09:37:08.527Z</time>
      </trkpt>
      <trkpt lat="42.89555" lon="0.07764">
        <ele>1497</ele>
        <time>2021-03-20T09:37:13.529Z</time>
      </trkpt>
      <trkpt lat="42.89555" lon="0.07764">
        <ele>1497</ele>
        <time>2021-03-20T09:37:18.524Z</time>
      </trkpt>
      <trkpt lat="42.89555" lon="0.07764">
        <ele>1497</ele>
        <time>2021-03-20T09:37:23.758Z</time>
      </trkpt>
      <trkpt lat="42.89555" lon="0.07766">
        <ele>1497</ele>
        <time>2021-03-20T09:37:28.530Z</time>
      </trkpt>
      <trkpt lat="42.89555" lon="0.07768">
        <ele>1497</ele>
        <time>2021-03-20T09:37:33.719Z</time>
      </trkpt>
      <trkpt lat="42.89556" lon="0.07771">
        <ele>1497</ele>
        <time>2021-03-20T09:37:38.531Z</time>
      </trkpt>
      <trkpt lat="42.89554" lon="0.07774">
        <ele>1497</ele>
        <time>2021-03-20T09:37:43.530Z</time>
      </trkpt>
      <trkpt lat="42.89553" lon="0.07777">
        <ele>1497</ele>
        <time>2021-03-20T09:37:48.528Z</time>
      </trkpt>
      <trkpt lat="42.89552" lon="0.07782">
        <ele>1497</ele>
        <time>2021-03-20T09:37:53.556Z</time>
      </trkpt>
      <trkpt lat="42.8955" lon="0.07786">
        <ele>1497</ele>
        <time>2021-03-20T09:37:58.533Z</time>
      </trkpt>
      <trkpt lat="42.89548" lon="0.07791">
        <ele>1497</ele>
        <time>2021-03-20T09:38:03.528Z</time>
      </trkpt>
      <trkpt lat="42.89546" lon="0.07795">
        <ele>1496</ele>
        <time>2021-03-20T09:38:08.530Z</time>
      </trkpt>
      <trkpt lat="42.89544" lon="0.07799">
        <ele>1496</ele>
        <time>2021-03-20T09:38:13.804Z</time>
      </trkpt>
      <trkpt lat="42.89543" lon="0.07803">
        <ele>1496</ele>
        <time>2021-03-20T09:38:18.531Z</time>
      </trkpt>
      <trkpt lat="42.89542" lon="0.07807">
        <ele>1496</ele>
        <time>2021-03-20T09:38:23.561Z</time>
      </trkpt>
      <trkpt lat="42.8954" lon="0.07811">
        <ele>1510</ele>
        <time>2021-03-20T09:38:28.538Z</time>
      </trkpt>
      <trkpt lat="42.89539" lon="0.07816">
        <ele>1510</ele>
        <time>2021-03-20T09:38:33.532Z</time>
      </trkpt>
      <trkpt lat="42.89537" lon="0.0782">
        <ele>1504</ele>
        <time>2021-03-20T09:38:38.530Z</time>
      </trkpt>
      <trkpt lat="42.89534" lon="0.0782">
        <ele>1504</ele>
        <time>2021-03-20T09:38:43.532Z</time>
      </trkpt>
      <trkpt lat="42.89533" lon="0.07821">
        <ele>1504</ele>
        <time>2021-03-20T09:38:48.630Z</time>
      </trkpt>
      <trkpt lat="42.89532" lon="0.07825">
        <ele>1504</ele>
        <time>2021-03-20T09:38:53.529Z</time>
      </trkpt>
      <trkpt lat="42.89531" lon="0.07829">
        <ele>1504</ele>
        <time>2021-03-20T09:38:58.529Z</time>
      </trkpt>
      <trkpt lat="42.8953" lon="0.07833">
        <ele>1504</ele>
        <time>2021-03-20T09:39:03.529Z</time>
      </trkpt>
      <trkpt lat="42.89529" lon="0.07835">
        <ele>1504</ele>
        <time>2021-03-20T09:39:08.700Z</time>
      </trkpt>
      <trkpt lat="42.89526" lon="0.07834">
        <ele>1504</ele>
        <time>2021-03-20T09:39:13.531Z</time>
      </trkpt>
      <trkpt lat="42.89524" lon="0.07837">
        <ele>1504</ele>
        <time>2021-03-20T09:39:18.530Z</time>
      </trkpt>
      <trkpt lat="42.8952" lon="0.07837">
        <ele>1504</ele>
        <time>2021-03-20T09:39:23.806Z</time>
      </trkpt>
      <trkpt lat="42.89517" lon="0.07841">
        <ele>1504</ele>
        <time>2021-03-20T09:39:28.528Z</time>
      </trkpt>
      <trkpt lat="42.89514" lon="0.07843">
        <ele>1508</ele>
        <time>2021-03-20T09:39:33.528Z</time>
      </trkpt>
      <trkpt lat="42.89511" lon="0.07846">
        <ele>1508</ele>
        <time>2021-03-20T09:39:38.533Z</time>
      </trkpt>
      <trkpt lat="42.89509" lon="0.07849">
        <ele>1505</ele>
        <time>2021-03-20T09:39:42.747Z</time>
      </trkpt>
      <trkpt lat="42.89507" lon="0.07853">
        <ele>1505</ele>
        <time>2021-03-20T09:39:47.534Z</time>
      </trkpt>
      <trkpt lat="42.89506" lon="0.07858">
        <ele>1505</ele>
        <time>2021-03-20T09:39:52.533Z</time>
      </trkpt>
      <trkpt lat="42.89503" lon="0.07863">
        <ele>1505</ele>
        <time>2021-03-20T09:39:57.526Z</time>
      </trkpt>
      <trkpt lat="42.895" lon="0.07867">
        <ele>1505</ele>
        <time>2021-03-20T09:40:02.558Z</time>
      </trkpt>
      <trkpt lat="42.89496" lon="0.07872">
        <ele>1505</ele>
        <time>2021-03-20T09:40:07.532Z</time>
      </trkpt>
      <trkpt lat="42.89492" lon="0.07877">
        <ele>1506</ele>
        <time>2021-03-20T09:40:12.534Z</time>
      </trkpt>
      <trkpt lat="42.89488" lon="0.0788">
        <ele>1506</ele>
        <time>2021-03-20T09:40:16.831Z</time>
      </trkpt>
      <trkpt lat="42.89483" lon="0.07884">
        <ele>1507</ele>
        <time>2021-03-20T09:40:21.533Z</time>
      </trkpt>
      <trkpt lat="42.89477" lon="0.07897">
        <ele>1507</ele>
        <time>2021-03-20T09:41:01.534Z</time>
      </trkpt>
      <trkpt lat="42.89476" lon="0.07897">
        <ele>1507</ele>
        <time>2021-03-20T09:41:06.530Z</time>
      </trkpt>
      <trkpt lat="42.89475" lon="0.07897">
        <ele>1507</ele>
        <time>2021-03-20T09:41:11.533Z</time>
      </trkpt>
      <trkpt lat="42.89474" lon="0.07899">
        <ele>1507</ele>
        <time>2021-03-20T09:41:16.528Z</time>
      </trkpt>
      <trkpt lat="42.89474" lon="0.07899">
        <ele>1507</ele>
        <time>2021-03-20T09:41:21.529Z</time>
      </trkpt>
      <trkpt lat="42.89473" lon="0.07904">
        <ele>1508</ele>
        <time>2021-03-20T09:43:18.534Z</time>
      </trkpt>
      <trkpt lat="42.89473" lon="0.07905">
        <ele>1508</ele>
        <time>2021-03-20T09:43:23.531Z</time>
      </trkpt>
      <trkpt lat="42.8947" lon="0.07906">
        <ele>1508</ele>
        <time>2021-03-20T09:43:28.556Z</time>
      </trkpt>
      <trkpt lat="42.89469" lon="0.07908">
        <ele>1508</ele>
        <time>2021-03-20T09:43:33.531Z</time>
      </trkpt>
      <trkpt lat="42.89467" lon="0.07908">
        <ele>1508</ele>
        <time>2021-03-20T09:43:38.535Z</time>
      </trkpt>
      <trkpt lat="42.89465" lon="0.0791">
        <ele>1508</ele>
        <time>2021-03-20T09:43:43.532Z</time>
      </trkpt>
      <trkpt lat="42.89461" lon="0.07909">
        <ele>1508</ele>
        <time>2021-03-20T09:43:48.531Z</time>
      </trkpt>
      <trkpt lat="42.89458" lon="0.07909">
        <ele>1513</ele>
        <time>2021-03-20T09:43:53.532Z</time>
      </trkpt>
      <trkpt lat="42.89456" lon="0.0791">
        <ele>1513</ele>
        <time>2021-03-20T09:43:57.529Z</time>
      </trkpt>
      <trkpt lat="42.89449" lon="0.07921">
        <ele>1513</ele>
        <time>2021-03-20T09:44:57.531Z</time>
      </trkpt>
      <trkpt lat="42.89449" lon="0.07924">
        <ele>1513</ele>
        <time>2021-03-20T09:45:01.529Z</time>
      </trkpt>
      <trkpt lat="42.89449" lon="0.07924">
        <ele>1513</ele>
        <time>2021-03-20T09:45:06.536Z</time>
      </trkpt>
      <trkpt lat="42.89446" lon="0.07926">
        <ele>1513</ele>
        <time>2021-03-20T09:45:11.530Z</time>
      </trkpt>
      <trkpt lat="42.89444" lon="0.07926">
        <ele>1513</ele>
        <time>2021-03-20T09:45:16.533Z</time>
      </trkpt>
      <trkpt lat="42.89444" lon="0.07926">
        <ele>1513</ele>
        <time>2021-03-20T09:47:02.530Z</time>
      </trkpt>
      <trkpt lat="42.89441" lon="0.07925">
        <ele>1513</ele>
        <time>2021-03-20T09:47:07.532Z</time>
      </trkpt>
      <trkpt lat="42.89437" lon="0.07924">
        <ele>1513</ele>
        <time>2021-03-20T09:47:11.558Z</time>
      </trkpt>
      <trkpt lat="42.89434" lon="0.07927">
        <ele>1513</ele>
        <time>2021-03-20T09:47:16.715Z</time>
      </trkpt>
      <trkpt lat="42.89431" lon="0.0793">
        <ele>1513</ele>
        <time>2021-03-20T09:47:21.531Z</time>
      </trkpt>
      <trkpt lat="42.89428" lon="0.07931">
        <ele>1521</ele>
        <time>2021-03-20T09:47:26.530Z</time>
      </trkpt>
      <trkpt lat="42.89424" lon="0.07931">
        <ele>1521</ele>
        <time>2021-03-20T09:47:31.533Z</time>
      </trkpt>
      <trkpt lat="42.89421" lon="0.07932">
        <ele>1521</ele>
        <time>2021-03-20T09:47:35.831Z</time>
      </trkpt>
      <trkpt lat="42.89419" lon="0.07935">
        <ele>1521</ele>
        <time>2021-03-20T09:47:40.530Z</time>
      </trkpt>
      <trkpt lat="42.89416" lon="0.07936">
        <ele>1521</ele>
        <time>2021-03-20T09:47:45.531Z</time>
      </trkpt>
      <trkpt lat="42.89412" lon="0.07937">
        <ele>1521</ele>
        <time>2021-03-20T09:47:50.682Z</time>
      </trkpt>
      <trkpt lat="42.8941" lon="0.07941">
        <ele>1521</ele>
        <time>2021-03-20T09:47:55.534Z</time>
      </trkpt>
      <trkpt lat="42.8941" lon="0.07943">
        <ele>1521</ele>
        <time>2021-03-20T09:48:00.532Z</time>
      </trkpt>
      <trkpt lat="42.89406" lon="0.07947">
        <ele>1521</ele>
        <time>2021-03-20T09:48:05.529Z</time>
      </trkpt>
      <trkpt lat="42.89403" lon="0.0795">
        <ele>1521</ele>
        <time>2021-03-20T09:48:10.554Z</time>
      </trkpt>
      <trkpt lat="42.894" lon="0.07952">
        <ele>1529</ele>
        <time>2021-03-20T09:48:15.528Z</time>
      </trkpt>
      <trkpt lat="42.89398" lon="0.07955">
        <ele>1529</ele>
        <time>2021-03-20T09:48:20.700Z</time>
      </trkpt>
      <trkpt lat="42.89395" lon="0.07956">
        <ele>1529</ele>
        <time>2021-03-20T09:48:25.534Z</time>
      </trkpt>
      <trkpt lat="42.89393" lon="0.07959">
        <ele>1527</ele>
        <time>2021-03-20T09:48:29.727Z</time>
      </trkpt>
      <trkpt lat="42.89392" lon="0.07961">
        <ele>1527</ele>
        <time>2021-03-20T09:48:34.528Z</time>
      </trkpt>
      <trkpt lat="42.8939" lon="0.07963">
        <ele>1527</ele>
        <time>2021-03-20T09:48:39.530Z</time>
      </trkpt>
      <trkpt lat="42.89388" lon="0.07964">
        <ele>1527</ele>
        <time>2021-03-20T09:48:44.525Z</time>
      </trkpt>
      <trkpt lat="42.89386" lon="0.07966">
        <ele>1527</ele>
        <time>2021-03-20T09:48:49.728Z</time>
      </trkpt>
      <trkpt lat="42.89384" lon="0.07967">
        <ele>1527</ele>
        <time>2021-03-20T09:48:54.533Z</time>
      </trkpt>
      <trkpt lat="42.89381" lon="0.07971">
        <ele>1527</ele>
        <time>2021-03-20T09:48:59.532Z</time>
      </trkpt>
      <trkpt lat="42.89378" lon="0.07974">
        <ele>1527</ele>
        <time>2021-03-20T09:49:03.543Z</time>
      </trkpt>
      <trkpt lat="42.89377" lon="0.07979">
        <ele>1527</ele>
        <time>2021-03-20T09:49:08.530Z</time>
      </trkpt>
      <trkpt lat="42.89381" lon="0.0799">
        <ele>1524</ele>
        <time>2021-03-20T09:49:23.529Z</time>
      </trkpt>
      <trkpt lat="42.89377" lon="0.07991">
        <ele>1524</ele>
        <time>2021-03-20T09:49:28.529Z</time>
      </trkpt>
      <trkpt lat="42.89374" lon="0.07988">
        <ele>1533</ele>
        <time>2021-03-20T09:49:33.556Z</time>
      </trkpt>
      <trkpt lat="42.8937" lon="0.07986">
        <ele>1536</ele>
        <time>2021-03-20T09:49:38.530Z</time>
      </trkpt>
      <trkpt lat="42.89367" lon="0.07982">
        <ele>1536</ele>
        <time>2021-03-20T09:49:43.532Z</time>
      </trkpt>
      <trkpt lat="42.89363" lon="0.0798">
        <ele>1536</ele>
        <time>2021-03-20T09:49:48.529Z</time>
      </trkpt>
      <trkpt lat="42.8936" lon="0.07983">
        <ele>1536</ele>
        <time>2021-03-20T09:49:53.532Z</time>
      </trkpt>
      <trkpt lat="42.89358" lon="0.07987">
        <ele>1533</ele>
        <time>2021-03-20T09:49:58.529Z</time>
      </trkpt>
      <trkpt lat="42.89357" lon="0.07992">
        <ele>1533</ele>
        <time>2021-03-20T09:50:03.529Z</time>
      </trkpt>
      <trkpt lat="42.89355" lon="0.07995">
        <ele>1533</ele>
        <time>2021-03-20T09:50:08.564Z</time>
      </trkpt>
      <trkpt lat="42.89352" lon="0.07999">
        <ele>1533</ele>
        <time>2021-03-20T09:50:13.533Z</time>
      </trkpt>
      <trkpt lat="42.89349" lon="0.08003">
        <ele>1533</ele>
        <time>2021-03-20T09:50:18.537Z</time>
      </trkpt>
      <trkpt lat="42.89348" lon="0.08007">
        <ele>1533</ele>
        <time>2021-03-20T09:50:23.532Z</time>
      </trkpt>
      <trkpt lat="42.89347" lon="0.0801">
        <ele>1544</ele>
        <time>2021-03-20T09:50:33.533Z</time>
      </trkpt>
      <trkpt lat="42.89345" lon="0.0801">
        <ele>1544</ele>
        <time>2021-03-20T09:50:38.535Z</time>
      </trkpt>
      <trkpt lat="42.89343" lon="0.0801">
        <ele>1544</ele>
        <time>2021-03-20T09:50:42.531Z</time>
      </trkpt>
      <trkpt lat="42.8934" lon="0.0801">
        <ele>1544</ele>
        <time>2021-03-20T09:50:47.532Z</time>
      </trkpt>
      <trkpt lat="42.89337" lon="0.08013">
        <ele>1544</ele>
        <time>2021-03-20T09:50:52.529Z</time>
      </trkpt>
      <trkpt lat="42.89333" lon="0.08014">
        <ele>1541</ele>
        <time>2021-03-20T09:50:57.536Z</time>
      </trkpt>
      <trkpt lat="42.89332" lon="0.08018">
        <ele>1541</ele>
        <time>2021-03-20T09:51:02.532Z</time>
      </trkpt>
      <trkpt lat="42.8933" lon="0.0802">
        <ele>1541</ele>
        <time>2021-03-20T09:51:07.532Z</time>
      </trkpt>
      <trkpt lat="42.89327" lon="0.0802">
        <ele>1541</ele>
        <time>2021-03-20T09:51:12.537Z</time>
      </trkpt>
      <trkpt lat="42.89323" lon="0.08022">
        <ele>1541</ele>
        <time>2021-03-20T09:51:17.533Z</time>
      </trkpt>
      <trkpt lat="42.8932" lon="0.08025">
        <ele>1541</ele>
        <time>2021-03-20T09:51:22.536Z</time>
      </trkpt>
      <trkpt lat="42.89317" lon="0.08027">
        <ele>1551</ele>
        <time>2021-03-20T09:51:27.531Z</time>
      </trkpt>
      <trkpt lat="42.89316" lon="0.08026">
        <ele>1551</ele>
        <time>2021-03-20T09:51:32.531Z</time>
      </trkpt>
      <trkpt lat="42.89314" lon="0.08028">
        <ele>1551</ele>
        <time>2021-03-20T09:51:37.530Z</time>
      </trkpt>
      <trkpt lat="42.89311" lon="0.0803">
        <ele>1551</ele>
        <time>2021-03-20T09:51:42.534Z</time>
      </trkpt>
      <trkpt lat="42.89306" lon="0.08033">
        <ele>1551</ele>
        <time>2021-03-20T09:51:52.565Z</time>
      </trkpt>
      <trkpt lat="42.89305" lon="0.08034">
        <ele>1551</ele>
        <time>2021-03-20T09:51:57.529Z</time>
      </trkpt>
      <trkpt lat="42.89303" lon="0.08035">
        <ele>1551</ele>
        <time>2021-03-20T09:52:02.531Z</time>
      </trkpt>
      <trkpt lat="42.89301" lon="0.08035">
        <ele>1551</ele>
        <time>2021-03-20T09:52:07.531Z</time>
      </trkpt>
      <trkpt lat="42.89297" lon="0.08032">
        <ele>1551</ele>
        <time>2021-03-20T09:52:12.530Z</time>
      </trkpt>
      <trkpt lat="42.89293" lon="0.0803">
        <ele>1551</ele>
        <time>2021-03-20T09:52:52.528Z</time>
      </trkpt>
      <trkpt lat="42.89293" lon="0.08032">
        <ele>1551</ele>
        <time>2021-03-20T09:52:57.532Z</time>
      </trkpt>
      <trkpt lat="42.89291" lon="0.08033">
        <ele>1560</ele>
        <time>2021-03-20T09:53:02.530Z</time>
      </trkpt>
      <trkpt lat="42.89287" lon="0.08034">
        <ele>1560</ele>
        <time>2021-03-20T09:53:07.557Z</time>
      </trkpt>
      <trkpt lat="42.89286" lon="0.08036">
        <ele>1560</ele>
        <time>2021-03-20T09:53:12.526Z</time>
      </trkpt>
      <trkpt lat="42.89286" lon="0.08036">
        <ele>1560</ele>
        <time>2021-03-20T09:53:17.528Z</time>
      </trkpt>
      <trkpt lat="42.89284" lon="0.08037">
        <ele>1560</ele>
        <time>2021-03-20T09:53:22.538Z</time>
      </trkpt>
      <trkpt lat="42.89282" lon="0.08039">
        <ele>1560</ele>
        <time>2021-03-20T09:53:27.528Z</time>
      </trkpt>
      <trkpt lat="42.89279" lon="0.08038">
        <ele>1560</ele>
        <time>2021-03-20T09:53:32.532Z</time>
      </trkpt>
      <trkpt lat="42.89276" lon="0.08038">
        <ele>1560</ele>
        <time>2021-03-20T09:53:37.829Z</time>
      </trkpt>
      <trkpt lat="42.89272" lon="0.08041">
        <ele>1560</ele>
        <time>2021-03-20T09:54:01.529Z</time>
      </trkpt>
      <trkpt lat="42.8927" lon="0.08039">
        <ele>1560</ele>
        <time>2021-03-20T09:54:05.561Z</time>
      </trkpt>
      <trkpt lat="42.89268" lon="0.08032">
        <ele>1560</ele>
        <time>2021-03-20T09:54:10.530Z</time>
      </trkpt>
      <trkpt lat="42.89266" lon="0.08028">
        <ele>1560</ele>
        <time>2021-03-20T09:54:14.748Z</time>
      </trkpt>
      <trkpt lat="42.89266" lon="0.08024">
        <ele>1560</ele>
        <time>2021-03-20T09:54:19.528Z</time>
      </trkpt>
      <trkpt lat="42.89265" lon="0.08021">
        <ele>1560</ele>
        <time>2021-03-20T09:54:42.555Z</time>
      </trkpt>
      <trkpt lat="42.89265" lon="0.0802">
        <ele>1560</ele>
        <time>2021-03-20T09:54:47.527Z</time>
      </trkpt>
      <trkpt lat="42.89264" lon="0.08015">
        <ele>1560</ele>
        <time>2021-03-20T09:54:52.531Z</time>
      </trkpt>
      <trkpt lat="42.89265" lon="0.08013">
        <ele>1565</ele>
        <time>2021-03-20T09:54:56.860Z</time>
      </trkpt>
      <trkpt lat="42.89264" lon="0.08009">
        <ele>1565</ele>
        <time>2021-03-20T09:55:01.528Z</time>
      </trkpt>
      <trkpt lat="42.89261" lon="0.08017">
        <ele>1569</ele>
        <time>2021-03-20T09:55:21.529Z</time>
      </trkpt>
      <trkpt lat="42.89261" lon="0.08017">
        <ele>1569</ele>
        <time>2021-03-20T09:55:25.553Z</time>
      </trkpt>
      <trkpt lat="42.89261" lon="0.08017">
        <ele>1569</ele>
        <time>2021-03-20T09:55:30.526Z</time>
      </trkpt>
      <trkpt lat="42.8926" lon="0.08019">
        <ele>1569</ele>
        <time>2021-03-20T09:55:34.713Z</time>
      </trkpt>
      <trkpt lat="42.89257" lon="0.08022">
        <ele>1569</ele>
        <time>2021-03-20T09:55:39.533Z</time>
      </trkpt>
      <trkpt lat="42.89254" lon="0.08026">
        <ele>1569</ele>
        <time>2021-03-20T09:55:44.529Z</time>
      </trkpt>
      <trkpt lat="42.89253" lon="0.08029">
        <ele>1569</ele>
        <time>2021-03-20T09:55:48.578Z</time>
      </trkpt>
      <trkpt lat="42.89253" lon="0.08031">
        <ele>1569</ele>
        <time>2021-03-20T09:55:53.688Z</time>
      </trkpt>
      <trkpt lat="42.8925" lon="0.08035">
        <ele>1569</ele>
        <time>2021-03-20T09:55:58.529Z</time>
      </trkpt>
      <trkpt lat="42.89248" lon="0.0804">
        <ele>1569</ele>
        <time>2021-03-20T09:56:03.527Z</time>
      </trkpt>
      <trkpt lat="42.89246" lon="0.08042">
        <ele>1563</ele>
        <time>2021-03-20T09:56:07.616Z</time>
      </trkpt>
      <trkpt lat="42.89243" lon="0.08043">
        <ele>1563</ele>
        <time>2021-03-20T09:56:12.529Z</time>
      </trkpt>
      <trkpt lat="42.89243" lon="0.08046">
        <ele>1563</ele>
        <time>2021-03-20T09:56:16.815Z</time>
      </trkpt>
      <trkpt lat="42.89241" lon="0.08051">
        <ele>1563</ele>
        <time>2021-03-20T09:56:21.531Z</time>
      </trkpt>
      <trkpt lat="42.89239" lon="0.08055">
        <ele>1563</ele>
        <time>2021-03-20T09:56:26.529Z</time>
      </trkpt>
      <trkpt lat="42.89237" lon="0.08057">
        <ele>1563</ele>
        <time>2021-03-20T09:56:31.526Z</time>
      </trkpt>
      <trkpt lat="42.89235" lon="0.08054">
        <ele>1574</ele>
        <time>2021-03-20T09:56:36.528Z</time>
      </trkpt>
      <trkpt lat="42.89236" lon="0.08048">
        <ele>1574</ele>
        <time>2021-03-20T09:56:41.534Z</time>
      </trkpt>
      <trkpt lat="42.89238" lon="0.08045">
        <ele>1563</ele>
        <time>2021-03-20T09:56:45.814Z</time>
      </trkpt>
      <trkpt lat="42.89237" lon="0.0804">
        <ele>1569</ele>
        <time>2021-03-20T09:56:50.526Z</time>
      </trkpt>
      <trkpt lat="42.89236" lon="0.08037">
        <ele>1580</ele>
        <time>2021-03-20T09:56:55.532Z</time>
      </trkpt>
      <trkpt lat="42.89235" lon="0.08032">
        <ele>1580</ele>
        <time>2021-03-20T09:57:00.529Z</time>
      </trkpt>
      <trkpt lat="42.89234" lon="0.08027">
        <ele>1580</ele>
        <time>2021-03-20T09:57:05.529Z</time>
      </trkpt>
      <trkpt lat="42.89235" lon="0.08025">
        <ele>1580</ele>
        <time>2021-03-20T09:57:10.529Z</time>
      </trkpt>
      <trkpt lat="42.89233" lon="0.08021">
        <ele>1580</ele>
        <time>2021-03-20T09:57:15.533Z</time>
      </trkpt>
      <trkpt lat="42.89232" lon="0.08016">
        <ele>1580</ele>
        <time>2021-03-20T09:57:25.529Z</time>
      </trkpt>
      <trkpt lat="42.89232" lon="0.08012">
        <ele>1587</ele>
        <time>2021-03-20T09:57:30.530Z</time>
      </trkpt>
      <trkpt lat="42.89231" lon="0.0801">
        <ele>1587</ele>
        <time>2021-03-20T09:57:35.531Z</time>
      </trkpt>
      <trkpt lat="42.8923" lon="0.08008">
        <ele>1587</ele>
        <time>2021-03-20T09:57:39.829Z</time>
      </trkpt>
      <trkpt lat="42.8923" lon="0.08005">
        <ele>1587</ele>
        <time>2021-03-20T09:57:44.529Z</time>
      </trkpt>
      <trkpt lat="42.89229" lon="0.08005">
        <ele>1587</ele>
        <time>2021-03-20T09:58:49.527Z</time>
      </trkpt>
      <trkpt lat="42.89228" lon="0.08006">
        <ele>1587</ele>
        <time>2021-03-20T09:58:53.559Z</time>
      </trkpt>
      <trkpt lat="42.89225" lon="0.08009">
        <ele>1587</ele>
        <time>2021-03-20T09:58:58.529Z</time>
      </trkpt>
      <trkpt lat="42.89221" lon="0.08012">
        <ele>1587</ele>
        <time>2021-03-20T09:59:03.531Z</time>
      </trkpt>
      <trkpt lat="42.89219" lon="0.08015">
        <ele>1580</ele>
        <time>2021-03-20T09:59:08.528Z</time>
      </trkpt>
      <trkpt lat="42.89219" lon="0.08014">
        <ele>1580</ele>
        <time>2021-03-20T10:00:08.528Z</time>
      </trkpt>
      <trkpt lat="42.89219" lon="0.0801">
        <ele>1587</ele>
        <time>2021-03-20T10:00:13.563Z</time>
      </trkpt>
      <trkpt lat="42.89219" lon="0.08008">
        <ele>1587</ele>
        <time>2021-03-20T10:00:18.535Z</time>
      </trkpt>
      <trkpt lat="42.8922" lon="0.08002">
        <ele>1587</ele>
        <time>2021-03-20T10:00:23.529Z</time>
      </trkpt>
      <trkpt lat="42.8922" lon="0.07996">
        <ele>1587</ele>
        <time>2021-03-20T10:00:28.530Z</time>
      </trkpt>
      <trkpt lat="42.8922" lon="0.07997">
        <ele>1587</ele>
        <time>2021-03-20T10:00:33.529Z</time>
      </trkpt>
      <trkpt lat="42.89219" lon="0.07994">
        <ele>1587</ele>
        <time>2021-03-20T10:00:37.561Z</time>
      </trkpt>
      <trkpt lat="42.89215" lon="0.08">
        <ele>1587</ele>
        <time>2021-03-20T10:00:42.531Z</time>
      </trkpt>
      <trkpt lat="42.8921" lon="0.08003">
        <ele>1587</ele>
        <time>2021-03-20T10:00:47.536Z</time>
      </trkpt>
      <trkpt lat="42.89207" lon="0.08005">
        <ele>1596</ele>
        <time>2021-03-20T10:00:52.530Z</time>
      </trkpt>
      <trkpt lat="42.89204" lon="0.08002">
        <ele>1596</ele>
        <time>2021-03-20T10:00:57.529Z</time>
      </trkpt>
      <trkpt lat="42.89203" lon="0.07997">
        <ele>1596</ele>
        <time>2021-03-20T10:01:02.536Z</time>
      </trkpt>
      <trkpt lat="42.89204" lon="0.07993">
        <ele>1596</ele>
        <time>2021-03-20T10:01:07.525Z</time>
      </trkpt>
      <trkpt lat="42.89204" lon="0.07984">
        <ele>1601</ele>
        <time>2021-03-20T10:01:21.522Z</time>
      </trkpt>
      <trkpt lat="42.89204" lon="0.07982">
        <ele>1601</ele>
        <time>2021-03-20T10:01:26.680Z</time>
      </trkpt>
      <trkpt lat="42.89204" lon="0.07981">
        <ele>1601</ele>
        <time>2021-03-20T10:01:31.529Z</time>
      </trkpt>
      <trkpt lat="42.89204" lon="0.0798">
        <ele>1601</ele>
        <time>2021-03-20T10:01:36.529Z</time>
      </trkpt>
      <trkpt lat="42.89204" lon="0.07976">
        <ele>1601</ele>
        <time>2021-03-20T10:01:40.772Z</time>
      </trkpt>
      <trkpt lat="42.89201" lon="0.07963">
        <ele>1601</ele>
        <time>2021-03-20T10:02:22.530Z</time>
      </trkpt>
      <trkpt lat="42.89201" lon="0.07963">
        <ele>1601</ele>
        <time>2021-03-20T10:02:27.532Z</time>
      </trkpt>
      <trkpt lat="42.89201" lon="0.07963">
        <ele>1601</ele>
        <time>2021-03-20T10:02:32.802Z</time>
      </trkpt>
      <trkpt lat="42.89199" lon="0.07961">
        <ele>1601</ele>
        <time>2021-03-20T10:02:37.532Z</time>
      </trkpt>
      <trkpt lat="42.89197" lon="0.0796">
        <ele>1601</ele>
        <time>2021-03-20T10:02:42.532Z</time>
      </trkpt>
      <trkpt lat="42.89195" lon="0.07965">
        <ele>1601</ele>
        <time>2021-03-20T10:02:57.526Z</time>
      </trkpt>
      <trkpt lat="42.89194" lon="0.07965">
        <ele>1601</ele>
        <time>2021-03-20T10:03:02.536Z</time>
      </trkpt>
      <trkpt lat="42.89192" lon="0.07967">
        <ele>1601</ele>
        <time>2021-03-20T10:03:07.694Z</time>
      </trkpt>
      <trkpt lat="42.89193" lon="0.07972">
        <ele>1601</ele>
        <time>2021-03-20T10:03:12.529Z</time>
      </trkpt>
      <trkpt lat="42.89192" lon="0.07974">
        <ele>1601</ele>
        <time>2021-03-20T10:03:17.559Z</time>
      </trkpt>
      <trkpt lat="42.89191" lon="0.07974">
        <ele>1601</ele>
        <time>2021-03-20T10:03:22.531Z</time>
      </trkpt>
      <trkpt lat="42.8919" lon="0.07976">
        <ele>1601</ele>
        <time>2021-03-20T10:03:26.817Z</time>
      </trkpt>
      <trkpt lat="42.89187" lon="0.07976">
        <ele>1601</ele>
        <time>2021-03-20T10:03:31.533Z</time>
      </trkpt>
      <trkpt lat="42.89184" lon="0.0798">
        <ele>1601</ele>
        <time>2021-03-20T10:03:36.532Z</time>
      </trkpt>
      <trkpt lat="42.89181" lon="0.07983">
        <ele>1601</ele>
        <time>2021-03-20T10:03:41.530Z</time>
      </trkpt>
      <trkpt lat="42.89179" lon="0.07983">
        <ele>1614</ele>
        <time>2021-03-20T10:04:05.558Z</time>
      </trkpt>
      <trkpt lat="42.89179" lon="0.07978">
        <ele>1614</ele>
        <time>2021-03-20T10:04:10.532Z</time>
      </trkpt>
      <trkpt lat="42.89179" lon="0.07977">
        <ele>1614</ele>
        <time>2021-03-20T10:04:15.531Z</time>
      </trkpt>
      <trkpt lat="42.89179" lon="0.07975">
        <ele>1614</ele>
        <time>2021-03-20T10:04:19.828Z</time>
      </trkpt>
      <trkpt lat="42.89178" lon="0.0797">
        <ele>1614</ele>
        <time>2021-03-20T10:04:24.527Z</time>
      </trkpt>
      <trkpt lat="42.89177" lon="0.07965">
        <ele>1614</ele>
        <time>2021-03-20T10:04:28.805Z</time>
      </trkpt>
      <trkpt lat="42.89176" lon="0.07961">
        <ele>1614</ele>
        <time>2021-03-20T10:04:33.528Z</time>
      </trkpt>
      <trkpt lat="42.89176" lon="0.07957">
        <ele>1615</ele>
        <time>2021-03-20T10:04:38.530Z</time>
      </trkpt>
      <trkpt lat="42.89174" lon="0.07953">
        <ele>1615</ele>
        <time>2021-03-20T10:04:43.531Z</time>
      </trkpt>
      <trkpt lat="42.89173" lon="0.07953">
        <ele>1615</ele>
        <time>2021-03-20T10:04:48.527Z</time>
      </trkpt>
      <trkpt lat="42.89172" lon="0.07958">
        <ele>1615</ele>
        <time>2021-03-20T10:04:53.561Z</time>
      </trkpt>
      <trkpt lat="42.89171" lon="0.0796">
        <ele>1614</ele>
        <time>2021-03-20T10:04:58.526Z</time>
      </trkpt>
      <trkpt lat="42.89169" lon="0.07964">
        <ele>1614</ele>
        <time>2021-03-20T10:05:03.530Z</time>
      </trkpt>
      <trkpt lat="42.89164" lon="0.07971">
        <ele>1614</ele>
        <time>2021-03-20T10:05:37.528Z</time>
      </trkpt>
      <trkpt lat="42.89163" lon="0.07966">
        <ele>1614</ele>
        <time>2021-03-20T10:05:42.528Z</time>
      </trkpt>
      <trkpt lat="42.89163" lon="0.07963">
        <ele>1614</ele>
        <time>2021-03-20T10:05:46.528Z</time>
      </trkpt>
      <trkpt lat="42.89162" lon="0.0796">
        <ele>1614</ele>
        <time>2021-03-20T10:05:51.533Z</time>
      </trkpt>
      <trkpt lat="42.89162" lon="0.07955">
        <ele>1615</ele>
        <time>2021-03-20T10:05:56.529Z</time>
      </trkpt>
      <trkpt lat="42.8916" lon="0.07952">
        <ele>1615</ele>
        <time>2021-03-20T10:06:11.529Z</time>
      </trkpt>
      <trkpt lat="42.89159" lon="0.07955">
        <ele>1615</ele>
        <time>2021-03-20T10:06:15.554Z</time>
      </trkpt>
      <trkpt lat="42.89158" lon="0.07957">
        <ele>1615</ele>
        <time>2021-03-20T10:06:20.529Z</time>
      </trkpt>
      <trkpt lat="42.89156" lon="0.07961">
        <ele>1614</ele>
        <time>2021-03-20T10:06:25.528Z</time>
      </trkpt>
      <trkpt lat="42.89154" lon="0.07964">
        <ele>1614</ele>
        <time>2021-03-20T10:06:30.536Z</time>
      </trkpt>
      <trkpt lat="42.89147" lon="0.07969">
        <ele>1626</ele>
        <time>2021-03-20T10:07:19.527Z</time>
      </trkpt>
      <trkpt lat="42.89146" lon="0.07965">
        <ele>1626</ele>
        <time>2021-03-20T10:07:24.530Z</time>
      </trkpt>
      <trkpt lat="42.89144" lon="0.07959">
        <ele>1626</ele>
        <time>2021-03-20T10:07:29.526Z</time>
      </trkpt>
      <trkpt lat="42.89144" lon="0.07957">
        <ele>1631</ele>
        <time>2021-03-20T10:07:34.685Z</time>
      </trkpt>
      <trkpt lat="42.89143" lon="0.07954">
        <ele>1631</ele>
        <time>2021-03-20T10:07:39.533Z</time>
      </trkpt>
      <trkpt lat="42.89138" lon="0.07952">
        <ele>1631</ele>
        <time>2021-03-20T10:08:03.529Z</time>
      </trkpt>
      <trkpt lat="42.8914" lon="0.07956">
        <ele>1631</ele>
        <time>2021-03-20T10:08:08.756Z</time>
      </trkpt>
      <trkpt lat="42.89138" lon="0.07963">
        <ele>1626</ele>
        <time>2021-03-20T10:08:13.528Z</time>
      </trkpt>
      <trkpt lat="42.89136" lon="0.07969">
        <ele>1626</ele>
        <time>2021-03-20T10:08:18.715Z</time>
      </trkpt>
      <trkpt lat="42.89133" lon="0.07973">
        <ele>1626</ele>
        <time>2021-03-20T10:08:23.528Z</time>
      </trkpt>
      <trkpt lat="42.8913" lon="0.07974">
        <ele>1626</ele>
        <time>2021-03-20T10:08:28.525Z</time>
      </trkpt>
      <trkpt lat="42.89126" lon="0.07971">
        <ele>1626</ele>
        <time>2021-03-20T10:08:33.526Z</time>
      </trkpt>
      <trkpt lat="42.89126" lon="0.07965">
        <ele>1626</ele>
        <time>2021-03-20T10:08:37.815Z</time>
      </trkpt>
      <trkpt lat="42.89126" lon="0.07957">
        <ele>1631</ele>
        <time>2021-03-20T10:08:42.528Z</time>
      </trkpt>
      <trkpt lat="42.89125" lon="0.07955">
        <ele>1646</ele>
        <time>2021-03-20T10:08:47.532Z</time>
      </trkpt>
      <trkpt lat="42.89125" lon="0.07957">
        <ele>1646</ele>
        <time>2021-03-20T10:08:52.764Z</time>
      </trkpt>
      <trkpt lat="42.89124" lon="0.07959">
        <ele>1638</ele>
        <time>2021-03-20T10:08:57.529Z</time>
      </trkpt>
      <trkpt lat="42.89123" lon="0.07964">
        <ele>1638</ele>
        <time>2021-03-20T10:09:02.768Z</time>
      </trkpt>
      <trkpt lat="42.89123" lon="0.07967">
        <ele>1638</ele>
        <time>2021-03-20T10:09:07.531Z</time>
      </trkpt>
      <trkpt lat="42.89122" lon="0.0797">
        <ele>1638</ele>
        <time>2021-03-20T10:09:12.531Z</time>
      </trkpt>
      <trkpt lat="42.89119" lon="0.07972">
        <ele>1638</ele>
        <time>2021-03-20T10:09:17.535Z</time>
      </trkpt>
      <trkpt lat="42.89117" lon="0.07975">
        <ele>1638</ele>
        <time>2021-03-20T10:09:22.526Z</time>
      </trkpt>
      <trkpt lat="42.89115" lon="0.07981">
        <ele>1638</ele>
        <time>2021-03-20T10:09:27.526Z</time>
      </trkpt>
      <trkpt lat="42.89113" lon="0.07985">
        <ele>1638</ele>
        <time>2021-03-20T10:09:32.530Z</time>
      </trkpt>
      <trkpt lat="42.89111" lon="0.07987">
        <ele>1634</ele>
        <time>2021-03-20T10:09:37.528Z</time>
      </trkpt>
      <trkpt lat="42.8911" lon="0.07984">
        <ele>1638</ele>
        <time>2021-03-20T10:09:42.525Z</time>
      </trkpt>
      <trkpt lat="42.89109" lon="0.07979">
        <ele>1638</ele>
        <time>2021-03-20T10:09:47.532Z</time>
      </trkpt>
      <trkpt lat="42.89108" lon="0.07974">
        <ele>1638</ele>
        <time>2021-03-20T10:09:52.553Z</time>
      </trkpt>
      <trkpt lat="42.89103" lon="0.0797">
        <ele>1638</ele>
        <time>2021-03-20T10:10:12.530Z</time>
      </trkpt>
      <trkpt lat="42.89102" lon="0.07972">
        <ele>1638</ele>
        <time>2021-03-20T10:10:17.536Z</time>
      </trkpt>
      <trkpt lat="42.89101" lon="0.07975">
        <ele>1638</ele>
        <time>2021-03-20T10:10:22.530Z</time>
      </trkpt>
      <trkpt lat="42.891" lon="0.07976">
        <ele>1638</ele>
        <time>2021-03-20T10:10:27.529Z</time>
      </trkpt>
      <trkpt lat="42.89098" lon="0.07979">
        <ele>1638</ele>
        <time>2021-03-20T10:10:32.533Z</time>
      </trkpt>
      <trkpt lat="42.89097" lon="0.0798">
        <ele>1658</ele>
        <time>2021-03-20T10:11:01.527Z</time>
      </trkpt>
      <trkpt lat="42.89096" lon="0.07981">
        <ele>1658</ele>
        <time>2021-03-20T10:11:06.533Z</time>
      </trkpt>
      <trkpt lat="42.89094" lon="0.07983">
        <ele>1658</ele>
        <time>2021-03-20T10:11:11.530Z</time>
      </trkpt>
      <trkpt lat="42.89093" lon="0.07988">
        <ele>1645</ele>
        <time>2021-03-20T10:11:16.533Z</time>
      </trkpt>
      <trkpt lat="42.89091" lon="0.07989">
        <ele>1645</ele>
        <time>2021-03-20T10:11:21.528Z</time>
      </trkpt>
      <trkpt lat="42.89087" lon="0.07992">
        <ele>1645</ele>
        <time>2021-03-20T10:12:59.529Z</time>
      </trkpt>
      <trkpt lat="42.89084" lon="0.07992">
        <ele>1645</ele>
        <time>2021-03-20T10:13:04.530Z</time>
      </trkpt>
      <trkpt lat="42.89082" lon="0.07992">
        <ele>1645</ele>
        <time>2021-03-20T10:13:09.529Z</time>
      </trkpt>
      <trkpt lat="42.89081" lon="0.07992">
        <ele>1645</ele>
        <time>2021-03-20T10:13:14.528Z</time>
      </trkpt>
      <trkpt lat="42.89079" lon="0.07991">
        <ele>1645</ele>
        <time>2021-03-20T10:13:19.526Z</time>
      </trkpt>
      <trkpt lat="42.89079" lon="0.07992">
        <ele>1645</ele>
        <time>2021-03-20T10:13:29.530Z</time>
      </trkpt>
      <trkpt lat="42.89077" lon="0.0799">
        <ele>1645</ele>
        <time>2021-03-20T10:13:34.530Z</time>
      </trkpt>
      <trkpt lat="42.89074" lon="0.0799">
        <ele>1645</ele>
        <time>2021-03-20T10:13:39.525Z</time>
      </trkpt>
      <trkpt lat="42.89071" lon="0.07989">
        <ele>1645</ele>
        <time>2021-03-20T10:13:44.529Z</time>
      </trkpt>
      <trkpt lat="42.89069" lon="0.0799">
        <ele>1660</ele>
        <time>2021-03-20T10:13:49.527Z</time>
      </trkpt>
      <trkpt lat="42.89067" lon="0.07991">
        <ele>1660</ele>
        <time>2021-03-20T10:13:53.831Z</time>
      </trkpt>
      <trkpt lat="42.89064" lon="0.07991">
        <ele>1660</ele>
        <time>2021-03-20T10:13:58.526Z</time>
      </trkpt>
      <trkpt lat="42.89062" lon="0.07991">
        <ele>1660</ele>
        <time>2021-03-20T10:14:02.856Z</time>
      </trkpt>
      <trkpt lat="42.89059" lon="0.07993">
        <ele>1660</ele>
        <time>2021-03-20T10:14:07.531Z</time>
      </trkpt>
      <trkpt lat="42.89054" lon="0.07993">
        <ele>1660</ele>
        <time>2021-03-20T10:14:12.553Z</time>
      </trkpt>
      <trkpt lat="42.89051" lon="0.07991">
        <ele>1660</ele>
        <time>2021-03-20T10:14:17.528Z</time>
      </trkpt>
      <trkpt lat="42.89049" lon="0.0799">
        <ele>1660</ele>
        <time>2021-03-20T10:14:22.528Z</time>
      </trkpt>
      <trkpt lat="42.8905" lon="0.07986">
        <ele>1674</ele>
        <time>2021-03-20T10:14:26.809Z</time>
      </trkpt>
      <trkpt lat="42.89049" lon="0.07981">
        <ele>1674</ele>
        <time>2021-03-20T10:14:31.527Z</time>
      </trkpt>
      <trkpt lat="42.89049" lon="0.07978">
        <ele>1674</ele>
        <time>2021-03-20T10:14:35.532Z</time>
      </trkpt>
      <trkpt lat="42.89049" lon="0.07975">
        <ele>1674</ele>
        <time>2021-03-20T10:14:40.531Z</time>
      </trkpt>
      <trkpt lat="42.89049" lon="0.07975">
        <ele>1674</ele>
        <time>2021-03-20T10:14:45.526Z</time>
      </trkpt>
      <trkpt lat="42.89051" lon="0.07971">
        <ele>1674</ele>
        <time>2021-03-20T10:14:50.529Z</time>
      </trkpt>
      <trkpt lat="42.89052" lon="0.07967">
        <ele>1674</ele>
        <time>2021-03-20T10:14:55.527Z</time>
      </trkpt>
      <trkpt lat="42.89053" lon="0.07964">
        <ele>1674</ele>
        <time>2021-03-20T10:15:00.531Z</time>
      </trkpt>
      <trkpt lat="42.89054" lon="0.07964">
        <ele>1674</ele>
        <time>2021-03-20T10:17:17.529Z</time>
      </trkpt>
      <trkpt lat="42.89054" lon="0.07965">
        <ele>1674</ele>
        <time>2021-03-20T10:17:22.532Z</time>
      </trkpt>
      <trkpt lat="42.89053" lon="0.07965">
        <ele>1674</ele>
        <time>2021-03-20T10:17:27.531Z</time>
      </trkpt>
      <trkpt lat="42.8905" lon="0.07967">
        <ele>1674</ele>
        <time>2021-03-20T10:17:32.528Z</time>
      </trkpt>
      <trkpt lat="42.89047" lon="0.0797">
        <ele>1674</ele>
        <time>2021-03-20T10:17:36.527Z</time>
      </trkpt>
      <trkpt lat="42.89044" lon="0.07973">
        <ele>1674</ele>
        <time>2021-03-20T10:17:41.531Z</time>
      </trkpt>
      <trkpt lat="42.89041" lon="0.07978">
        <ele>1676</ele>
        <time>2021-03-20T10:17:46.529Z</time>
      </trkpt>
      <trkpt lat="42.89038" lon="0.0798">
        <ele>1676</ele>
        <time>2021-03-20T10:17:51.527Z</time>
      </trkpt>
      <trkpt lat="42.89036" lon="0.07982">
        <ele>1676</ele>
        <time>2021-03-20T10:17:56.526Z</time>
      </trkpt>
      <trkpt lat="42.89033" lon="0.07984">
        <ele>1676</ele>
        <time>2021-03-20T10:18:00.817Z</time>
      </trkpt>
      <trkpt lat="42.8903" lon="0.07985">
        <ele>1676</ele>
        <time>2021-03-20T10:18:05.531Z</time>
      </trkpt>
      <trkpt lat="42.89028" lon="0.07988">
        <ele>1664</ele>
        <time>2021-03-20T10:18:10.530Z</time>
      </trkpt>
      <trkpt lat="42.89026" lon="0.07991">
        <ele>1664</ele>
        <time>2021-03-20T10:18:15.715Z</time>
      </trkpt>
      <trkpt lat="42.89022" lon="0.07993">
        <ele>1664</ele>
        <time>2021-03-20T10:18:20.528Z</time>
      </trkpt>
      <trkpt lat="42.89019" lon="0.07995">
        <ele>1664</ele>
        <time>2021-03-20T10:18:25.530Z</time>
      </trkpt>
      <trkpt lat="42.89016" lon="0.07998">
        <ele>1664</ele>
        <time>2021-03-20T10:18:30.536Z</time>
      </trkpt>
      <trkpt lat="42.89014" lon="0.08">
        <ele>1672</ele>
        <time>2021-03-20T10:18:35.553Z</time>
      </trkpt>
      <trkpt lat="42.89012" lon="0.08003">
        <ele>1672</ele>
        <time>2021-03-20T10:18:40.526Z</time>
      </trkpt>
      <trkpt lat="42.89011" lon="0.08004">
        <ele>1672</ele>
        <time>2021-03-20T10:18:45.528Z</time>
      </trkpt>
      <trkpt lat="42.89008" lon="0.08007">
        <ele>1672</ele>
        <time>2021-03-20T10:18:50.529Z</time>
      </trkpt>
      <trkpt lat="42.89004" lon="0.0801">
        <ele>1672</ele>
        <time>2021-03-20T10:18:55.528Z</time>
      </trkpt>
      <trkpt lat="42.89003" lon="0.08012">
        <ele>1672</ele>
        <time>2021-03-20T10:19:05.527Z</time>
      </trkpt>
      <trkpt lat="42.89002" lon="0.08012">
        <ele>1672</ele>
        <time>2021-03-20T10:19:10.562Z</time>
      </trkpt>
      <trkpt lat="42.88998" lon="0.08012">
        <ele>1672</ele>
        <time>2021-03-20T10:19:15.528Z</time>
      </trkpt>
      <trkpt lat="42.88996" lon="0.08015">
        <ele>1664</ele>
        <time>2021-03-20T10:19:20.530Z</time>
      </trkpt>
      <trkpt lat="42.88993" lon="0.08015">
        <ele>1664</ele>
        <time>2021-03-20T10:19:25.534Z</time>
      </trkpt>
      <trkpt lat="42.88984" lon="0.08013">
        <ele>1684</ele>
        <time>2021-03-20T10:19:54.527Z</time>
      </trkpt>
      <trkpt lat="42.88983" lon="0.08015">
        <ele>1673</ele>
        <time>2021-03-20T10:19:59.534Z</time>
      </trkpt>
      <trkpt lat="42.88983" lon="0.08015">
        <ele>1673</ele>
        <time>2021-03-20T10:20:04.529Z</time>
      </trkpt>
      <trkpt lat="42.8898" lon="0.08015">
        <ele>1673</ele>
        <time>2021-03-20T10:20:09.527Z</time>
      </trkpt>
      <trkpt lat="42.88977" lon="0.08013">
        <ele>1684</ele>
        <time>2021-03-20T10:20:14.529Z</time>
      </trkpt>
      <trkpt lat="42.88973" lon="0.08011">
        <ele>1684</ele>
        <time>2021-03-20T10:20:19.527Z</time>
      </trkpt>
      <trkpt lat="42.88971" lon="0.08009">
        <ele>1684</ele>
        <time>2021-03-20T10:20:24.530Z</time>
      </trkpt>
      <trkpt lat="42.88972" lon="0.08002">
        <ele>1684</ele>
        <time>2021-03-20T10:20:29.533Z</time>
      </trkpt>
      <trkpt lat="42.88975" lon="0.07998">
        <ele>1684</ele>
        <time>2021-03-20T10:20:33.528Z</time>
      </trkpt>
      <trkpt lat="42.88976" lon="0.07997">
        <ele>1684</ele>
        <time>2021-03-20T10:20:38.530Z</time>
      </trkpt>
      <trkpt lat="42.88975" lon="0.07997">
        <ele>1684</ele>
        <time>2021-03-20T10:20:43.529Z</time>
      </trkpt>
      <trkpt lat="42.88972" lon="0.07996">
        <ele>1684</ele>
        <time>2021-03-20T10:20:48.535Z</time>
      </trkpt>
      <trkpt lat="42.8897" lon="0.07995">
        <ele>1684</ele>
        <time>2021-03-20T10:20:53.527Z</time>
      </trkpt>
      <trkpt lat="42.88967" lon="0.07997">
        <ele>1684</ele>
        <time>2021-03-20T10:20:58.535Z</time>
      </trkpt>
      <trkpt lat="42.88962" lon="0.07997">
        <ele>1684</ele>
        <time>2021-03-20T10:21:23.532Z</time>
      </trkpt>
      <trkpt lat="42.88962" lon="0.07995">
        <ele>1684</ele>
        <time>2021-03-20T10:21:28.532Z</time>
      </trkpt>
      <trkpt lat="42.88962" lon="0.0799">
        <ele>1684</ele>
        <time>2021-03-20T10:21:33.531Z</time>
      </trkpt>
      <trkpt lat="42.88964" lon="0.07989">
        <ele>1684</ele>
        <time>2021-03-20T10:21:38.529Z</time>
      </trkpt>
      <trkpt lat="42.88964" lon="0.07986">
        <ele>1690</ele>
        <time>2021-03-20T10:21:43.531Z</time>
      </trkpt>
      <trkpt lat="42.88965" lon="0.07981">
        <ele>1690</ele>
        <time>2021-03-20T10:21:48.533Z</time>
      </trkpt>
      <trkpt lat="42.88965" lon="0.07976">
        <ele>1690</ele>
        <time>2021-03-20T10:21:53.530Z</time>
      </trkpt>
      <trkpt lat="42.88963" lon="0.07973">
        <ele>1690</ele>
        <time>2021-03-20T10:21:58.528Z</time>
      </trkpt>
      <trkpt lat="42.88964" lon="0.07971">
        <ele>1690</ele>
        <time>2021-03-20T10:22:02.527Z</time>
      </trkpt>
      <trkpt lat="42.88965" lon="0.07968">
        <ele>1690</ele>
        <time>2021-03-20T10:22:07.531Z</time>
      </trkpt>
      <trkpt lat="42.88963" lon="0.07965">
        <ele>1690</ele>
        <time>2021-03-20T10:22:17.532Z</time>
      </trkpt>
      <trkpt lat="42.88962" lon="0.07964">
        <ele>1690</ele>
        <time>2021-03-20T10:22:22.530Z</time>
      </trkpt>
      <trkpt lat="42.88959" lon="0.07962">
        <ele>1690</ele>
        <time>2021-03-20T10:22:27.529Z</time>
      </trkpt>
      <trkpt lat="42.88958" lon="0.0796">
        <ele>1695</ele>
        <time>2021-03-20T10:22:32.527Z</time>
      </trkpt>
      <trkpt lat="42.88955" lon="0.07962">
        <ele>1695</ele>
        <time>2021-03-20T10:22:37.533Z</time>
      </trkpt>
      <trkpt lat="42.88959" lon="0.07958">
        <ele>1690</ele>
        <time>2021-03-20T10:24:16.522Z</time>
      </trkpt>
      <trkpt lat="42.88959" lon="0.07958">
        <ele>1690</ele>
        <time>2021-03-20T10:24:21.829Z</time>
      </trkpt>
      <trkpt lat="42.8896" lon="0.07956">
        <ele>1695</ele>
        <time>2021-03-20T10:24:26.529Z</time>
      </trkpt>
      <trkpt lat="42.88961" lon="0.07953">
        <ele>1695</ele>
        <time>2021-03-20T10:24:31.529Z</time>
      </trkpt>
      <trkpt lat="42.88962" lon="0.07949">
        <ele>1695</ele>
        <time>2021-03-20T10:24:36.525Z</time>
      </trkpt>
      <trkpt lat="42.88963" lon="0.07946">
        <ele>1695</ele>
        <time>2021-03-20T10:24:40.705Z</time>
      </trkpt>
      <trkpt lat="42.88965" lon="0.07944">
        <ele>1695</ele>
        <time>2021-03-20T10:24:45.531Z</time>
      </trkpt>
      <trkpt lat="42.88967" lon="0.0794">
        <ele>1695</ele>
        <time>2021-03-20T10:24:50.559Z</time>
      </trkpt>
      <trkpt lat="42.88969" lon="0.07937">
        <ele>1695</ele>
        <time>2021-03-20T10:24:55.537Z</time>
      </trkpt>
      <trkpt lat="42.8897" lon="0.07932">
        <ele>1695</ele>
        <time>2021-03-20T10:25:00.530Z</time>
      </trkpt>
      <trkpt lat="42.88971" lon="0.07927">
        <ele>1705</ele>
        <time>2021-03-20T10:25:05.530Z</time>
      </trkpt>
      <trkpt lat="42.88973" lon="0.07924">
        <ele>1705</ele>
        <time>2021-03-20T10:25:10.531Z</time>
      </trkpt>
      <trkpt lat="42.88975" lon="0.0792">
        <ele>1705</ele>
        <time>2021-03-20T10:25:15.531Z</time>
      </trkpt>
      <trkpt lat="42.88976" lon="0.07916">
        <ele>1705</ele>
        <time>2021-03-20T10:25:20.529Z</time>
      </trkpt>
      <trkpt lat="42.88977" lon="0.07914">
        <ele>1705</ele>
        <time>2021-03-20T10:25:24.534Z</time>
      </trkpt>
      <trkpt lat="42.88979" lon="0.07911">
        <ele>1705</ele>
        <time>2021-03-20T10:25:29.535Z</time>
      </trkpt>
      <trkpt lat="42.88981" lon="0.07908">
        <ele>1705</ele>
        <time>2021-03-20T10:25:34.532Z</time>
      </trkpt>
      <trkpt lat="42.88983" lon="0.07904">
        <ele>1705</ele>
        <time>2021-03-20T10:25:39.528Z</time>
      </trkpt>
      <trkpt lat="42.88984" lon="0.079">
        <ele>1713</ele>
        <time>2021-03-20T10:25:44.534Z</time>
      </trkpt>
      <trkpt lat="42.88985" lon="0.07899">
        <ele>1713</ele>
        <time>2021-03-20T10:25:48.528Z</time>
      </trkpt>
      <trkpt lat="42.88985" lon="0.07897">
        <ele>1713</ele>
        <time>2021-03-20T10:25:53.531Z</time>
      </trkpt>
      <trkpt lat="42.88987" lon="0.07893">
        <ele>1703</ele>
        <time>2021-03-20T10:25:58.520Z</time>
      </trkpt>
      <trkpt lat="42.88989" lon="0.07889">
        <ele>1703</ele>
        <time>2021-03-20T10:26:03.527Z</time>
      </trkpt>
      <trkpt lat="42.88992" lon="0.07882">
        <ele>1703</ele>
        <time>2021-03-20T10:26:13.526Z</time>
      </trkpt>
      <trkpt lat="42.88991" lon="0.07882">
        <ele>1703</ele>
        <time>2021-03-20T10:26:18.553Z</time>
      </trkpt>
      <trkpt lat="42.88992" lon="0.07878">
        <ele>1703</ele>
        <time>2021-03-20T10:26:23.534Z</time>
      </trkpt>
      <trkpt lat="42.88992" lon="0.07876">
        <ele>1703</ele>
        <time>2021-03-20T10:26:28.529Z</time>
      </trkpt>
      <trkpt lat="42.88991" lon="0.07871">
        <ele>1706</ele>
        <time>2021-03-20T10:26:33.534Z</time>
      </trkpt>
      <trkpt lat="42.88991" lon="0.07861">
        <ele>1706</ele>
        <time>2021-03-20T10:27:57.539Z</time>
      </trkpt>
      <trkpt lat="42.88992" lon="0.07858">
        <ele>1706</ele>
        <time>2021-03-20T10:28:02.536Z</time>
      </trkpt>
      <trkpt lat="42.88992" lon="0.07857">
        <ele>1706</ele>
        <time>2021-03-20T10:28:07.528Z</time>
      </trkpt>
      <trkpt lat="42.88992" lon="0.07856">
        <ele>1706</ele>
        <time>2021-03-20T10:28:12.532Z</time>
      </trkpt>
      <trkpt lat="42.88993" lon="0.07851">
        <ele>1706</ele>
        <time>2021-03-20T10:28:17.534Z</time>
      </trkpt>
      <trkpt lat="42.88989" lon="0.07837">
        <ele>1710</ele>
        <time>2021-03-20T10:28:51.534Z</time>
      </trkpt>
      <trkpt lat="42.88989" lon="0.07834">
        <ele>1710</ele>
        <time>2021-03-20T10:28:56.526Z</time>
      </trkpt>
      <trkpt lat="42.8899" lon="0.07832">
        <ele>1710</ele>
        <time>2021-03-20T10:29:00.554Z</time>
      </trkpt>
      <trkpt lat="42.88989" lon="0.07829">
        <ele>1710</ele>
        <time>2021-03-20T10:29:05.533Z</time>
      </trkpt>
      <trkpt lat="42.8899" lon="0.07825">
        <ele>1710</ele>
        <time>2021-03-20T10:29:10.529Z</time>
      </trkpt>
      <trkpt lat="42.88988" lon="0.07822">
        <ele>1710</ele>
        <time>2021-03-20T10:29:15.529Z</time>
      </trkpt>
      <trkpt lat="42.88987" lon="0.07819">
        <ele>1715</ele>
        <time>2021-03-20T10:29:20.529Z</time>
      </trkpt>
      <trkpt lat="42.88985" lon="0.07815">
        <ele>1726</ele>
        <time>2021-03-20T10:29:25.528Z</time>
      </trkpt>
      <trkpt lat="42.88984" lon="0.07809">
        <ele>1726</ele>
        <time>2021-03-20T10:29:30.685Z</time>
      </trkpt>
      <trkpt lat="42.88981" lon="0.07799">
        <ele>1726</ele>
        <time>2021-03-20T10:29:45.535Z</time>
      </trkpt>
      <trkpt lat="42.8898" lon="0.07798">
        <ele>1726</ele>
        <time>2021-03-20T10:29:50.537Z</time>
      </trkpt>
      <trkpt lat="42.88979" lon="0.07797">
        <ele>1726</ele>
        <time>2021-03-20T10:29:55.528Z</time>
      </trkpt>
      <trkpt lat="42.88977" lon="0.07797">
        <ele>1726</ele>
        <time>2021-03-20T10:30:00.527Z</time>
      </trkpt>
      <trkpt lat="42.88975" lon="0.07797">
        <ele>1726</ele>
        <time>2021-03-20T10:30:05.528Z</time>
      </trkpt>
      <trkpt lat="42.88971" lon="0.07797">
        <ele>1726</ele>
        <time>2021-03-20T10:31:38.532Z</time>
      </trkpt>
      <trkpt lat="42.88971" lon="0.07796">
        <ele>1726</ele>
        <time>2021-03-20T10:31:43.561Z</time>
      </trkpt>
      <trkpt lat="42.88969" lon="0.07798">
        <ele>1726</ele>
        <time>2021-03-20T10:31:48.528Z</time>
      </trkpt>
      <trkpt lat="42.88965" lon="0.07796">
        <ele>1726</ele>
        <time>2021-03-20T10:31:53.526Z</time>
      </trkpt>
      <trkpt lat="42.88963" lon="0.07795">
        <ele>1726</ele>
        <time>2021-03-20T10:31:58.533Z</time>
      </trkpt>
      <trkpt lat="42.88961" lon="0.07793">
        <ele>1726</ele>
        <time>2021-03-20T10:32:03.537Z</time>
      </trkpt>
      <trkpt lat="42.88959" lon="0.07792">
        <ele>1726</ele>
        <time>2021-03-20T10:32:08.531Z</time>
      </trkpt>
      <trkpt lat="42.88957" lon="0.07791">
        <ele>1731</ele>
        <time>2021-03-20T10:32:12.529Z</time>
      </trkpt>
      <trkpt lat="42.88954" lon="0.07789">
        <ele>1731</ele>
        <time>2021-03-20T10:32:17.773Z</time>
      </trkpt>
      <trkpt lat="42.8895" lon="0.07787">
        <ele>1731</ele>
        <time>2021-03-20T10:32:22.523Z</time>
      </trkpt>
      <trkpt lat="42.88947" lon="0.07784">
        <ele>1731</ele>
        <time>2021-03-20T10:32:27.527Z</time>
      </trkpt>
      <trkpt lat="42.88944" lon="0.0778">
        <ele>1731</ele>
        <time>2021-03-20T10:32:32.534Z</time>
      </trkpt>
      <trkpt lat="42.88941" lon="0.07778">
        <ele>1731</ele>
        <time>2021-03-20T10:32:37.534Z</time>
      </trkpt>
      <trkpt lat="42.88939" lon="0.07776">
        <ele>1731</ele>
        <time>2021-03-20T10:32:42.526Z</time>
      </trkpt>
      <trkpt lat="42.88936" lon="0.07775">
        <ele>1731</ele>
        <time>2021-03-20T10:32:47.558Z</time>
      </trkpt>
      <trkpt lat="42.88933" lon="0.07774">
        <ele>1731</ele>
        <time>2021-03-20T10:32:52.534Z</time>
      </trkpt>
      <trkpt lat="42.8893" lon="0.07774">
        <ele>1742</ele>
        <time>2021-03-20T10:32:57.532Z</time>
      </trkpt>
      <trkpt lat="42.88928" lon="0.07774">
        <ele>1742</ele>
        <time>2021-03-20T10:33:02.533Z</time>
      </trkpt>
      <trkpt lat="42.88925" lon="0.07776">
        <ele>1742</ele>
        <time>2021-03-20T10:33:07.536Z</time>
      </trkpt>
      <trkpt lat="42.88923" lon="0.07778">
        <ele>1742</ele>
        <time>2021-03-20T10:33:11.533Z</time>
      </trkpt>
      <trkpt lat="42.88921" lon="0.07782">
        <ele>1742</ele>
        <time>2021-03-20T10:33:16.531Z</time>
      </trkpt>
      <trkpt lat="42.88919" lon="0.07785">
        <ele>1742</ele>
        <time>2021-03-20T10:33:20.585Z</time>
      </trkpt>
      <trkpt lat="42.88916" lon="0.07786">
        <ele>1742</ele>
        <time>2021-03-20T10:33:25.529Z</time>
      </trkpt>
      <trkpt lat="42.88913" lon="0.07785">
        <ele>1742</ele>
        <time>2021-03-20T10:33:30.535Z</time>
      </trkpt>
      <trkpt lat="42.8891" lon="0.07785">
        <ele>1742</ele>
        <time>2021-03-20T10:33:35.552Z</time>
      </trkpt>
      <trkpt lat="42.88907" lon="0.07785">
        <ele>1742</ele>
        <time>2021-03-20T10:33:40.535Z</time>
      </trkpt>
      <trkpt lat="42.88903" lon="0.07784">
        <ele>1742</ele>
        <time>2021-03-20T10:33:45.529Z</time>
      </trkpt>
      <trkpt lat="42.889" lon="0.07784">
        <ele>1747</ele>
        <time>2021-03-20T10:33:50.529Z</time>
      </trkpt>
      <trkpt lat="42.88898" lon="0.07783">
        <ele>1747</ele>
        <time>2021-03-20T10:33:55.529Z</time>
      </trkpt>
      <trkpt lat="42.88895" lon="0.07783">
        <ele>1747</ele>
        <time>2021-03-20T10:33:59.556Z</time>
      </trkpt>
      <trkpt lat="42.88893" lon="0.07781">
        <ele>1747</ele>
        <time>2021-03-20T10:34:04.530Z</time>
      </trkpt>
      <trkpt lat="42.8889" lon="0.07779">
        <ele>1747</ele>
        <time>2021-03-20T10:34:09.534Z</time>
      </trkpt>
      <trkpt lat="42.88888" lon="0.07779">
        <ele>1747</ele>
        <time>2021-03-20T10:34:14.530Z</time>
      </trkpt>
      <trkpt lat="42.88886" lon="0.07775">
        <ele>1747</ele>
        <time>2021-03-20T10:35:55.556Z</time>
      </trkpt>
      <trkpt lat="42.88883" lon="0.07772">
        <ele>1747</ele>
        <time>2021-03-20T10:36:00.530Z</time>
      </trkpt>
      <trkpt lat="42.8888" lon="0.0777">
        <ele>1747</ele>
        <time>2021-03-20T10:36:05.530Z</time>
      </trkpt>
      <trkpt lat="42.88876" lon="0.0777">
        <ele>1747</ele>
        <time>2021-03-20T10:36:10.533Z</time>
      </trkpt>
      <trkpt lat="42.88873" lon="0.0777">
        <ele>1750</ele>
        <time>2021-03-20T10:36:15.528Z</time>
      </trkpt>
      <trkpt lat="42.88869" lon="0.07766">
        <ele>1750</ele>
        <time>2021-03-20T10:36:25.528Z</time>
      </trkpt>
      <trkpt lat="42.88868" lon="0.07762">
        <ele>1754</ele>
        <time>2021-03-20T10:36:30.530Z</time>
      </trkpt>
      <trkpt lat="42.88867" lon="0.0776">
        <ele>1754</ele>
        <time>2021-03-20T10:36:35.527Z</time>
      </trkpt>
      <trkpt lat="42.88865" lon="0.0776">
        <ele>1754</ele>
        <time>2021-03-20T10:36:40.528Z</time>
      </trkpt>
      <trkpt lat="42.88863" lon="0.0776">
        <ele>1754</ele>
        <time>2021-03-20T10:36:45.527Z</time>
      </trkpt>
      <trkpt lat="42.88861" lon="0.07759">
        <ele>1754</ele>
        <time>2021-03-20T10:36:49.616Z</time>
      </trkpt>
      <trkpt lat="42.88858" lon="0.07758">
        <ele>1754</ele>
        <time>2021-03-20T10:36:54.532Z</time>
      </trkpt>
      <trkpt lat="42.88856" lon="0.07757">
        <ele>1754</ele>
        <time>2021-03-20T10:36:59.527Z</time>
      </trkpt>
      <trkpt lat="42.88852" lon="0.07757">
        <ele>1754</ele>
        <time>2021-03-20T10:37:04.531Z</time>
      </trkpt>
      <trkpt lat="42.88851" lon="0.07758">
        <ele>1754</ele>
        <time>2021-03-20T10:37:09.836Z</time>
      </trkpt>
      <trkpt lat="42.8885" lon="0.07758">
        <ele>1754</ele>
        <time>2021-03-20T10:37:19.528Z</time>
      </trkpt>
      <trkpt lat="42.88849" lon="0.07759">
        <ele>1754</ele>
        <time>2021-03-20T10:37:24.531Z</time>
      </trkpt>
      <trkpt lat="42.88846" lon="0.0776">
        <ele>1758</ele>
        <time>2021-03-20T10:37:29.527Z</time>
      </trkpt>
      <trkpt lat="42.88843" lon="0.07762">
        <ele>1758</ele>
        <time>2021-03-20T10:37:34.530Z</time>
      </trkpt>
      <trkpt lat="42.8884" lon="0.07763">
        <ele>1758</ele>
        <time>2021-03-20T10:37:39.529Z</time>
      </trkpt>
      <trkpt lat="42.88835" lon="0.07761">
        <ele>1758</ele>
        <time>2021-03-20T10:37:49.528Z</time>
      </trkpt>
      <trkpt lat="42.88835" lon="0.07761">
        <ele>1758</ele>
        <time>2021-03-20T10:37:54.532Z</time>
      </trkpt>
      <trkpt lat="42.88833" lon="0.07761">
        <ele>1758</ele>
        <time>2021-03-20T10:37:59.531Z</time>
      </trkpt>
      <trkpt lat="42.8883" lon="0.07762">
        <ele>1758</ele>
        <time>2021-03-20T10:38:04.527Z</time>
      </trkpt>
      <trkpt lat="42.88827" lon="0.07761">
        <ele>1758</ele>
        <time>2021-03-20T10:38:09.533Z</time>
      </trkpt>
      <trkpt lat="42.88825" lon="0.07763">
        <ele>1758</ele>
        <time>2021-03-20T10:38:14.529Z</time>
      </trkpt>
      <trkpt lat="42.88822" lon="0.07763">
        <ele>1758</ele>
        <time>2021-03-20T10:38:19.527Z</time>
      </trkpt>
      <trkpt lat="42.88818" lon="0.07763">
        <ele>1762</ele>
        <time>2021-03-20T10:38:24.530Z</time>
      </trkpt>
      <trkpt lat="42.88815" lon="0.07762">
        <ele>1762</ele>
        <time>2021-03-20T10:38:29.529Z</time>
      </trkpt>
      <trkpt lat="42.88808" lon="0.07759">
        <ele>1762</ele>
        <time>2021-03-20T10:38:44.529Z</time>
      </trkpt>
      <trkpt lat="42.88808" lon="0.07758">
        <ele>1762</ele>
        <time>2021-03-20T10:38:49.528Z</time>
      </trkpt>
      <trkpt lat="42.88804" lon="0.07759">
        <ele>1762</ele>
        <time>2021-03-20T10:38:54.530Z</time>
      </trkpt>
      <trkpt lat="42.88801" lon="0.07759">
        <ele>1762</ele>
        <time>2021-03-20T10:38:59.529Z</time>
      </trkpt>
      <trkpt lat="42.888" lon="0.07758">
        <ele>1762</ele>
        <time>2021-03-20T10:39:04.527Z</time>
      </trkpt>
      <trkpt lat="42.888" lon="0.07759">
        <ele>1762</ele>
        <time>2021-03-20T10:41:26.529Z</time>
      </trkpt>
      <trkpt lat="42.88797" lon="0.07759">
        <ele>1762</ele>
        <time>2021-03-20T10:41:31.526Z</time>
      </trkpt>
      <trkpt lat="42.88794" lon="0.07758">
        <ele>1762</ele>
        <time>2021-03-20T10:41:35.805Z</time>
      </trkpt>
      <trkpt lat="42.8879" lon="0.07757">
        <ele>1763</ele>
        <time>2021-03-20T10:41:40.530Z</time>
      </trkpt>
      <trkpt lat="42.88786" lon="0.07757">
        <ele>1763</ele>
        <time>2021-03-20T10:41:45.526Z</time>
      </trkpt>
      <trkpt lat="42.88782" lon="0.07756">
        <ele>1763</ele>
        <time>2021-03-20T10:42:00.526Z</time>
      </trkpt>
      <trkpt lat="42.88781" lon="0.07756">
        <ele>1763</ele>
        <time>2021-03-20T10:42:04.536Z</time>
      </trkpt>
      <trkpt lat="42.88779" lon="0.07755">
        <ele>1763</ele>
        <time>2021-03-20T10:42:09.723Z</time>
      </trkpt>
      <trkpt lat="42.88776" lon="0.07754">
        <ele>1763</ele>
        <time>2021-03-20T10:42:14.531Z</time>
      </trkpt>
      <trkpt lat="42.88772" lon="0.07752">
        <ele>1763</ele>
        <time>2021-03-20T10:42:19.529Z</time>
      </trkpt>
      <trkpt lat="42.88769" lon="0.0775">
        <ele>1763</ele>
        <time>2021-03-20T10:42:24.736Z</time>
      </trkpt>
      <trkpt lat="42.88766" lon="0.07748">
        <ele>1763</ele>
        <time>2021-03-20T10:42:29.531Z</time>
      </trkpt>
      <trkpt lat="42.88763" lon="0.07746">
        <ele>1778</ele>
        <time>2021-03-20T10:42:34.529Z</time>
      </trkpt>
      <trkpt lat="42.88762" lon="0.07745">
        <ele>1778</ele>
        <time>2021-03-20T10:42:39.528Z</time>
      </trkpt>
      <trkpt lat="42.88759" lon="0.07744">
        <ele>1778</ele>
        <time>2021-03-20T10:42:44.529Z</time>
      </trkpt>
      <trkpt lat="42.88755" lon="0.07742">
        <ele>1778</ele>
        <time>2021-03-20T10:42:54.526Z</time>
      </trkpt>
      <trkpt lat="42.88754" lon="0.07742">
        <ele>1778</ele>
        <time>2021-03-20T10:42:58.828Z</time>
      </trkpt>
      <trkpt lat="42.88752" lon="0.07741">
        <ele>1778</ele>
        <time>2021-03-20T10:43:03.531Z</time>
      </trkpt>
      <trkpt lat="42.88749" lon="0.0774">
        <ele>1778</ele>
        <time>2021-03-20T10:43:08.530Z</time>
      </trkpt>
      <trkpt lat="42.88747" lon="0.07738">
        <ele>1778</ele>
        <time>2021-03-20T10:43:13.529Z</time>
      </trkpt>
      <trkpt lat="42.88744" lon="0.07737">
        <ele>1778</ele>
        <time>2021-03-20T10:45:00.531Z</time>
      </trkpt>
      <trkpt lat="42.88744" lon="0.07737">
        <ele>1778</ele>
        <time>2021-03-20T10:45:04.526Z</time>
      </trkpt>
      <trkpt lat="42.88743" lon="0.07737">
        <ele>1778</ele>
        <time>2021-03-20T10:45:09.704Z</time>
      </trkpt>
      <trkpt lat="42.88739" lon="0.07738">
        <ele>1778</ele>
        <time>2021-03-20T10:45:14.528Z</time>
      </trkpt>
      <trkpt lat="42.88737" lon="0.07742">
        <ele>1778</ele>
        <time>2021-03-20T10:45:19.529Z</time>
      </trkpt>
      <trkpt lat="42.88733" lon="0.07742">
        <ele>1791</ele>
        <time>2021-03-20T10:45:24.527Z</time>
      </trkpt>
      <trkpt lat="42.88729" lon="0.07742">
        <ele>1791</ele>
        <time>2021-03-20T10:45:29.529Z</time>
      </trkpt>
      <trkpt lat="42.88726" lon="0.07744">
        <ele>1791</ele>
        <time>2021-03-20T10:45:34.532Z</time>
      </trkpt>
      <trkpt lat="42.88724" lon="0.07746">
        <ele>1791</ele>
        <time>2021-03-20T10:45:39.525Z</time>
      </trkpt>
      <trkpt lat="42.88722" lon="0.07746">
        <ele>1791</ele>
        <time>2021-03-20T10:45:44.527Z</time>
      </trkpt>
      <trkpt lat="42.88719" lon="0.07746">
        <ele>1791</ele>
        <time>2021-03-20T10:45:49.521Z</time>
      </trkpt>
      <trkpt lat="42.88717" lon="0.07748">
        <ele>1791</ele>
        <time>2021-03-20T10:45:54.703Z</time>
      </trkpt>
      <trkpt lat="42.88715" lon="0.07749">
        <ele>1791</ele>
        <time>2021-03-20T10:45:59.526Z</time>
      </trkpt>
      <trkpt lat="42.88713" lon="0.0775">
        <ele>1791</ele>
        <time>2021-03-20T10:46:04.530Z</time>
      </trkpt>
      <trkpt lat="42.88709" lon="0.07744">
        <ele>1791</ele>
        <time>2021-03-20T10:47:02.526Z</time>
      </trkpt>
      <trkpt lat="42.88708" lon="0.07741">
        <ele>1797</ele>
        <time>2021-03-20T10:47:07.534Z</time>
      </trkpt>
      <trkpt lat="42.88709" lon="0.07734">
        <ele>1796</ele>
        <time>2021-03-20T10:47:12.532Z</time>
      </trkpt>
      <trkpt lat="42.88709" lon="0.07729">
        <ele>1796</ele>
        <time>2021-03-20T10:47:17.673Z</time>
      </trkpt>
      <trkpt lat="42.88709" lon="0.07724">
        <ele>1796</ele>
        <time>2021-03-20T10:47:22.526Z</time>
      </trkpt>
      <trkpt lat="42.88709" lon="0.07722">
        <ele>1796</ele>
        <time>2021-03-20T10:48:22.525Z</time>
      </trkpt>
      <trkpt lat="42.88708" lon="0.07723">
        <ele>1805</ele>
        <time>2021-03-20T10:48:26.815Z</time>
      </trkpt>
      <trkpt lat="42.88707" lon="0.07726">
        <ele>1805</ele>
        <time>2021-03-20T10:48:31.526Z</time>
      </trkpt>
      <trkpt lat="42.88706" lon="0.07727">
        <ele>1805</ele>
        <time>2021-03-20T10:48:36.531Z</time>
      </trkpt>
      <trkpt lat="42.88702" lon="0.0773">
        <ele>1805</ele>
        <time>2021-03-20T10:48:41.533Z</time>
      </trkpt>
      <trkpt lat="42.88698" lon="0.07736">
        <ele>1805</ele>
        <time>2021-03-20T10:48:55.524Z</time>
      </trkpt>
      <trkpt lat="42.88698" lon="0.07736">
        <ele>1805</ele>
        <time>2021-03-20T10:49:00.524Z</time>
      </trkpt>
      <trkpt lat="42.88698" lon="0.07736">
        <ele>1805</ele>
        <time>2021-03-20T10:49:04.756Z</time>
      </trkpt>
      <trkpt lat="42.88695" lon="0.07737">
        <ele>1797</ele>
        <time>2021-03-20T10:49:09.531Z</time>
      </trkpt>
      <trkpt lat="42.88691" lon="0.07741">
        <ele>1797</ele>
        <time>2021-03-20T10:49:14.531Z</time>
      </trkpt>
      <trkpt lat="42.88683" lon="0.07739">
        <ele>1797</ele>
        <time>2021-03-20T10:49:59.552Z</time>
      </trkpt>
      <trkpt lat="42.88684" lon="0.07735">
        <ele>1805</ele>
        <time>2021-03-20T10:50:04.528Z</time>
      </trkpt>
      <trkpt lat="42.88687" lon="0.07731">
        <ele>1805</ele>
        <time>2021-03-20T10:50:09.529Z</time>
      </trkpt>
      <trkpt lat="42.8869" lon="0.07726">
        <ele>1805</ele>
        <time>2021-03-20T10:50:14.529Z</time>
      </trkpt>
      <trkpt lat="42.88692" lon="0.07722">
        <ele>1805</ele>
        <time>2021-03-20T10:50:19.528Z</time>
      </trkpt>
      <trkpt lat="42.88691" lon="0.07715">
        <ele>1805</ele>
        <time>2021-03-20T10:51:14.527Z</time>
      </trkpt>
      <trkpt lat="42.8869" lon="0.07716">
        <ele>1805</ele>
        <time>2021-03-20T10:51:19.527Z</time>
      </trkpt>
      <trkpt lat="42.88688" lon="0.0772">
        <ele>1805</ele>
        <time>2021-03-20T10:51:24.530Z</time>
      </trkpt>
      <trkpt lat="42.88685" lon="0.07723">
        <ele>1805</ele>
        <time>2021-03-20T10:51:29.528Z</time>
      </trkpt>
      <trkpt lat="42.88682" lon="0.07726">
        <ele>1805</ele>
        <time>2021-03-20T10:51:33.528Z</time>
      </trkpt>
      <trkpt lat="42.88678" lon="0.07728">
        <ele>1811</ele>
        <time>2021-03-20T10:51:38.528Z</time>
      </trkpt>
      <trkpt lat="42.88675" lon="0.07731">
        <ele>1811</ele>
        <time>2021-03-20T10:51:43.530Z</time>
      </trkpt>
      <trkpt lat="42.88673" lon="0.07735">
        <ele>1811</ele>
        <time>2021-03-20T10:51:48.529Z</time>
      </trkpt>
      <trkpt lat="42.88671" lon="0.07737">
        <ele>1803</ele>
        <time>2021-03-20T10:51:53.526Z</time>
      </trkpt>
      <trkpt lat="42.88669" lon="0.07739">
        <ele>1803</ele>
        <time>2021-03-20T10:52:03.530Z</time>
      </trkpt>
      <trkpt lat="42.88668" lon="0.07738">
        <ele>1803</ele>
        <time>2021-03-20T10:52:08.532Z</time>
      </trkpt>
      <trkpt lat="42.88667" lon="0.07738">
        <ele>1803</ele>
        <time>2021-03-20T10:52:13.526Z</time>
      </trkpt>
      <trkpt lat="42.88664" lon="0.07737">
        <ele>1803</ele>
        <time>2021-03-20T10:52:18.534Z</time>
      </trkpt>
      <trkpt lat="42.88661" lon="0.07736">
        <ele>1803</ele>
        <time>2021-03-20T10:52:23.739Z</time>
      </trkpt>
      <trkpt lat="42.88658" lon="0.07735">
        <ele>1811</ele>
        <time>2021-03-20T10:52:28.530Z</time>
      </trkpt>
      <trkpt lat="42.88656" lon="0.07732">
        <ele>1811</ele>
        <time>2021-03-20T10:52:33.529Z</time>
      </trkpt>
      <trkpt lat="42.88656" lon="0.07727">
        <ele>1811</ele>
        <time>2021-03-20T10:52:38.528Z</time>
      </trkpt>
      <trkpt lat="42.88657" lon="0.07723">
        <ele>1811</ele>
        <time>2021-03-20T10:52:43.529Z</time>
      </trkpt>
      <trkpt lat="42.88657" lon="0.0772">
        <ele>1811</ele>
        <time>2021-03-20T10:52:48.526Z</time>
      </trkpt>
      <trkpt lat="42.88655" lon="0.07715">
        <ele>1811</ele>
        <time>2021-03-20T10:54:11.532Z</time>
      </trkpt>
      <trkpt lat="42.88654" lon="0.07716">
        <ele>1811</ele>
        <time>2021-03-20T10:54:16.529Z</time>
      </trkpt>
      <trkpt lat="42.88652" lon="0.07714">
        <ele>1820</ele>
        <time>2021-03-20T10:54:20.810Z</time>
      </trkpt>
      <trkpt lat="42.88649" lon="0.07714">
        <ele>1820</ele>
        <time>2021-03-20T10:54:25.527Z</time>
      </trkpt>
      <trkpt lat="42.88646" lon="0.07713">
        <ele>1820</ele>
        <time>2021-03-20T10:54:30.532Z</time>
      </trkpt>
      <trkpt lat="42.88646" lon="0.07703">
        <ele>1833</ele>
        <time>2021-03-20T10:54:45.535Z</time>
      </trkpt>
      <trkpt lat="42.88648" lon="0.077">
        <ele>1833</ele>
        <time>2021-03-20T10:54:50.527Z</time>
      </trkpt>
      <trkpt lat="42.88649" lon="0.07699">
        <ele>1833</ele>
        <time>2021-03-20T10:54:55.526Z</time>
      </trkpt>
      <trkpt lat="42.88649" lon="0.07699">
        <ele>1833</ele>
        <time>2021-03-20T10:55:00.530Z</time>
      </trkpt>
      <trkpt lat="42.88649" lon="0.07695">
        <ele>1833</ele>
        <time>2021-03-20T10:55:05.521Z</time>
      </trkpt>
      <trkpt lat="42.88651" lon="0.07684">
        <ele>1833</ele>
        <time>2021-03-20T10:55:29.525Z</time>
      </trkpt>
      <trkpt lat="42.88651" lon="0.07684">
        <ele>1833</ele>
        <time>2021-03-20T10:55:34.527Z</time>
      </trkpt>
      <trkpt lat="42.88651" lon="0.07684">
        <ele>1833</ele>
        <time>2021-03-20T10:55:38.770Z</time>
      </trkpt>
      <trkpt lat="42.88651" lon="0.07682">
        <ele>1833</ele>
        <time>2021-03-20T10:55:43.526Z</time>
      </trkpt>
      <trkpt lat="42.88652" lon="0.07679">
        <ele>1847</ele>
        <time>2021-03-20T10:55:48.528Z</time>
      </trkpt>
      <trkpt lat="42.88655" lon="0.07675">
        <ele>1837</ele>
        <time>2021-03-20T10:55:58.531Z</time>
      </trkpt>
      <trkpt lat="42.88656" lon="0.07672">
        <ele>1837</ele>
        <time>2021-03-20T10:56:03.530Z</time>
      </trkpt>
      <trkpt lat="42.88658" lon="0.0767">
        <ele>1837</ele>
        <time>2021-03-20T10:56:08.536Z</time>
      </trkpt>
      <trkpt lat="42.88658" lon="0.07668">
        <ele>1837</ele>
        <time>2021-03-20T10:56:12.735Z</time>
      </trkpt>
      <trkpt lat="42.88659" lon="0.07667">
        <ele>1837</ele>
        <time>2021-03-20T10:56:17.797Z</time>
      </trkpt>
      <trkpt lat="42.8866" lon="0.07665">
        <ele>1837</ele>
        <time>2021-03-20T10:56:22.528Z</time>
      </trkpt>
      <trkpt lat="42.88661" lon="0.07662">
        <ele>1837</ele>
        <time>2021-03-20T10:56:26.532Z</time>
      </trkpt>
      <trkpt lat="42.8866" lon="0.07659">
        <ele>1837</ele>
        <time>2021-03-20T10:56:31.746Z</time>
      </trkpt>
      <trkpt lat="42.8866" lon="0.07656">
        <ele>1837</ele>
        <time>2021-03-20T10:56:36.529Z</time>
      </trkpt>
      <trkpt lat="42.88661" lon="0.07653">
        <ele>1847</ele>
        <time>2021-03-20T10:56:41.727Z</time>
      </trkpt>
      <trkpt lat="42.88664" lon="0.07648">
        <ele>1847</ele>
        <time>2021-03-20T10:56:56.524Z</time>
      </trkpt>
      <trkpt lat="42.88664" lon="0.07647">
        <ele>1847</ele>
        <time>2021-03-20T10:57:00.681Z</time>
      </trkpt>
      <trkpt lat="42.88665" lon="0.07644">
        <ele>1847</ele>
        <time>2021-03-20T10:57:05.526Z</time>
      </trkpt>
      <trkpt lat="42.88667" lon="0.0764">
        <ele>1847</ele>
        <time>2021-03-20T10:57:10.557Z</time>
      </trkpt>
      <trkpt lat="42.88669" lon="0.07636">
        <ele>1847</ele>
        <time>2021-03-20T10:57:15.524Z</time>
      </trkpt>
      <trkpt lat="42.88672" lon="0.07627">
        <ele>1847</ele>
        <time>2021-03-20T10:57:39.523Z</time>
      </trkpt>
      <trkpt lat="42.88672" lon="0.07627">
        <ele>1847</ele>
        <time>2021-03-20T10:57:44.520Z</time>
      </trkpt>
      <trkpt lat="42.88672" lon="0.07626">
        <ele>1847</ele>
        <time>2021-03-20T10:57:49.771Z</time>
      </trkpt>
      <trkpt lat="42.88673" lon="0.0762">
        <ele>1853</ele>
        <time>2021-03-20T10:57:54.528Z</time>
      </trkpt>
      <trkpt lat="42.88673" lon="0.07617">
        <ele>1853</ele>
        <time>2021-03-20T10:57:58.693Z</time>
      </trkpt>
      <trkpt lat="42.88673" lon="0.07612">
        <ele>1853</ele>
        <time>2021-03-20T10:58:03.531Z</time>
      </trkpt>
      <trkpt lat="42.88673" lon="0.07608">
        <ele>1853</ele>
        <time>2021-03-20T10:58:08.530Z</time>
      </trkpt>
      <trkpt lat="42.88673" lon="0.07603">
        <ele>1853</ele>
        <time>2021-03-20T10:58:13.551Z</time>
      </trkpt>
      <trkpt lat="42.88673" lon="0.076">
        <ele>1853</ele>
        <time>2021-03-20T10:58:18.700Z</time>
      </trkpt>
      <trkpt lat="42.88674" lon="0.07595">
        <ele>1862</ele>
        <time>2021-03-20T10:58:43.528Z</time>
      </trkpt>
      <trkpt lat="42.88673" lon="0.07591">
        <ele>1862</ele>
        <time>2021-03-20T10:58:47.822Z</time>
      </trkpt>
      <trkpt lat="42.88674" lon="0.0759">
        <ele>1862</ele>
        <time>2021-03-20T10:58:52.525Z</time>
      </trkpt>
      <trkpt lat="42.88674" lon="0.0759">
        <ele>1862</ele>
        <time>2021-03-20T10:58:57.528Z</time>
      </trkpt>
      <trkpt lat="42.88673" lon="0.07587">
        <ele>1862</ele>
        <time>2021-03-20T10:59:02.743Z</time>
      </trkpt>
      <trkpt lat="42.88671" lon="0.07583">
        <ele>1862</ele>
        <time>2021-03-20T10:59:07.530Z</time>
      </trkpt>
      <trkpt lat="42.8867" lon="0.0758">
        <ele>1862</ele>
        <time>2021-03-20T10:59:12.686Z</time>
      </trkpt>
      <trkpt lat="42.88667" lon="0.07576">
        <ele>1862</ele>
        <time>2021-03-20T10:59:17.527Z</time>
      </trkpt>
      <trkpt lat="42.88666" lon="0.07571">
        <ele>1862</ele>
        <time>2021-03-20T10:59:22.532Z</time>
      </trkpt>
      <trkpt lat="42.88662" lon="0.07564">
        <ele>1865</ele>
        <time>2021-03-20T10:59:57.532Z</time>
      </trkpt>
      <trkpt lat="42.88659" lon="0.07564">
        <ele>1865</ele>
        <time>2021-03-20T11:00:01.762Z</time>
      </trkpt>
      <trkpt lat="42.88659" lon="0.07565">
        <ele>1865</ele>
        <time>2021-03-20T11:00:06.534Z</time>
      </trkpt>
      <trkpt lat="42.88659" lon="0.07563">
        <ele>1865</ele>
        <time>2021-03-20T11:00:11.764Z</time>
      </trkpt>
      <trkpt lat="42.88655" lon="0.07561">
        <ele>1865</ele>
        <time>2021-03-20T11:00:16.528Z</time>
      </trkpt>
      <trkpt lat="42.88653" lon="0.07557">
        <ele>1865</ele>
        <time>2021-03-20T11:00:21.529Z</time>
      </trkpt>
      <trkpt lat="42.88651" lon="0.07553">
        <ele>1874</ele>
        <time>2021-03-20T11:00:26.554Z</time>
      </trkpt>
      <trkpt lat="42.8865" lon="0.07549">
        <ele>1874</ele>
        <time>2021-03-20T11:00:31.528Z</time>
      </trkpt>
      <trkpt lat="42.88651" lon="0.07544">
        <ele>1874</ele>
        <time>2021-03-20T11:00:36.534Z</time>
      </trkpt>
      <trkpt lat="42.88651" lon="0.07532">
        <ele>1876</ele>
        <time>2021-03-20T11:08:42.697Z</time>
      </trkpt>
      <trkpt lat="42.88649" lon="0.07529">
        <ele>1876</ele>
        <time>2021-03-20T11:08:47.533Z</time>
      </trkpt>
      <trkpt lat="42.88647" lon="0.07525">
        <ele>1876</ele>
        <time>2021-03-20T11:08:52.535Z</time>
      </trkpt>
      <trkpt lat="42.88646" lon="0.07521">
        <ele>1876</ele>
        <time>2021-03-20T11:08:57.534Z</time>
      </trkpt>
      <trkpt lat="42.88646" lon="0.07516">
        <ele>1876</ele>
        <time>2021-03-20T11:09:02.818Z</time>
      </trkpt>
      <trkpt lat="42.88645" lon="0.07509">
        <ele>1879</ele>
        <time>2021-03-20T11:11:44.532Z</time>
      </trkpt>
      <trkpt lat="42.88645" lon="0.07508">
        <ele>1879</ele>
        <time>2021-03-20T11:11:49.530Z</time>
      </trkpt>
      <trkpt lat="42.88643" lon="0.07505">
        <ele>1879</ele>
        <time>2021-03-20T11:11:54.526Z</time>
      </trkpt>
      <trkpt lat="42.88644" lon="0.07501">
        <ele>1879</ele>
        <time>2021-03-20T11:11:59.528Z</time>
      </trkpt>
      <trkpt lat="42.88645" lon="0.07497">
        <ele>1879</ele>
        <time>2021-03-20T11:12:04.529Z</time>
      </trkpt>
      <trkpt lat="42.88646" lon="0.07493">
        <ele>1879</ele>
        <time>2021-03-20T11:12:09.528Z</time>
      </trkpt>
      <trkpt lat="42.88647" lon="0.0749">
        <ele>1879</ele>
        <time>2021-03-20T11:12:14.528Z</time>
      </trkpt>
      <trkpt lat="42.88647" lon="0.07486">
        <ele>1880</ele>
        <time>2021-03-20T11:12:19.530Z</time>
      </trkpt>
      <trkpt lat="42.88647" lon="0.07482">
        <ele>1880</ele>
        <time>2021-03-20T11:12:24.532Z</time>
      </trkpt>
      <trkpt lat="42.88646" lon="0.0748">
        <ele>1880</ele>
        <time>2021-03-20T11:12:29.529Z</time>
      </trkpt>
      <trkpt lat="42.88646" lon="0.07481">
        <ele>1880</ele>
        <time>2021-03-20T11:14:46.528Z</time>
      </trkpt>
      <trkpt lat="42.88647" lon="0.07478">
        <ele>1880</ele>
        <time>2021-03-20T11:14:51.532Z</time>
      </trkpt>
      <trkpt lat="42.88646" lon="0.07473">
        <ele>1880</ele>
        <time>2021-03-20T11:14:56.526Z</time>
      </trkpt>
      <trkpt lat="42.88644" lon="0.07469">
        <ele>1880</ele>
        <time>2021-03-20T11:15:00.846Z</time>
      </trkpt>
      <trkpt lat="42.88642" lon="0.07465">
        <ele>1880</ele>
        <time>2021-03-20T11:15:05.527Z</time>
      </trkpt>
      <trkpt lat="42.8864" lon="0.07463">
        <ele>1880</ele>
        <time>2021-03-20T11:15:10.556Z</time>
      </trkpt>
      <trkpt lat="42.88639" lon="0.0746">
        <ele>1880</ele>
        <time>2021-03-20T11:15:15.719Z</time>
      </trkpt>
      <trkpt lat="42.88636" lon="0.07459">
        <ele>1880</ele>
        <time>2021-03-20T11:15:20.529Z</time>
      </trkpt>
      <trkpt lat="42.88633" lon="0.07456">
        <ele>1879</ele>
        <time>2021-03-20T11:15:25.531Z</time>
      </trkpt>
      <trkpt lat="42.88633" lon="0.07453">
        <ele>1879</ele>
        <time>2021-03-20T11:15:30.531Z</time>
      </trkpt>
      <trkpt lat="42.88632" lon="0.07449">
        <ele>1879</ele>
        <time>2021-03-20T11:15:35.527Z</time>
      </trkpt>
      <trkpt lat="42.88629" lon="0.07447">
        <ele>1879</ele>
        <time>2021-03-20T11:15:40.526Z</time>
      </trkpt>
      <trkpt lat="42.88627" lon="0.07445">
        <ele>1879</ele>
        <time>2021-03-20T11:15:45.526Z</time>
      </trkpt>
      <trkpt lat="42.88624" lon="0.07442">
        <ele>1895</ele>
        <time>2021-03-20T11:15:50.528Z</time>
      </trkpt>
      <trkpt lat="42.88624" lon="0.07438">
        <ele>1895</ele>
        <time>2021-03-20T11:15:55.529Z</time>
      </trkpt>
      <trkpt lat="42.88623" lon="0.07434">
        <ele>1895</ele>
        <time>2021-03-20T11:16:00.730Z</time>
      </trkpt>
      <trkpt lat="42.8862" lon="0.07431">
        <ele>1895</ele>
        <time>2021-03-20T11:16:05.525Z</time>
      </trkpt>
      <trkpt lat="42.88619" lon="0.07429">
        <ele>1894</ele>
        <time>2021-03-20T11:16:10.560Z</time>
      </trkpt>
      <trkpt lat="42.88618" lon="0.07426">
        <ele>1894</ele>
        <time>2021-03-20T11:16:15.754Z</time>
      </trkpt>
      <trkpt lat="42.88615" lon="0.07424">
        <ele>1894</ele>
        <time>2021-03-20T11:16:20.533Z</time>
      </trkpt>
      <trkpt lat="42.88612" lon="0.07424">
        <ele>1894</ele>
        <time>2021-03-20T11:16:25.762Z</time>
      </trkpt>
      <trkpt lat="42.88611" lon="0.07421">
        <ele>1894</ele>
        <time>2021-03-20T11:16:30.529Z</time>
      </trkpt>
      <trkpt lat="42.88609" lon="0.07419">
        <ele>1894</ele>
        <time>2021-03-20T11:16:35.720Z</time>
      </trkpt>
      <trkpt lat="42.88606" lon="0.07418">
        <ele>1894</ele>
        <time>2021-03-20T11:16:40.528Z</time>
      </trkpt>
      <trkpt lat="42.88601" lon="0.07411">
        <ele>1894</ele>
        <time>2021-03-20T11:17:14.552Z</time>
      </trkpt>
      <trkpt lat="42.88598" lon="0.07408">
        <ele>1894</ele>
        <time>2021-03-20T11:17:19.529Z</time>
      </trkpt>
      <trkpt lat="42.88596" lon="0.07406">
        <ele>1905</ele>
        <time>2021-03-20T11:17:24.533Z</time>
      </trkpt>
      <trkpt lat="42.88593" lon="0.07403">
        <ele>1905</ele>
        <time>2021-03-20T11:17:29.526Z</time>
      </trkpt>
      <trkpt lat="42.88591" lon="0.07401">
        <ele>1902</ele>
        <time>2021-03-20T11:17:34.532Z</time>
      </trkpt>
      <trkpt lat="42.88588" lon="0.074">
        <ele>1902</ele>
        <time>2021-03-20T11:17:38.529Z</time>
      </trkpt>
      <trkpt lat="42.88586" lon="0.07397">
        <ele>1902</ele>
        <time>2021-03-20T11:17:43.528Z</time>
      </trkpt>
      <trkpt lat="42.88583" lon="0.07395">
        <ele>1902</ele>
        <time>2021-03-20T11:17:48.533Z</time>
      </trkpt>
      <trkpt lat="42.88579" lon="0.07392">
        <ele>1902</ele>
        <time>2021-03-20T11:17:53.530Z</time>
      </trkpt>
      <trkpt lat="42.88576" lon="0.07391">
        <ele>1902</ele>
        <time>2021-03-20T11:18:18.531Z</time>
      </trkpt>
      <trkpt lat="42.88576" lon="0.0739">
        <ele>1902</ele>
        <time>2021-03-20T11:18:22.649Z</time>
      </trkpt>
      <trkpt lat="42.88574" lon="0.07386">
        <ele>1902</ele>
        <time>2021-03-20T11:18:27.527Z</time>
      </trkpt>
      <trkpt lat="42.88571" lon="0.07382">
        <ele>1902</ele>
        <time>2021-03-20T11:18:32.746Z</time>
      </trkpt>
      <trkpt lat="42.88569" lon="0.07378">
        <ele>1911</ele>
        <time>2021-03-20T11:18:37.534Z</time>
      </trkpt>
      <trkpt lat="42.88561" lon="0.07371">
        <ele>1905</ele>
        <time>2021-03-20T11:19:01.529Z</time>
      </trkpt>
      <trkpt lat="42.88561" lon="0.07371">
        <ele>1905</ele>
        <time>2021-03-20T11:19:06.528Z</time>
      </trkpt>
      <trkpt lat="42.8856" lon="0.0737">
        <ele>1905</ele>
        <time>2021-03-20T11:19:11.525Z</time>
      </trkpt>
      <trkpt lat="42.88558" lon="0.07369">
        <ele>1905</ele>
        <time>2021-03-20T11:19:16.525Z</time>
      </trkpt>
      <trkpt lat="42.88555" lon="0.07367">
        <ele>1905</ele>
        <time>2021-03-20T11:19:21.527Z</time>
      </trkpt>
      <trkpt lat="42.88551" lon="0.07366">
        <ele>1905</ele>
        <time>2021-03-20T11:19:26.705Z</time>
      </trkpt>
      <trkpt lat="42.88548" lon="0.07364">
        <ele>1905</ele>
        <time>2021-03-20T11:19:31.751Z</time>
      </trkpt>
      <trkpt lat="42.88545" lon="0.0736">
        <ele>1905</ele>
        <time>2021-03-20T11:19:36.526Z</time>
      </trkpt>
      <trkpt lat="42.88541" lon="0.07356">
        <ele>1918</ele>
        <time>2021-03-20T11:19:41.549Z</time>
      </trkpt>
      <trkpt lat="42.88536" lon="0.07351">
        <ele>1918</ele>
        <time>2021-03-20T11:20:06.527Z</time>
      </trkpt>
      <trkpt lat="42.88535" lon="0.07351">
        <ele>1918</ele>
        <time>2021-03-20T11:20:10.558Z</time>
      </trkpt>
      <trkpt lat="42.88534" lon="0.07348">
        <ele>1918</ele>
        <time>2021-03-20T11:20:15.535Z</time>
      </trkpt>
      <trkpt lat="42.88531" lon="0.07347">
        <ele>1918</ele>
        <time>2021-03-20T11:20:20.530Z</time>
      </trkpt>
      <trkpt lat="42.88528" lon="0.07345">
        <ele>1910</ele>
        <time>2021-03-20T11:20:25.534Z</time>
      </trkpt>
      <trkpt lat="42.88525" lon="0.07342">
        <ele>1910</ele>
        <time>2021-03-20T11:20:30.528Z</time>
      </trkpt>
      <trkpt lat="42.88525" lon="0.07339">
        <ele>1910</ele>
        <time>2021-03-20T11:20:35.529Z</time>
      </trkpt>
      <trkpt lat="42.88522" lon="0.07339">
        <ele>1910</ele>
        <time>2021-03-20T11:20:40.531Z</time>
      </trkpt>
      <trkpt lat="42.88518" lon="0.07337">
        <ele>1910</ele>
        <time>2021-03-20T11:20:45.558Z</time>
      </trkpt>
      <trkpt lat="42.88515" lon="0.07335">
        <ele>1910</ele>
        <time>2021-03-20T11:20:50.526Z</time>
      </trkpt>
      <trkpt lat="42.88513" lon="0.07332">
        <ele>1925</ele>
        <time>2021-03-20T11:22:03.522Z</time>
      </trkpt>
      <trkpt lat="42.88513" lon="0.07331">
        <ele>1925</ele>
        <time>2021-03-20T11:22:08.527Z</time>
      </trkpt>
      <trkpt lat="42.88509" lon="0.0733">
        <ele>1925</ele>
        <time>2021-03-20T11:22:13.527Z</time>
      </trkpt>
      <trkpt lat="42.88505" lon="0.0733">
        <ele>1925</ele>
        <time>2021-03-20T11:22:17.805Z</time>
      </trkpt>
      <trkpt lat="42.88502" lon="0.07329">
        <ele>1925</ele>
        <time>2021-03-20T11:22:22.525Z</time>
      </trkpt>
      <trkpt lat="42.885" lon="0.07326">
        <ele>1925</ele>
        <time>2021-03-20T11:22:26.726Z</time>
      </trkpt>
      <trkpt lat="42.88497" lon="0.07326">
        <ele>1925</ele>
        <time>2021-03-20T11:22:30.828Z</time>
      </trkpt>
      <trkpt lat="42.88493" lon="0.07326">
        <ele>1925</ele>
        <time>2021-03-20T11:22:35.523Z</time>
      </trkpt>
      <trkpt lat="42.88491" lon="0.07325">
        <ele>1925</ele>
        <time>2021-03-20T11:22:39.521Z</time>
      </trkpt>
      <trkpt lat="42.88488" lon="0.07327">
        <ele>1925</ele>
        <time>2021-03-20T11:22:44.702Z</time>
      </trkpt>
      <trkpt lat="42.88485" lon="0.07326">
        <ele>1935</ele>
        <time>2021-03-20T11:22:49.528Z</time>
      </trkpt>
      <trkpt lat="42.8848" lon="0.07323">
        <ele>1935</ele>
        <time>2021-03-20T11:22:54.526Z</time>
      </trkpt>
      <trkpt lat="42.88476" lon="0.07323">
        <ele>1935</ele>
        <time>2021-03-20T11:22:59.830Z</time>
      </trkpt>
      <trkpt lat="42.88472" lon="0.07319">
        <ele>1928</ele>
        <time>2021-03-20T11:23:09.528Z</time>
      </trkpt>
      <trkpt lat="42.88469" lon="0.07318">
        <ele>1928</ele>
        <time>2021-03-20T11:23:13.533Z</time>
      </trkpt>
      <trkpt lat="42.88466" lon="0.07319">
        <ele>1928</ele>
        <time>2021-03-20T11:23:18.831Z</time>
      </trkpt>
      <trkpt lat="42.88464" lon="0.07321">
        <ele>1935</ele>
        <time>2021-03-20T11:23:23.527Z</time>
      </trkpt>
      <trkpt lat="42.88463" lon="0.07321">
        <ele>1935</ele>
        <time>2021-03-20T11:23:27.664Z</time>
      </trkpt>
      <trkpt lat="42.88459" lon="0.07321">
        <ele>1935</ele>
        <time>2021-03-20T11:30:03.528Z</time>
      </trkpt>
      <trkpt lat="42.88454" lon="0.0732">
        <ele>1944</ele>
        <time>2021-03-20T11:30:08.528Z</time>
      </trkpt>
      <trkpt lat="42.8845" lon="0.07319">
        <ele>1933</ele>
        <time>2021-03-20T11:30:13.530Z</time>
      </trkpt>
      <trkpt lat="42.88445" lon="0.07319">
        <ele>1933</ele>
        <time>2021-03-20T11:30:18.529Z</time>
      </trkpt>
      <trkpt lat="42.88445" lon="0.07321">
        <ele>1944</ele>
        <time>2021-03-20T11:30:23.534Z</time>
      </trkpt>
      <trkpt lat="42.88441" lon="0.0732">
        <ele>1944</ele>
        <time>2021-03-20T11:30:28.528Z</time>
      </trkpt>
      <trkpt lat="42.88437" lon="0.0732">
        <ele>1944</ele>
        <time>2021-03-20T11:30:33.549Z</time>
      </trkpt>
      <trkpt lat="42.88433" lon="0.07319">
        <ele>1933</ele>
        <time>2021-03-20T11:30:37.720Z</time>
      </trkpt>
      <trkpt lat="42.8843" lon="0.07319">
        <ele>1941</ele>
        <time>2021-03-20T11:30:42.527Z</time>
      </trkpt>
      <trkpt lat="42.88428" lon="0.07318">
        <ele>1941</ele>
        <time>2021-03-20T11:30:47.536Z</time>
      </trkpt>
      <trkpt lat="42.88425" lon="0.07316">
        <ele>1941</ele>
        <time>2021-03-20T11:30:52.522Z</time>
      </trkpt>
      <trkpt lat="42.88422" lon="0.07318">
        <ele>1941</ele>
        <time>2021-03-20T11:30:57.526Z</time>
      </trkpt>
      <trkpt lat="42.88418" lon="0.07318">
        <ele>1941</ele>
        <time>2021-03-20T11:31:02.532Z</time>
      </trkpt>
      <trkpt lat="42.88412" lon="0.0732">
        <ele>1953</ele>
        <time>2021-03-20T11:31:16.524Z</time>
      </trkpt>
      <trkpt lat="42.88412" lon="0.07323">
        <ele>1953</ele>
        <time>2021-03-20T11:31:21.531Z</time>
      </trkpt>
      <trkpt lat="42.88412" lon="0.07325">
        <ele>1953</ele>
        <time>2021-03-20T11:31:26.522Z</time>
      </trkpt>
      <trkpt lat="42.88413" lon="0.07328">
        <ele>1953</ele>
        <time>2021-03-20T11:31:30.527Z</time>
      </trkpt>
      <trkpt lat="42.88411" lon="0.0733">
        <ele>1953</ele>
        <time>2021-03-20T11:31:35.528Z</time>
      </trkpt>
      <trkpt lat="42.88407" lon="0.07333">
        <ele>1953</ele>
        <time>2021-03-20T11:31:54.525Z</time>
      </trkpt>
      <trkpt lat="42.88405" lon="0.07329">
        <ele>1953</ele>
        <time>2021-03-20T11:31:59.733Z</time>
      </trkpt>
      <trkpt lat="42.88402" lon="0.07327">
        <ele>1956</ele>
        <time>2021-03-20T11:32:04.525Z</time>
      </trkpt>
      <trkpt lat="42.88399" lon="0.07325">
        <ele>1956</ele>
        <time>2021-03-20T11:32:08.555Z</time>
      </trkpt>
      <trkpt lat="42.88395" lon="0.07323">
        <ele>1956</ele>
        <time>2021-03-20T11:32:13.526Z</time>
      </trkpt>
      <trkpt lat="42.8839" lon="0.0732">
        <ele>1956</ele>
        <time>2021-03-20T11:32:33.658Z</time>
      </trkpt>
      <trkpt lat="42.88388" lon="0.0732">
        <ele>1956</ele>
        <time>2021-03-20T11:32:38.525Z</time>
      </trkpt>
      <trkpt lat="42.88385" lon="0.07318">
        <ele>1946</ele>
        <time>2021-03-20T11:32:43.531Z</time>
      </trkpt>
      <trkpt lat="42.88381" lon="0.07316">
        <ele>1946</ele>
        <time>2021-03-20T11:32:48.524Z</time>
      </trkpt>
      <trkpt lat="42.88379" lon="0.07315">
        <ele>1946</ele>
        <time>2021-03-20T11:32:53.529Z</time>
      </trkpt>
      <trkpt lat="42.88376" lon="0.07315">
        <ele>1946</ele>
        <time>2021-03-20T11:32:58.525Z</time>
      </trkpt>
      <trkpt lat="42.88374" lon="0.07314">
        <ele>1950</ele>
        <time>2021-03-20T11:33:03.527Z</time>
      </trkpt>
      <trkpt lat="42.88371" lon="0.07312">
        <ele>1950</ele>
        <time>2021-03-20T11:33:07.553Z</time>
      </trkpt>
      <trkpt lat="42.88366" lon="0.07312">
        <ele>1950</ele>
        <time>2021-03-20T11:33:12.530Z</time>
      </trkpt>
      <trkpt lat="42.88361" lon="0.07311">
        <ele>1950</ele>
        <time>2021-03-20T11:33:17.528Z</time>
      </trkpt>
      <trkpt lat="42.88357" lon="0.0731">
        <ele>1950</ele>
        <time>2021-03-20T11:33:22.526Z</time>
      </trkpt>
      <trkpt lat="42.88354" lon="0.07308">
        <ele>1950</ele>
        <time>2021-03-20T11:33:27.527Z</time>
      </trkpt>
      <trkpt lat="42.88351" lon="0.07306">
        <ele>1950</ele>
        <time>2021-03-20T11:33:32.533Z</time>
      </trkpt>
      <trkpt lat="42.88349" lon="0.07305">
        <ele>1950</ele>
        <time>2021-03-20T11:33:37.527Z</time>
      </trkpt>
      <trkpt lat="42.88345" lon="0.07304">
        <ele>1958</ele>
        <time>2021-03-20T11:33:42.529Z</time>
      </trkpt>
      <trkpt lat="42.8834" lon="0.07301">
        <ele>1958</ele>
        <time>2021-03-20T11:33:47.525Z</time>
      </trkpt>
      <trkpt lat="42.88337" lon="0.073">
        <ele>1958</ele>
        <time>2021-03-20T11:33:52.532Z</time>
      </trkpt>
      <trkpt lat="42.88333" lon="0.07297">
        <ele>1958</ele>
        <time>2021-03-20T11:33:57.527Z</time>
      </trkpt>
      <trkpt lat="42.8833" lon="0.07295">
        <ele>1958</ele>
        <time>2021-03-20T11:34:02.530Z</time>
      </trkpt>
      <trkpt lat="42.88326" lon="0.07295">
        <ele>1958</ele>
        <time>2021-03-20T11:34:07.527Z</time>
      </trkpt>
      <trkpt lat="42.88324" lon="0.07297">
        <ele>1958</ele>
        <time>2021-03-20T11:34:12.526Z</time>
      </trkpt>
      <trkpt lat="42.88313" lon="0.073">
        <ele>1969</ele>
        <time>2021-03-20T11:35:15.526Z</time>
      </trkpt>
      <trkpt lat="42.88313" lon="0.073">
        <ele>1969</ele>
        <time>2021-03-20T11:35:20.687Z</time>
      </trkpt>
      <trkpt lat="42.88313" lon="0.073">
        <ele>1969</ele>
        <time>2021-03-20T11:35:25.526Z</time>
      </trkpt>
      <trkpt lat="42.88313" lon="0.073">
        <ele>1969</ele>
        <time>2021-03-20T11:35:30.525Z</time>
      </trkpt>
      <trkpt lat="42.88312" lon="0.07299">
        <ele>1969</ele>
        <time>2021-03-20T11:35:35.525Z</time>
      </trkpt>
      <trkpt lat="42.88311" lon="0.07298">
        <ele>1969</ele>
        <time>2021-03-20T11:35:45.525Z</time>
      </trkpt>
      <trkpt lat="42.88311" lon="0.07298">
        <ele>1969</ele>
        <time>2021-03-20T11:35:50.528Z</time>
      </trkpt>
      <trkpt lat="42.8831" lon="0.07298">
        <ele>1969</ele>
        <time>2021-03-20T11:35:55.526Z</time>
      </trkpt>
      <trkpt lat="42.88306" lon="0.07299">
        <ele>1969</ele>
        <time>2021-03-20T11:36:00.531Z</time>
      </trkpt>
      <trkpt lat="42.88301" lon="0.07297">
        <ele>1969</ele>
        <time>2021-03-20T11:36:05.524Z</time>
      </trkpt>
      <trkpt lat="42.88296" lon="0.07288">
        <ele>1964</ele>
        <time>2021-03-20T11:37:39.524Z</time>
      </trkpt>
      <trkpt lat="42.88295" lon="0.07287">
        <ele>1964</ele>
        <time>2021-03-20T11:37:44.524Z</time>
      </trkpt>
      <trkpt lat="42.88294" lon="0.07285">
        <ele>1964</ele>
        <time>2021-03-20T11:37:49.526Z</time>
      </trkpt>
      <trkpt lat="42.88293" lon="0.07284">
        <ele>1964</ele>
        <time>2021-03-20T11:37:53.560Z</time>
      </trkpt>
      <trkpt lat="42.88288" lon="0.07283">
        <ele>1983</ele>
        <time>2021-03-20T11:37:58.530Z</time>
      </trkpt>
      <trkpt lat="42.88285" lon="0.07279">
        <ele>1983</ele>
        <time>2021-03-20T11:38:03.530Z</time>
      </trkpt>
      <trkpt lat="42.88283" lon="0.07275">
        <ele>1983</ele>
        <time>2021-03-20T11:38:08.535Z</time>
      </trkpt>
      <trkpt lat="42.88282" lon="0.07271">
        <ele>1983</ele>
        <time>2021-03-20T11:38:13.528Z</time>
      </trkpt>
      <trkpt lat="42.8828" lon="0.07268">
        <ele>1983</ele>
        <time>2021-03-20T11:38:18.535Z</time>
      </trkpt>
      <trkpt lat="42.88273" lon="0.07272">
        <ele>1983</ele>
        <time>2021-03-20T11:39:13.531Z</time>
      </trkpt>
      <trkpt lat="42.88274" lon="0.07278">
        <ele>1983</ele>
        <time>2021-03-20T11:39:18.530Z</time>
      </trkpt>
      <trkpt lat="42.88275" lon="0.07283">
        <ele>1983</ele>
        <time>2021-03-20T11:39:23.560Z</time>
      </trkpt>
      <trkpt lat="42.88277" lon="0.0729">
        <ele>1983</ele>
        <time>2021-03-20T11:39:28.535Z</time>
      </trkpt>
      <trkpt lat="42.88279" lon="0.07297">
        <ele>1991</ele>
        <time>2021-03-20T11:39:33.528Z</time>
      </trkpt>
      <trkpt lat="42.88281" lon="0.07306">
        <ele>1991</ele>
        <time>2021-03-20T11:40:07.524Z</time>
      </trkpt>
      <trkpt lat="42.88281" lon="0.07306">
        <ele>1991</ele>
        <time>2021-03-20T11:40:12.529Z</time>
      </trkpt>
      <trkpt lat="42.88281" lon="0.07307">
        <ele>1991</ele>
        <time>2021-03-20T11:40:16.620Z</time>
      </trkpt>
      <trkpt lat="42.88283" lon="0.07311">
        <ele>1991</ele>
        <time>2021-03-20T11:40:21.526Z</time>
      </trkpt>
      <trkpt lat="42.88285" lon="0.07316">
        <ele>1991</ele>
        <time>2021-03-20T11:40:26.534Z</time>
      </trkpt>
      <trkpt lat="42.88286" lon="0.07321">
        <ele>2001</ele>
        <time>2021-03-20T11:40:31.529Z</time>
      </trkpt>
      <trkpt lat="42.88287" lon="0.07326">
        <ele>2001</ele>
        <time>2021-03-20T11:40:36.877Z</time>
      </trkpt>
      <trkpt lat="42.88288" lon="0.07331">
        <ele>2001</ele>
        <time>2021-03-20T11:40:41.535Z</time>
      </trkpt>
      <trkpt lat="42.88289" lon="0.07335">
        <ele>2001</ele>
        <time>2021-03-20T11:40:45.529Z</time>
      </trkpt>
      <trkpt lat="42.88291" lon="0.07345">
        <ele>2001</ele>
        <time>2021-03-20T11:40:55.532Z</time>
      </trkpt>
      <trkpt lat="42.8829" lon="0.07345">
        <ele>2001</ele>
        <time>2021-03-20T11:41:00.537Z</time>
      </trkpt>
      <trkpt lat="42.88291" lon="0.07349">
        <ele>2006</ele>
        <time>2021-03-20T11:41:05.535Z</time>
      </trkpt>
      <trkpt lat="42.88291" lon="0.07351">
        <ele>2006</ele>
        <time>2021-03-20T11:41:10.534Z</time>
      </trkpt>
      <trkpt lat="42.88294" lon="0.07356">
        <ele>1988</ele>
        <time>2021-03-20T11:41:15.529Z</time>
      </trkpt>
      <trkpt lat="42.88299" lon="0.07356">
        <ele>1988</ele>
        <time>2021-03-20T11:41:20.524Z</time>
      </trkpt>
      <trkpt lat="42.88302" lon="0.07362">
        <ele>1988</ele>
        <time>2021-03-20T11:41:25.556Z</time>
      </trkpt>
      <trkpt lat="42.88305" lon="0.07367">
        <ele>1988</ele>
        <time>2021-03-20T11:41:30.532Z</time>
      </trkpt>
      <trkpt lat="42.88307" lon="0.07369">
        <ele>1988</ele>
        <time>2021-03-20T11:41:35.545Z</time>
      </trkpt>
      <trkpt lat="42.88307" lon="0.0737">
        <ele>1988</ele>
        <time>2021-03-20T11:41:45.532Z</time>
      </trkpt>
      <trkpt lat="42.88308" lon="0.07373">
        <ele>1988</ele>
        <time>2021-03-20T11:41:50.529Z</time>
      </trkpt>
      <trkpt lat="42.88311" lon="0.07376">
        <ele>1993</ele>
        <time>2021-03-20T11:41:55.528Z</time>
      </trkpt>
      <trkpt lat="42.88312" lon="0.07378">
        <ele>1993</ele>
        <time>2021-03-20T11:42:00.559Z</time>
      </trkpt>
      <trkpt lat="42.88314" lon="0.07379">
        <ele>1993</ele>
        <time>2021-03-20T11:42:05.532Z</time>
      </trkpt>
      <trkpt lat="42.88315" lon="0.07382">
        <ele>1993</ele>
        <time>2021-03-20T11:42:10.527Z</time>
      </trkpt>
      <trkpt lat="42.88317" lon="0.07385">
        <ele>1993</ele>
        <time>2021-03-20T11:42:15.526Z</time>
      </trkpt>
      <trkpt lat="42.88318" lon="0.07387">
        <ele>1993</ele>
        <time>2021-03-20T11:42:20.529Z</time>
      </trkpt>
      <trkpt lat="42.8832" lon="0.07389">
        <ele>1984</ele>
        <time>2021-03-20T11:42:25.529Z</time>
      </trkpt>
      <trkpt lat="42.88323" lon="0.07392">
        <ele>1984</ele>
        <time>2021-03-20T11:42:30.540Z</time>
      </trkpt>
      <trkpt lat="42.8833" lon="0.07399">
        <ele>1984</ele>
        <time>2021-03-20T11:42:54.560Z</time>
      </trkpt>
      <trkpt lat="42.8833" lon="0.07399">
        <ele>1984</ele>
        <time>2021-03-20T11:42:59.527Z</time>
      </trkpt>
      <trkpt lat="42.88331" lon="0.07401">
        <ele>1984</ele>
        <time>2021-03-20T11:43:04.527Z</time>
      </trkpt>
      <trkpt lat="42.88331" lon="0.07401">
        <ele>1984</ele>
        <time>2021-03-20T11:43:09.556Z</time>
      </trkpt>
      <trkpt lat="42.88333" lon="0.07404">
        <ele>1991</ele>
        <time>2021-03-20T11:43:14.536Z</time>
      </trkpt>
      <trkpt lat="42.88335" lon="0.07407">
        <ele>1991</ele>
        <time>2021-03-20T11:43:19.532Z</time>
      </trkpt>
      <trkpt lat="42.88338" lon="0.07409">
        <ele>1991</ele>
        <time>2021-03-20T11:43:24.528Z</time>
      </trkpt>
      <trkpt lat="42.88342" lon="0.07413">
        <ele>1991</ele>
        <time>2021-03-20T11:43:29.532Z</time>
      </trkpt>
      <trkpt lat="42.88345" lon="0.07416">
        <ele>1991</ele>
        <time>2021-03-20T11:43:34.529Z</time>
      </trkpt>
      <trkpt lat="42.8835" lon="0.07424">
        <ele>1985</ele>
        <time>2021-03-20T11:43:44.533Z</time>
      </trkpt>
      <trkpt lat="42.8835" lon="0.07426">
        <ele>1985</ele>
        <time>2021-03-20T11:43:49.531Z</time>
      </trkpt>
      <trkpt lat="42.8835" lon="0.07426">
        <ele>1985</ele>
        <time>2021-03-20T11:43:54.527Z</time>
      </trkpt>
      <trkpt lat="42.88352" lon="0.07427">
        <ele>1985</ele>
        <time>2021-03-20T11:43:58.702Z</time>
      </trkpt>
      <trkpt lat="42.88355" lon="0.0743">
        <ele>1985</ele>
        <time>2021-03-20T11:44:03.525Z</time>
      </trkpt>
      <trkpt lat="42.88358" lon="0.07434">
        <ele>1987</ele>
        <time>2021-03-20T11:44:08.558Z</time>
      </trkpt>
      <trkpt lat="42.88362" lon="0.07437">
        <ele>1987</ele>
        <time>2021-03-20T11:44:13.531Z</time>
      </trkpt>
      <trkpt lat="42.88363" lon="0.0744">
        <ele>1987</ele>
        <time>2021-03-20T11:44:17.807Z</time>
      </trkpt>
      <trkpt lat="42.88367" lon="0.07444">
        <ele>1987</ele>
        <time>2021-03-20T11:44:22.529Z</time>
      </trkpt>
      <trkpt lat="42.88375" lon="0.07451">
        <ele>1987</ele>
        <time>2021-03-20T11:44:42.523Z</time>
      </trkpt>
      <trkpt lat="42.88375" lon="0.07451">
        <ele>1987</ele>
        <time>2021-03-20T11:44:47.685Z</time>
      </trkpt>
      <trkpt lat="42.88375" lon="0.07451">
        <ele>1987</ele>
        <time>2021-03-20T11:44:52.525Z</time>
      </trkpt>
      <trkpt lat="42.88375" lon="0.07451">
        <ele>1988</ele>
        <time>2021-03-20T11:44:57.532Z</time>
      </trkpt>
      <trkpt lat="42.88379" lon="0.07455">
        <ele>1988</ele>
        <time>2021-03-20T11:45:02.664Z</time>
      </trkpt>
      <trkpt lat="42.88383" lon="0.07471">
        <ele>1987</ele>
        <time>2021-03-20T11:45:36.528Z</time>
      </trkpt>
      <trkpt lat="42.88383" lon="0.07471">
        <ele>1987</ele>
        <time>2021-03-20T11:45:41.529Z</time>
      </trkpt>
      <trkpt lat="42.88383" lon="0.07471">
        <ele>1987</ele>
        <time>2021-03-20T11:45:46.687Z</time>
      </trkpt>
      <trkpt lat="42.88382" lon="0.07472">
        <ele>1987</ele>
        <time>2021-03-20T11:45:51.532Z</time>
      </trkpt>
      <trkpt lat="42.88382" lon="0.07473">
        <ele>1987</ele>
        <time>2021-03-20T11:45:56.532Z</time>
      </trkpt>
      <trkpt lat="42.88386" lon="0.07472">
        <ele>1987</ele>
        <time>2021-03-20T12:32:28.530Z</time>
      </trkpt>
      <trkpt lat="42.88386" lon="0.07471">
        <ele>1987</ele>
        <time>2021-03-20T12:32:33.534Z</time>
      </trkpt>
      <trkpt lat="42.88386" lon="0.0747">
        <ele>1987</ele>
        <time>2021-03-20T12:32:38.531Z</time>
      </trkpt>
      <trkpt lat="42.8839" lon="0.07468">
        <ele>1987</ele>
        <time>2021-03-20T12:32:43.530Z</time>
      </trkpt>
      <trkpt lat="42.88391" lon="0.07464">
        <ele>1987</ele>
        <time>2021-03-20T12:32:48.529Z</time>
      </trkpt>
      <trkpt lat="42.88391" lon="0.07464">
        <ele>1987</ele>
        <time>2021-03-20T12:34:16.532Z</time>
      </trkpt>
      <trkpt lat="42.88391" lon="0.07464">
        <ele>1987</ele>
        <time>2021-03-20T12:34:21.532Z</time>
      </trkpt>
      <trkpt lat="42.88391" lon="0.07463">
        <ele>1987</ele>
        <time>2021-03-20T12:34:26.554Z</time>
      </trkpt>
      <trkpt lat="42.88388" lon="0.07455">
        <ele>1988</ele>
        <time>2021-03-20T12:34:31.529Z</time>
      </trkpt>
      <trkpt lat="42.88384" lon="0.0745">
        <ele>1988</ele>
        <time>2021-03-20T12:34:36.529Z</time>
      </trkpt>
      <trkpt lat="42.88378" lon="0.07445">
        <ele>1988</ele>
        <time>2021-03-20T12:34:41.529Z</time>
      </trkpt>
      <trkpt lat="42.88373" lon="0.07435">
        <ele>1987</ele>
        <time>2021-03-20T12:34:46.530Z</time>
      </trkpt>
      <trkpt lat="42.8837" lon="0.07435">
        <ele>1987</ele>
        <time>2021-03-20T12:34:50.564Z</time>
      </trkpt>
      <trkpt lat="42.88365" lon="0.07432">
        <ele>1987</ele>
        <time>2021-03-20T12:34:55.530Z</time>
      </trkpt>
      <trkpt lat="42.88363" lon="0.07431">
        <ele>1987</ele>
        <time>2021-03-20T12:35:00.595Z</time>
      </trkpt>
      <trkpt lat="42.8836" lon="0.07428">
        <ele>1985</ele>
        <time>2021-03-20T12:35:05.534Z</time>
      </trkpt>
      <trkpt lat="42.88355" lon="0.07423">
        <ele>1985</ele>
        <time>2021-03-20T12:35:10.528Z</time>
      </trkpt>
      <trkpt lat="42.8835" lon="0.07417">
        <ele>1985</ele>
        <time>2021-03-20T12:35:15.537Z</time>
      </trkpt>
      <trkpt lat="42.88347" lon="0.07412">
        <ele>1985</ele>
        <time>2021-03-20T12:35:20.532Z</time>
      </trkpt>
      <trkpt lat="42.88341" lon="0.07406">
        <ele>1991</ele>
        <time>2021-03-20T12:35:25.529Z</time>
      </trkpt>
      <trkpt lat="42.88335" lon="0.07399">
        <ele>1984</ele>
        <time>2021-03-20T12:35:30.527Z</time>
      </trkpt>
      <trkpt lat="42.88332" lon="0.07396">
        <ele>1984</ele>
        <time>2021-03-20T12:35:35.529Z</time>
      </trkpt>
      <trkpt lat="42.88328" lon="0.07394">
        <ele>1984</ele>
        <time>2021-03-20T12:35:40.534Z</time>
      </trkpt>
      <trkpt lat="42.88325" lon="0.07392">
        <ele>1984</ele>
        <time>2021-03-20T12:35:45.531Z</time>
      </trkpt>
      <trkpt lat="42.88322" lon="0.07389">
        <ele>1984</ele>
        <time>2021-03-20T12:35:50.529Z</time>
      </trkpt>
      <trkpt lat="42.88316" lon="0.07383">
        <ele>1993</ele>
        <time>2021-03-20T12:35:55.534Z</time>
      </trkpt>
      <trkpt lat="42.88304" lon="0.07368">
        <ele>1988</ele>
        <time>2021-03-20T12:37:44.528Z</time>
      </trkpt>
      <trkpt lat="42.88301" lon="0.0736">
        <ele>1988</ele>
        <time>2021-03-20T12:37:49.525Z</time>
      </trkpt>
      <trkpt lat="42.88296" lon="0.07347">
        <ele>1979</ele>
        <time>2021-03-20T12:37:54.788Z</time>
      </trkpt>
      <trkpt lat="42.88294" lon="0.07339">
        <ele>1979</ele>
        <time>2021-03-20T12:37:59.528Z</time>
      </trkpt>
      <trkpt lat="42.88292" lon="0.07326">
        <ele>1979</ele>
        <time>2021-03-20T12:38:04.531Z</time>
      </trkpt>
      <trkpt lat="42.88288" lon="0.07313">
        <ele>1991</ele>
        <time>2021-03-20T12:38:09.528Z</time>
      </trkpt>
      <trkpt lat="42.88294" lon="0.073">
        <ele>1969</ele>
        <time>2021-03-20T12:38:14.533Z</time>
      </trkpt>
      <trkpt lat="42.88304" lon="0.07312">
        <ele>1969</ele>
        <time>2021-03-20T12:38:19.529Z</time>
      </trkpt>
      <trkpt lat="42.8831" lon="0.07303">
        <ele>1969</ele>
        <time>2021-03-20T12:38:24.529Z</time>
      </trkpt>
      <trkpt lat="42.8833" lon="0.07307">
        <ele>1958</ele>
        <time>2021-03-20T12:38:29.529Z</time>
      </trkpt>
      <trkpt lat="42.8834" lon="0.0731">
        <ele>1958</ele>
        <time>2021-03-20T12:38:34.528Z</time>
      </trkpt>
      <trkpt lat="42.88368" lon="0.07309">
        <ele>1950</ele>
        <time>2021-03-20T12:38:39.532Z</time>
      </trkpt>
      <trkpt lat="42.8839" lon="0.07323">
        <ele>1956</ele>
        <time>2021-03-20T12:38:44.521Z</time>
      </trkpt>
      <trkpt lat="42.88393" lon="0.07322">
        <ele>1956</ele>
        <time>2021-03-20T12:39:12.536Z</time>
      </trkpt>
      <trkpt lat="42.88393" lon="0.07322">
        <ele>1956</ele>
        <time>2021-03-20T12:39:17.568Z</time>
      </trkpt>
      <trkpt lat="42.88393" lon="0.07322">
        <ele>1956</ele>
        <time>2021-03-20T12:39:22.514Z</time>
      </trkpt>
      <trkpt lat="42.88398" lon="0.07323">
        <ele>1956</ele>
        <time>2021-03-20T12:39:26.536Z</time>
      </trkpt>
      <trkpt lat="42.88413" lon="0.07327">
        <ele>1953</ele>
        <time>2021-03-20T12:39:31.540Z</time>
      </trkpt>
      <trkpt lat="42.88425" lon="0.07324">
        <ele>1953</ele>
        <time>2021-03-20T12:39:36.528Z</time>
      </trkpt>
      <trkpt lat="42.88438" lon="0.07322">
        <ele>1944</ele>
        <time>2021-03-20T12:39:41.538Z</time>
      </trkpt>
      <trkpt lat="42.88456" lon="0.07323">
        <ele>1944</ele>
        <time>2021-03-20T12:39:46.531Z</time>
      </trkpt>
      <trkpt lat="42.88476" lon="0.07323">
        <ele>1935</ele>
        <time>2021-03-20T12:39:51.523Z</time>
      </trkpt>
      <trkpt lat="42.8849" lon="0.07328">
        <ele>1925</ele>
        <time>2021-03-20T12:39:55.543Z</time>
      </trkpt>
      <trkpt lat="42.88514" lon="0.07332">
        <ele>1910</ele>
        <time>2021-03-20T12:40:00.537Z</time>
      </trkpt>
      <trkpt lat="42.88514" lon="0.07336">
        <ele>1910</ele>
        <time>2021-03-20T12:40:05.528Z</time>
      </trkpt>
      <trkpt lat="42.88515" lon="0.07336">
        <ele>1910</ele>
        <time>2021-03-20T12:40:09.555Z</time>
      </trkpt>
      <trkpt lat="42.88515" lon="0.07336">
        <ele>1910</ele>
        <time>2021-03-20T12:40:14.527Z</time>
      </trkpt>
      <trkpt lat="42.88515" lon="0.07336">
        <ele>1910</ele>
        <time>2021-03-20T12:40:19.531Z</time>
      </trkpt>
      <trkpt lat="42.88515" lon="0.07336">
        <ele>1910</ele>
        <time>2021-03-20T12:40:24.535Z</time>
      </trkpt>
      <trkpt lat="42.88517" lon="0.07336">
        <ele>1910</ele>
        <time>2021-03-20T12:40:29.529Z</time>
      </trkpt>
      <trkpt lat="42.88527" lon="0.0734">
        <ele>1910</ele>
        <time>2021-03-20T12:40:34.530Z</time>
      </trkpt>
      <trkpt lat="42.88539" lon="0.07348">
        <ele>1918</ele>
        <time>2021-03-20T12:40:39.528Z</time>
      </trkpt>
      <trkpt lat="42.88558" lon="0.07366">
        <ele>1905</ele>
        <time>2021-03-20T12:40:44.528Z</time>
      </trkpt>
      <trkpt lat="42.88565" lon="0.07375">
        <ele>1905</ele>
        <time>2021-03-20T12:40:49.529Z</time>
      </trkpt>
      <trkpt lat="42.88575" lon="0.07387">
        <ele>1902</ele>
        <time>2021-03-20T12:40:54.530Z</time>
      </trkpt>
      <trkpt lat="42.8858" lon="0.07395">
        <ele>1902</ele>
        <time>2021-03-20T12:40:59.529Z</time>
      </trkpt>
      <trkpt lat="42.88588" lon="0.07404">
        <ele>1905</ele>
        <time>2021-03-20T12:41:04.528Z</time>
      </trkpt>
      <trkpt lat="42.88595" lon="0.0741">
        <ele>1905</ele>
        <time>2021-03-20T12:41:09.530Z</time>
      </trkpt>
      <trkpt lat="42.88602" lon="0.07416">
        <ele>1894</ele>
        <time>2021-03-20T12:41:14.531Z</time>
      </trkpt>
      <trkpt lat="42.88609" lon="0.07418">
        <ele>1894</ele>
        <time>2021-03-20T12:41:19.531Z</time>
      </trkpt>
      <trkpt lat="42.8862" lon="0.07431">
        <ele>1894</ele>
        <time>2021-03-20T12:41:24.531Z</time>
      </trkpt>
      <trkpt lat="42.88624" lon="0.07434">
        <ele>1895</ele>
        <time>2021-03-20T12:41:29.526Z</time>
      </trkpt>
      <trkpt lat="42.88629" lon="0.07436">
        <ele>1879</ele>
        <time>2021-03-20T12:41:34.528Z</time>
      </trkpt>
      <trkpt lat="42.88639" lon="0.07447">
        <ele>1879</ele>
        <time>2021-03-20T12:41:39.530Z</time>
      </trkpt>
      <trkpt lat="42.88646" lon="0.07461">
        <ele>1880</ele>
        <time>2021-03-20T12:41:44.528Z</time>
      </trkpt>
      <trkpt lat="42.8865" lon="0.07478">
        <ele>1880</ele>
        <time>2021-03-20T12:41:49.533Z</time>
      </trkpt>
      <trkpt lat="42.8865" lon="0.07492">
        <ele>1879</ele>
        <time>2021-03-20T12:41:54.554Z</time>
      </trkpt>
      <trkpt lat="42.88652" lon="0.07515">
        <ele>1876</ele>
        <time>2021-03-20T12:41:59.531Z</time>
      </trkpt>
      <trkpt lat="42.88655" lon="0.07523">
        <ele>1864</ele>
        <time>2021-03-20T12:42:04.526Z</time>
      </trkpt>
      <trkpt lat="42.88655" lon="0.07526">
        <ele>1864</ele>
        <time>2021-03-20T12:42:09.530Z</time>
      </trkpt>
      <trkpt lat="42.88655" lon="0.07527">
        <ele>1864</ele>
        <time>2021-03-20T12:42:14.531Z</time>
      </trkpt>
      <trkpt lat="42.88655" lon="0.07527">
        <ele>1864</ele>
        <time>2021-03-20T12:42:19.530Z</time>
      </trkpt>
      <trkpt lat="42.88655" lon="0.07528">
        <ele>1864</ele>
        <time>2021-03-20T12:42:24.537Z</time>
      </trkpt>
      <trkpt lat="42.88655" lon="0.07529">
        <ele>1864</ele>
        <time>2021-03-20T12:42:29.532Z</time>
      </trkpt>
      <trkpt lat="42.88655" lon="0.0753">
        <ele>1864</ele>
        <time>2021-03-20T12:42:34.536Z</time>
      </trkpt>
      <trkpt lat="42.88662" lon="0.07537">
        <ele>1864</ele>
        <time>2021-03-20T12:42:39.530Z</time>
      </trkpt>
      <trkpt lat="42.8867" lon="0.0755">
        <ele>1865</ele>
        <time>2021-03-20T12:42:44.535Z</time>
      </trkpt>
      <trkpt lat="42.88676" lon="0.07564">
        <ele>1865</ele>
        <time>2021-03-20T12:42:49.532Z</time>
      </trkpt>
      <trkpt lat="42.88674" lon="0.07577">
        <ele>1862</ele>
        <time>2021-03-20T12:42:53.562Z</time>
      </trkpt>
      <trkpt lat="42.88672" lon="0.07586">
        <ele>1862</ele>
        <time>2021-03-20T12:42:58.538Z</time>
      </trkpt>
      <trkpt lat="42.88677" lon="0.07598">
        <ele>1853</ele>
        <time>2021-03-20T12:43:03.535Z</time>
      </trkpt>
      <trkpt lat="42.88674" lon="0.0761">
        <ele>1853</ele>
        <time>2021-03-20T12:43:08.534Z</time>
      </trkpt>
      <trkpt lat="42.88669" lon="0.07627">
        <ele>1847</ele>
        <time>2021-03-20T12:43:13.538Z</time>
      </trkpt>
      <trkpt lat="42.88669" lon="0.07638">
        <ele>1847</ele>
        <time>2021-03-20T12:43:18.533Z</time>
      </trkpt>
      <trkpt lat="42.88672" lon="0.0764">
        <ele>1847</ele>
        <time>2021-03-20T12:43:23.553Z</time>
      </trkpt>
      <trkpt lat="42.88673" lon="0.07641">
        <ele>1847</ele>
        <time>2021-03-20T12:43:28.530Z</time>
      </trkpt>
      <trkpt lat="42.88672" lon="0.07648">
        <ele>1847</ele>
        <time>2021-03-20T12:43:33.534Z</time>
      </trkpt>
      <trkpt lat="42.88661" lon="0.07658">
        <ele>1837</ele>
        <time>2021-03-20T12:43:38.531Z</time>
      </trkpt>
      <trkpt lat="42.88652" lon="0.0769">
        <ele>1833</ele>
        <time>2021-03-20T12:44:53.528Z</time>
      </trkpt>
      <trkpt lat="42.88652" lon="0.0769">
        <ele>1833</ele>
        <time>2021-03-20T12:44:58.555Z</time>
      </trkpt>
      <trkpt lat="42.88645" lon="0.07691">
        <ele>1833</ele>
        <time>2021-03-20T12:45:03.532Z</time>
      </trkpt>
      <trkpt lat="42.88641" lon="0.07699">
        <ele>1833</ele>
        <time>2021-03-20T12:45:07.726Z</time>
      </trkpt>
      <trkpt lat="42.8864" lon="0.07701">
        <ele>1833</ele>
        <time>2021-03-20T12:45:12.525Z</time>
      </trkpt>
      <trkpt lat="42.88639" lon="0.07701">
        <ele>1833</ele>
        <time>2021-03-20T12:45:17.532Z</time>
      </trkpt>
      <trkpt lat="42.88629" lon="0.0771">
        <ele>1820</ele>
        <time>2021-03-20T12:45:22.637Z</time>
      </trkpt>
      <trkpt lat="42.88632" lon="0.07718">
        <ele>1820</ele>
        <time>2021-03-20T12:45:27.527Z</time>
      </trkpt>
      <trkpt lat="42.88634" lon="0.0772">
        <ele>1820</ele>
        <time>2021-03-20T12:45:32.530Z</time>
      </trkpt>
      <trkpt lat="42.88626" lon="0.07729">
        <ele>1820</ele>
        <time>2021-03-20T12:47:20.527Z</time>
      </trkpt>
      <trkpt lat="42.88623" lon="0.07731">
        <ele>1827</ele>
        <time>2021-03-20T12:47:25.744Z</time>
      </trkpt>
      <trkpt lat="42.88617" lon="0.07735">
        <ele>1827</ele>
        <time>2021-03-20T12:47:30.531Z</time>
      </trkpt>
      <trkpt lat="42.88611" lon="0.07736">
        <ele>1819</ele>
        <time>2021-03-20T12:47:35.531Z</time>
      </trkpt>
      <trkpt lat="42.88607" lon="0.07738">
        <ele>1819</ele>
        <time>2021-03-20T12:47:40.602Z</time>
      </trkpt>
      <trkpt lat="42.88607" lon="0.07736">
        <ele>1827</ele>
        <time>2021-03-20T12:48:04.529Z</time>
      </trkpt>
      <trkpt lat="42.88603" lon="0.07741">
        <ele>1819</ele>
        <time>2021-03-20T12:48:09.532Z</time>
      </trkpt>
      <trkpt lat="42.88593" lon="0.07748">
        <ele>1828</ele>
        <time>2021-03-20T12:48:13.613Z</time>
      </trkpt>
      <trkpt lat="42.88589" lon="0.07756">
        <ele>1828</ele>
        <time>2021-03-20T12:48:18.533Z</time>
      </trkpt>
      <trkpt lat="42.88591" lon="0.07759">
        <ele>1828</ele>
        <time>2021-03-20T12:48:23.530Z</time>
      </trkpt>
      <trkpt lat="42.88596" lon="0.07761">
        <ele>1828</ele>
        <time>2021-03-20T12:48:28.529Z</time>
      </trkpt>
      <trkpt lat="42.88601" lon="0.07763">
        <ele>1819</ele>
        <time>2021-03-20T12:48:32.847Z</time>
      </trkpt>
      <trkpt lat="42.88611" lon="0.07767">
        <ele>1810</ele>
        <time>2021-03-20T12:48:37.530Z</time>
      </trkpt>
      <trkpt lat="42.8862" lon="0.0777">
        <ele>1810</ele>
        <time>2021-03-20T12:48:42.553Z</time>
      </trkpt>
      <trkpt lat="42.8863" lon="0.07771">
        <ele>1803</ele>
        <time>2021-03-20T12:48:47.529Z</time>
      </trkpt>
      <trkpt lat="42.88637" lon="0.07774">
        <ele>1803</ele>
        <time>2021-03-20T12:48:52.526Z</time>
      </trkpt>
      <trkpt lat="42.88637" lon="0.07774">
        <ele>1803</ele>
        <time>2021-03-20T12:48:56.658Z</time>
      </trkpt>
      <trkpt lat="42.8864" lon="0.07775">
        <ele>1803</ele>
        <time>2021-03-20T12:49:01.528Z</time>
      </trkpt>
      <trkpt lat="42.88647" lon="0.07782">
        <ele>1803</ele>
        <time>2021-03-20T12:49:26.532Z</time>
      </trkpt>
      <trkpt lat="42.88647" lon="0.07783">
        <ele>1803</ele>
        <time>2021-03-20T12:49:31.527Z</time>
      </trkpt>
      <trkpt lat="42.88646" lon="0.07784">
        <ele>1803</ele>
        <time>2021-03-20T12:49:36.527Z</time>
      </trkpt>
      <trkpt lat="42.88646" lon="0.07785">
        <ele>1803</ele>
        <time>2021-03-20T12:49:41.527Z</time>
      </trkpt>
      <trkpt lat="42.88649" lon="0.0779">
        <ele>1803</ele>
        <time>2021-03-20T12:49:46.689Z</time>
      </trkpt>
      <trkpt lat="42.88653" lon="0.07794">
        <ele>1789</ele>
        <time>2021-03-20T12:51:09.755Z</time>
      </trkpt>
      <trkpt lat="42.8866" lon="0.078">
        <ele>1789</ele>
        <time>2021-03-20T12:51:14.527Z</time>
      </trkpt>
      <trkpt lat="42.88673" lon="0.07808">
        <ele>1789</ele>
        <time>2021-03-20T12:51:19.553Z</time>
      </trkpt>
      <trkpt lat="42.88686" lon="0.07815">
        <ele>1787</ele>
        <time>2021-03-20T12:51:24.597Z</time>
      </trkpt>
      <trkpt lat="42.88696" lon="0.07819">
        <ele>1787</ele>
        <time>2021-03-20T12:51:29.530Z</time>
      </trkpt>
      <trkpt lat="42.88699" lon="0.07817">
        <ele>1787</ele>
        <time>2021-03-20T12:51:34.532Z</time>
      </trkpt>
      <trkpt lat="42.88706" lon="0.07814">
        <ele>1787</ele>
        <time>2021-03-20T12:51:39.532Z</time>
      </trkpt>
      <trkpt lat="42.88711" lon="0.07811">
        <ele>1780</ele>
        <time>2021-03-20T12:51:44.533Z</time>
      </trkpt>
      <trkpt lat="42.88727" lon="0.07805">
        <ele>1780</ele>
        <time>2021-03-20T12:51:49.554Z</time>
      </trkpt>
      <trkpt lat="42.88739" lon="0.07797">
        <ele>1770</ele>
        <time>2021-03-20T12:51:54.580Z</time>
      </trkpt>
      <trkpt lat="42.8875" lon="0.07786">
        <ele>1774</ele>
        <time>2021-03-20T12:51:59.531Z</time>
      </trkpt>
      <trkpt lat="42.88765" lon="0.07775">
        <ele>1762</ele>
        <time>2021-03-20T12:52:04.671Z</time>
      </trkpt>
      <trkpt lat="42.88784" lon="0.07763">
        <ele>1763</ele>
        <time>2021-03-20T12:52:09.528Z</time>
      </trkpt>
      <trkpt lat="42.8879" lon="0.07757">
        <ele>1763</ele>
        <time>2021-03-20T12:52:29.530Z</time>
      </trkpt>
      <trkpt lat="42.88795" lon="0.07757">
        <ele>1762</ele>
        <time>2021-03-20T12:52:34.538Z</time>
      </trkpt>
      <trkpt lat="42.88809" lon="0.07757">
        <ele>1762</ele>
        <time>2021-03-20T12:52:39.529Z</time>
      </trkpt>
      <trkpt lat="42.88824" lon="0.0776">
        <ele>1758</ele>
        <time>2021-03-20T12:52:44.522Z</time>
      </trkpt>
      <trkpt lat="42.88834" lon="0.0776">
        <ele>1758</ele>
        <time>2021-03-20T12:52:48.564Z</time>
      </trkpt>
      <trkpt lat="42.88844" lon="0.07754">
        <ele>1758</ele>
        <time>2021-03-20T12:52:53.533Z</time>
      </trkpt>
      <trkpt lat="42.88853" lon="0.07744">
        <ele>1754</ele>
        <time>2021-03-20T12:52:58.536Z</time>
      </trkpt>
      <trkpt lat="42.88863" lon="0.07743">
        <ele>1754</ele>
        <time>2021-03-20T12:53:03.541Z</time>
      </trkpt>
      <trkpt lat="42.88872" lon="0.07752">
        <ele>1754</ele>
        <time>2021-03-20T12:53:08.537Z</time>
      </trkpt>
      <trkpt lat="42.8888" lon="0.07756">
        <ele>1748</ele>
        <time>2021-03-20T12:55:36.529Z</time>
      </trkpt>
      <trkpt lat="42.8888" lon="0.07756">
        <ele>1748</ele>
        <time>2021-03-20T12:55:41.528Z</time>
      </trkpt>
      <trkpt lat="42.8888" lon="0.07757">
        <ele>1748</ele>
        <time>2021-03-20T12:55:46.534Z</time>
      </trkpt>
      <trkpt lat="42.8888" lon="0.07758">
        <ele>1748</ele>
        <time>2021-03-20T12:55:51.529Z</time>
      </trkpt>
      <trkpt lat="42.8888" lon="0.07761">
        <ele>1748</ele>
        <time>2021-03-20T12:55:56.533Z</time>
      </trkpt>
      <trkpt lat="42.88879" lon="0.07766">
        <ele>1747</ele>
        <time>2021-03-20T12:58:38.526Z</time>
      </trkpt>
      <trkpt lat="42.88878" lon="0.07769">
        <ele>1747</ele>
        <time>2021-03-20T12:58:43.528Z</time>
      </trkpt>
      <trkpt lat="42.88891" lon="0.0777">
        <ele>1747</ele>
        <time>2021-03-20T12:58:48.565Z</time>
      </trkpt>
      <trkpt lat="42.88906" lon="0.07778">
        <ele>1742</ele>
        <time>2021-03-20T12:58:53.529Z</time>
      </trkpt>
      <trkpt lat="42.88923" lon="0.07774">
        <ele>1742</ele>
        <time>2021-03-20T12:58:58.714Z</time>
      </trkpt>
      <trkpt lat="42.88937" lon="0.07793">
        <ele>1733</ele>
        <time>2021-03-20T12:59:03.527Z</time>
      </trkpt>
      <trkpt lat="42.88957" lon="0.07796">
        <ele>1733</ele>
        <time>2021-03-20T12:59:08.533Z</time>
      </trkpt>
      <trkpt lat="42.88969" lon="0.07801">
        <ele>1726</ele>
        <time>2021-03-20T12:59:13.535Z</time>
      </trkpt>
      <trkpt lat="42.88984" lon="0.078">
        <ele>1726</ele>
        <time>2021-03-20T12:59:18.526Z</time>
      </trkpt>
      <trkpt lat="42.88982" lon="0.07818">
        <ele>1726</ele>
        <time>2021-03-20T12:59:23.527Z</time>
      </trkpt>
      <trkpt lat="42.88993" lon="0.0783">
        <ele>1710</ele>
        <time>2021-03-20T12:59:28.532Z</time>
      </trkpt>
      <trkpt lat="42.88991" lon="0.07851">
        <ele>1706</ele>
        <time>2021-03-20T12:59:33.534Z</time>
      </trkpt>
      <trkpt lat="42.89003" lon="0.07853">
        <ele>1706</ele>
        <time>2021-03-20T12:59:38.529Z</time>
      </trkpt>
      <trkpt lat="42.8901" lon="0.07934">
        <ele>1688</ele>
        <time>2021-03-20T13:00:57.538Z</time>
      </trkpt>
      <trkpt lat="42.89016" lon="0.07933">
        <ele>1685</ele>
        <time>2021-03-20T13:01:02.557Z</time>
      </trkpt>
      <trkpt lat="42.89015" lon="0.07942">
        <ele>1685</ele>
        <time>2021-03-20T13:01:07.534Z</time>
      </trkpt>
      <trkpt lat="42.8902" lon="0.07942">
        <ele>1685</ele>
        <time>2021-03-20T13:01:12.530Z</time>
      </trkpt>
      <trkpt lat="42.89026" lon="0.07947">
        <ele>1685</ele>
        <time>2021-03-20T13:01:17.536Z</time>
      </trkpt>
      <trkpt lat="42.8904" lon="0.07967">
        <ele>1676</ele>
        <time>2021-03-20T13:01:37.560Z</time>
      </trkpt>
      <trkpt lat="42.89041" lon="0.07984">
        <ele>1676</ele>
        <time>2021-03-20T13:01:42.527Z</time>
      </trkpt>
      <trkpt lat="42.89056" lon="0.07978">
        <ele>1674</ele>
        <time>2021-03-20T13:01:47.533Z</time>
      </trkpt>
      <trkpt lat="42.89063" lon="0.07972">
        <ele>1674</ele>
        <time>2021-03-20T13:01:52.540Z</time>
      </trkpt>
      <trkpt lat="42.89063" lon="0.07973">
        <ele>1674</ele>
        <time>2021-03-20T13:01:57.529Z</time>
      </trkpt>
      <trkpt lat="42.89064" lon="0.07973">
        <ele>1674</ele>
        <time>2021-03-20T13:02:26.529Z</time>
      </trkpt>
      <trkpt lat="42.89064" lon="0.07973">
        <ele>1674</ele>
        <time>2021-03-20T13:02:30.532Z</time>
      </trkpt>
      <trkpt lat="42.89069" lon="0.07973">
        <ele>1674</ele>
        <time>2021-03-20T13:02:35.533Z</time>
      </trkpt>
      <trkpt lat="42.89071" lon="0.07978">
        <ele>1658</ele>
        <time>2021-03-20T13:02:39.533Z</time>
      </trkpt>
      <trkpt lat="42.89078" lon="0.07978">
        <ele>1658</ele>
        <time>2021-03-20T13:02:44.531Z</time>
      </trkpt>
      <trkpt lat="42.89086" lon="0.07978">
        <ele>1658</ele>
        <time>2021-03-20T13:02:49.530Z</time>
      </trkpt>
      <trkpt lat="42.89095" lon="0.07974">
        <ele>1658</ele>
        <time>2021-03-20T13:02:54.533Z</time>
      </trkpt>
      <trkpt lat="42.89104" lon="0.07973">
        <ele>1638</ele>
        <time>2021-03-20T13:02:59.536Z</time>
      </trkpt>
      <trkpt lat="42.8912" lon="0.07978">
        <ele>1638</ele>
        <time>2021-03-20T13:03:04.532Z</time>
      </trkpt>
      <trkpt lat="42.89128" lon="0.07972">
        <ele>1626</ele>
        <time>2021-03-20T13:03:08.532Z</time>
      </trkpt>
      <trkpt lat="42.89135" lon="0.07972">
        <ele>1626</ele>
        <time>2021-03-20T13:03:13.530Z</time>
      </trkpt>
      <trkpt lat="42.89141" lon="0.0797">
        <ele>1626</ele>
        <time>2021-03-20T13:03:18.533Z</time>
      </trkpt>
      <trkpt lat="42.89146" lon="0.0796">
        <ele>1626</ele>
        <time>2021-03-20T13:03:22.531Z</time>
      </trkpt>
      <trkpt lat="42.89155" lon="0.0795">
        <ele>1615</ele>
        <time>2021-03-20T13:03:27.533Z</time>
      </trkpt>
      <trkpt lat="42.89163" lon="0.07957">
        <ele>1615</ele>
        <time>2021-03-20T13:03:32.545Z</time>
      </trkpt>
      <trkpt lat="42.89171" lon="0.07954">
        <ele>1615</ele>
        <time>2021-03-20T13:03:37.531Z</time>
      </trkpt>
      <trkpt lat="42.8918" lon="0.07942">
        <ele>1615</ele>
        <time>2021-03-20T13:03:42.532Z</time>
      </trkpt>
      <trkpt lat="42.89188" lon="0.07949">
        <ele>1604</ele>
        <time>2021-03-20T13:03:47.532Z</time>
      </trkpt>
      <trkpt lat="42.89188" lon="0.07968">
        <ele>1601</ele>
        <time>2021-03-20T13:03:52.542Z</time>
      </trkpt>
      <trkpt lat="42.89199" lon="0.07967">
        <ele>1601</ele>
        <time>2021-03-20T13:03:57.532Z</time>
      </trkpt>
      <trkpt lat="42.89204" lon="0.07987">
        <ele>1596</ele>
        <time>2021-03-20T13:04:02.530Z</time>
      </trkpt>
      <trkpt lat="42.89219" lon="0.07993">
        <ele>1587</ele>
        <time>2021-03-20T13:04:07.531Z</time>
      </trkpt>
      <trkpt lat="42.89225" lon="0.07998">
        <ele>1587</ele>
        <time>2021-03-20T13:04:12.530Z</time>
      </trkpt>
      <trkpt lat="42.89228" lon="0.07992">
        <ele>1587</ele>
        <time>2021-03-20T13:04:17.529Z</time>
      </trkpt>
      <trkpt lat="42.89228" lon="0.0799">
        <ele>1587</ele>
        <time>2021-03-20T13:04:22.533Z</time>
      </trkpt>
      <trkpt lat="42.89228" lon="0.07989">
        <ele>1587</ele>
        <time>2021-03-20T13:05:35.529Z</time>
      </trkpt>
      <trkpt lat="42.89228" lon="0.07989">
        <ele>1587</ele>
        <time>2021-03-20T13:05:40.563Z</time>
      </trkpt>
      <trkpt lat="42.89228" lon="0.07989">
        <ele>1587</ele>
        <time>2021-03-20T13:05:45.528Z</time>
      </trkpt>
      <trkpt lat="42.89229" lon="0.07988">
        <ele>1587</ele>
        <time>2021-03-20T13:05:50.529Z</time>
      </trkpt>
      <trkpt lat="42.89232" lon="0.08002">
        <ele>1587</ele>
        <time>2021-03-20T13:05:55.533Z</time>
      </trkpt>
      <trkpt lat="42.89241" lon="0.08013">
        <ele>1575</ele>
        <time>2021-03-20T13:06:00.524Z</time>
      </trkpt>
      <trkpt lat="42.89253" lon="0.08012">
        <ele>1575</ele>
        <time>2021-03-20T13:06:05.713Z</time>
      </trkpt>
      <trkpt lat="42.89262" lon="0.08019">
        <ele>1569</ele>
        <time>2021-03-20T13:06:10.533Z</time>
      </trkpt>
      <trkpt lat="42.89274" lon="0.08009">
        <ele>1565</ele>
        <time>2021-03-20T13:06:15.532Z</time>
      </trkpt>
      <trkpt lat="42.89278" lon="0.08029">
        <ele>1560</ele>
        <time>2021-03-20T13:06:20.532Z</time>
      </trkpt>
      <trkpt lat="42.89286" lon="0.08036">
        <ele>1560</ele>
        <time>2021-03-20T13:06:25.525Z</time>
      </trkpt>
      <trkpt lat="42.89297" lon="0.08016">
        <ele>1551</ele>
        <time>2021-03-20T13:06:30.530Z</time>
      </trkpt>
      <trkpt lat="42.89303" lon="0.08034">
        <ele>1551</ele>
        <time>2021-03-20T13:06:34.530Z</time>
      </trkpt>
      <trkpt lat="42.89314" lon="0.08027">
        <ele>1551</ele>
        <time>2021-03-20T13:06:39.528Z</time>
      </trkpt>
      <trkpt lat="42.89319" lon="0.08015">
        <ele>1541</ele>
        <time>2021-03-20T13:06:43.529Z</time>
      </trkpt>
      <trkpt lat="42.89337" lon="0.08017">
        <ele>1541</ele>
        <time>2021-03-20T13:06:48.522Z</time>
      </trkpt>
      <trkpt lat="42.89346" lon="0.08008">
        <ele>1544</ele>
        <time>2021-03-20T13:06:53.732Z</time>
      </trkpt>
      <trkpt lat="42.89359" lon="0.07977">
        <ele>1536</ele>
        <time>2021-03-20T13:06:58.527Z</time>
      </trkpt>
      <trkpt lat="42.89374" lon="0.07972">
        <ele>1536</ele>
        <time>2021-03-20T13:07:03.530Z</time>
      </trkpt>
      <trkpt lat="42.89393" lon="0.0798">
        <ele>1527</ele>
        <time>2021-03-20T13:07:08.769Z</time>
      </trkpt>
      <trkpt lat="42.89403" lon="0.07964">
        <ele>1527</ele>
        <time>2021-03-20T13:07:13.526Z</time>
      </trkpt>
      <trkpt lat="42.89413" lon="0.07937">
        <ele>1521</ele>
        <time>2021-03-20T13:07:18.526Z</time>
      </trkpt>
      <trkpt lat="42.89425" lon="0.07915">
        <ele>1522</ele>
        <time>2021-03-20T13:07:22.558Z</time>
      </trkpt>
      <trkpt lat="42.89437" lon="0.07905">
        <ele>1513</ele>
        <time>2021-03-20T13:07:27.522Z</time>
      </trkpt>
      <trkpt lat="42.89443" lon="0.07898">
        <ele>1509</ele>
        <time>2021-03-20T13:07:32.530Z</time>
      </trkpt>
      <trkpt lat="42.89444" lon="0.07895">
        <ele>1509</ele>
        <time>2021-03-20T13:08:00.541Z</time>
      </trkpt>
      <trkpt lat="42.89445" lon="0.07894">
        <ele>1509</ele>
        <time>2021-03-20T13:08:05.529Z</time>
      </trkpt>
      <trkpt lat="42.89449" lon="0.07891">
        <ele>1509</ele>
        <time>2021-03-20T13:08:10.529Z</time>
      </trkpt>
      <trkpt lat="42.89452" lon="0.07887">
        <ele>1509</ele>
        <time>2021-03-20T13:08:15.528Z</time>
      </trkpt>
      <trkpt lat="42.89454" lon="0.07886">
        <ele>1509</ele>
        <time>2021-03-20T13:08:20.558Z</time>
      </trkpt>
      <trkpt lat="42.89459" lon="0.07884">
        <ele>1507</ele>
        <time>2021-03-20T13:08:40.527Z</time>
      </trkpt>
      <trkpt lat="42.89461" lon="0.07882">
        <ele>1507</ele>
        <time>2021-03-20T13:08:45.517Z</time>
      </trkpt>
      <trkpt lat="42.89466" lon="0.07879">
        <ele>1507</ele>
        <time>2021-03-20T13:08:50.531Z</time>
      </trkpt>
      <trkpt lat="42.89466" lon="0.07878">
        <ele>1507</ele>
        <time>2021-03-20T13:08:55.535Z</time>
      </trkpt>
      <trkpt lat="42.89467" lon="0.07877">
        <ele>1507</ele>
        <time>2021-03-20T13:08:59.538Z</time>
      </trkpt>
      <trkpt lat="42.89474" lon="0.07884">
        <ele>1507</ele>
        <time>2021-03-20T13:10:18.528Z</time>
      </trkpt>
      <trkpt lat="42.89475" lon="0.07884">
        <ele>1507</ele>
        <time>2021-03-20T13:10:23.532Z</time>
      </trkpt>
      <trkpt lat="42.89475" lon="0.07884">
        <ele>1507</ele>
        <time>2021-03-20T13:10:28.529Z</time>
      </trkpt>
      <trkpt lat="42.89476" lon="0.07884">
        <ele>1507</ele>
        <time>2021-03-20T13:10:32.529Z</time>
      </trkpt>
      <trkpt lat="42.89476" lon="0.07884">
        <ele>1507</ele>
        <time>2021-03-20T13:10:37.532Z</time>
      </trkpt>
      <trkpt lat="42.89484" lon="0.07889">
        <ele>1507</ele>
        <time>2021-03-20T13:42:53.533Z</time>
      </trkpt>
      <trkpt lat="42.89488" lon="0.07886">
        <ele>1506</ele>
        <time>2021-03-20T13:42:58.529Z</time>
      </trkpt>
      <trkpt lat="42.89491" lon="0.07886">
        <ele>1506</ele>
        <time>2021-03-20T13:43:02.532Z</time>
      </trkpt>
      <trkpt lat="42.89495" lon="0.07885">
        <ele>1506</ele>
        <time>2021-03-20T13:43:07.578Z</time>
      </trkpt>
      <trkpt lat="42.89499" lon="0.07882">
        <ele>1506</ele>
        <time>2021-03-20T13:43:12.529Z</time>
      </trkpt>
      <trkpt lat="42.89502" lon="0.07884">
        <ele>1506</ele>
        <time>2021-03-20T13:44:39.640Z</time>
      </trkpt>
      <trkpt lat="42.89502" lon="0.07884">
        <ele>1506</ele>
        <time>2021-03-20T13:44:44.529Z</time>
      </trkpt>
      <trkpt lat="42.89504" lon="0.07882">
        <ele>1506</ele>
        <time>2021-03-20T13:44:49.529Z</time>
      </trkpt>
      <trkpt lat="42.89506" lon="0.07875">
        <ele>1506</ele>
        <time>2021-03-20T13:44:54.536Z</time>
      </trkpt>
      <trkpt lat="42.89508" lon="0.07868">
        <ele>1505</ele>
        <time>2021-03-20T13:44:59.677Z</time>
      </trkpt>
      <trkpt lat="42.89512" lon="0.07862">
        <ele>1505</ele>
        <time>2021-03-20T13:45:04.529Z</time>
      </trkpt>
      <trkpt lat="42.89515" lon="0.07855">
        <ele>1501</ele>
        <time>2021-03-20T13:45:09.563Z</time>
      </trkpt>
      <trkpt lat="42.89516" lon="0.07851">
        <ele>1501</ele>
        <time>2021-03-20T13:45:14.531Z</time>
      </trkpt>
      <trkpt lat="42.89518" lon="0.07848">
        <ele>1501</ele>
        <time>2021-03-20T13:45:18.533Z</time>
      </trkpt>
      <trkpt lat="42.89523" lon="0.07843">
        <ele>1504</ele>
        <time>2021-03-20T13:45:23.531Z</time>
      </trkpt>
      <trkpt lat="42.89526" lon="0.07841">
        <ele>1504</ele>
        <time>2021-03-20T13:45:28.556Z</time>
      </trkpt>
      <trkpt lat="42.89527" lon="0.0784">
        <ele>1504</ele>
        <time>2021-03-20T13:45:33.530Z</time>
      </trkpt>
      <trkpt lat="42.89527" lon="0.0784">
        <ele>1504</ele>
        <time>2021-03-20T13:45:38.530Z</time>
      </trkpt>
      <trkpt lat="42.8953" lon="0.07834">
        <ele>1504</ele>
        <time>2021-03-20T13:45:43.533Z</time>
      </trkpt>
      <trkpt lat="42.89533" lon="0.07823">
        <ele>1504</ele>
        <time>2021-03-20T13:45:48.536Z</time>
      </trkpt>
      <trkpt lat="42.89534" lon="0.07816">
        <ele>1510</ele>
        <time>2021-03-20T13:45:53.537Z</time>
      </trkpt>
      <trkpt lat="42.89535" lon="0.0781">
        <ele>1510</ele>
        <time>2021-03-20T13:45:58.561Z</time>
      </trkpt>
      <trkpt lat="42.89544" lon="0.07807">
        <ele>1496</ele>
        <time>2021-03-20T13:46:03.534Z</time>
      </trkpt>
      <trkpt lat="42.89551" lon="0.078">
        <ele>1496</ele>
        <time>2021-03-20T13:46:08.531Z</time>
      </trkpt>
      <trkpt lat="42.89556" lon="0.07787">
        <ele>1497</ele>
        <time>2021-03-20T13:46:13.532Z</time>
      </trkpt>
      <trkpt lat="42.89558" lon="0.07775">
        <ele>1497</ele>
        <time>2021-03-20T13:46:18.533Z</time>
      </trkpt>
      <trkpt lat="42.8956" lon="0.07764">
        <ele>1497</ele>
        <time>2021-03-20T13:46:23.531Z</time>
      </trkpt>
      <trkpt lat="42.89562" lon="0.07752">
        <ele>1494</ele>
        <time>2021-03-20T13:46:28.558Z</time>
      </trkpt>
      <trkpt lat="42.89565" lon="0.07743">
        <ele>1494</ele>
        <time>2021-03-20T13:46:33.533Z</time>
      </trkpt>
      <trkpt lat="42.89567" lon="0.07736">
        <ele>1492</ele>
        <time>2021-03-20T13:46:37.532Z</time>
      </trkpt>
      <trkpt lat="42.8957" lon="0.07729">
        <ele>1477</ele>
        <time>2021-03-20T13:46:41.572Z</time>
      </trkpt>
      <trkpt lat="42.89574" lon="0.0772">
        <ele>1477</ele>
        <time>2021-03-20T13:46:46.521Z</time>
      </trkpt>
      <trkpt lat="42.89575" lon="0.07714">
        <ele>1477</ele>
        <time>2021-03-20T13:46:50.550Z</time>
      </trkpt>
      <trkpt lat="42.8958" lon="0.077">
        <ele>1476</ele>
        <time>2021-03-20T13:46:55.539Z</time>
      </trkpt>
      <trkpt lat="42.89584" lon="0.07687">
        <ele>1476</ele>
        <time>2021-03-20T13:47:00.532Z</time>
      </trkpt>
      <trkpt lat="42.89589" lon="0.07672">
        <ele>1477</ele>
        <time>2021-03-20T13:47:05.531Z</time>
      </trkpt>
      <trkpt lat="42.8959" lon="0.07663">
        <ele>1477</ele>
        <time>2021-03-20T13:47:10.536Z</time>
      </trkpt>
      <trkpt lat="42.8959" lon="0.07653">
        <ele>1477</ele>
        <time>2021-03-20T13:47:15.564Z</time>
      </trkpt>
      <trkpt lat="42.89594" lon="0.07641">
        <ele>1480</ele>
        <time>2021-03-20T13:47:20.530Z</time>
      </trkpt>
      <trkpt lat="42.89592" lon="0.07637">
        <ele>1480</ele>
        <time>2021-03-20T13:47:25.530Z</time>
      </trkpt>
      <trkpt lat="42.89601" lon="0.07635">
        <ele>1463</ele>
        <time>2021-03-20T13:47:30.531Z</time>
      </trkpt>
      <trkpt lat="42.89601" lon="0.07624">
        <ele>1462</ele>
        <time>2021-03-20T13:47:35.529Z</time>
      </trkpt>
      <trkpt lat="42.89605" lon="0.07615">
        <ele>1462</ele>
        <time>2021-03-20T13:47:40.538Z</time>
      </trkpt>
      <trkpt lat="42.89604" lon="0.07603">
        <ele>1462</ele>
        <time>2021-03-20T13:47:45.530Z</time>
      </trkpt>
      <trkpt lat="42.89606" lon="0.07588">
        <ele>1455</ele>
        <time>2021-03-20T13:47:50.531Z</time>
      </trkpt>
      <trkpt lat="42.89608" lon="0.07578">
        <ele>1455</ele>
        <time>2021-03-20T13:47:55.565Z</time>
      </trkpt>
      <trkpt lat="42.89612" lon="0.07563">
        <ele>1451</ele>
        <time>2021-03-20T13:48:00.530Z</time>
      </trkpt>
      <trkpt lat="42.89616" lon="0.07551">
        <ele>1451</ele>
        <time>2021-03-20T13:48:04.534Z</time>
      </trkpt>
      <trkpt lat="42.89621" lon="0.07532">
        <ele>1446</ele>
        <time>2021-03-20T13:48:09.538Z</time>
      </trkpt>
      <trkpt lat="42.89618" lon="0.07522">
        <ele>1446</ele>
        <time>2021-03-20T13:48:13.530Z</time>
      </trkpt>
      <trkpt lat="42.89617" lon="0.0751">
        <ele>1444</ele>
        <time>2021-03-20T13:48:18.527Z</time>
      </trkpt>
      <trkpt lat="42.89617" lon="0.07502">
        <ele>1444</ele>
        <time>2021-03-20T13:48:23.530Z</time>
      </trkpt>
      <trkpt lat="42.89617" lon="0.075">
        <ele>1444</ele>
        <time>2021-03-20T13:48:28.535Z</time>
      </trkpt>
      <trkpt lat="42.89617" lon="0.07498">
        <ele>1444</ele>
        <time>2021-03-20T13:48:33.529Z</time>
      </trkpt>
      <trkpt lat="42.89622" lon="0.07485">
        <ele>1442</ele>
        <time>2021-03-20T13:48:38.534Z</time>
      </trkpt>
      <trkpt lat="42.89623" lon="0.07481">
        <ele>1442</ele>
        <time>2021-03-20T13:48:42.527Z</time>
      </trkpt>
      <trkpt lat="42.89624" lon="0.07476">
        <ele>1442</ele>
        <time>2021-03-20T13:48:47.533Z</time>
      </trkpt>
      <trkpt lat="42.89627" lon="0.07469">
        <ele>1424</ele>
        <time>2021-03-20T13:48:52.531Z</time>
      </trkpt>
      <trkpt lat="42.89629" lon="0.07457">
        <ele>1425</ele>
        <time>2021-03-20T13:48:57.535Z</time>
      </trkpt>
      <trkpt lat="42.89632" lon="0.07449">
        <ele>1425</ele>
        <time>2021-03-20T13:49:02.540Z</time>
      </trkpt>
      <trkpt lat="42.89637" lon="0.07441">
        <ele>1425</ele>
        <time>2021-03-20T13:49:06.560Z</time>
      </trkpt>
      <trkpt lat="42.89639" lon="0.0743">
        <ele>1425</ele>
        <time>2021-03-20T13:49:11.531Z</time>
      </trkpt>
      <trkpt lat="42.89638" lon="0.07418">
        <ele>1425</ele>
        <time>2021-03-20T13:49:16.533Z</time>
      </trkpt>
      <trkpt lat="42.89638" lon="0.07405">
        <ele>1425</ele>
        <time>2021-03-20T13:49:21.530Z</time>
      </trkpt>
      <trkpt lat="42.89641" lon="0.07384">
        <ele>1424</ele>
        <time>2021-03-20T13:49:26.531Z</time>
      </trkpt>
      <trkpt lat="42.89645" lon="0.07363">
        <ele>1422</ele>
        <time>2021-03-20T13:49:31.525Z</time>
      </trkpt>
      <trkpt lat="42.89646" lon="0.07337">
        <ele>1422</ele>
        <time>2021-03-20T13:49:36.515Z</time>
      </trkpt>
      <trkpt lat="42.89651" lon="0.07316">
        <ele>1419</ele>
        <time>2021-03-20T13:49:41.525Z</time>
      </trkpt>
      <trkpt lat="42.89651" lon="0.07298">
        <ele>1419</ele>
        <time>2021-03-20T13:49:46.528Z</time>
      </trkpt>
      <trkpt lat="42.89648" lon="0.07291">
        <ele>1410</ele>
        <time>2021-03-20T13:49:51.532Z</time>
      </trkpt>
      <trkpt lat="42.8965" lon="0.07275">
        <ele>1410</ele>
        <time>2021-03-20T13:49:56.528Z</time>
      </trkpt>
      <trkpt lat="42.89651" lon="0.07254">
        <ele>1405</ele>
        <time>2021-03-20T13:50:00.665Z</time>
      </trkpt>
      <trkpt lat="42.89654" lon="0.07223">
        <ele>1377</ele>
        <time>2021-03-20T13:50:05.532Z</time>
      </trkpt>
      <trkpt lat="42.89654" lon="0.07199">
        <ele>1373</ele>
        <time>2021-03-20T13:50:10.529Z</time>
      </trkpt>
      <trkpt lat="42.8966" lon="0.07174">
        <ele>1369</ele>
        <time>2021-03-20T13:50:15.527Z</time>
      </trkpt>
      <trkpt lat="42.89652" lon="0.07138">
        <ele>1396</ele>
        <time>2021-03-20T13:51:37.533Z</time>
      </trkpt>
      <trkpt lat="42.89652" lon="0.07138">
        <ele>1396</ele>
        <time>2021-03-20T13:51:42.527Z</time>
      </trkpt>
      <trkpt lat="42.89652" lon="0.07138">
        <ele>1396</ele>
        <time>2021-03-20T13:51:47.527Z</time>
      </trkpt>
      <trkpt lat="42.89652" lon="0.07138">
        <ele>1396</ele>
        <time>2021-03-20T13:51:52.528Z</time>
      </trkpt>
      <trkpt lat="42.89652" lon="0.07134">
        <ele>1396</ele>
        <time>2021-03-20T13:51:57.529Z</time>
      </trkpt>
      <trkpt lat="42.89663" lon="0.07139">
        <ele>1361</ele>
        <time>2021-03-20T13:52:02.557Z</time>
      </trkpt>
      <trkpt lat="42.89672" lon="0.07151">
        <ele>1361</ele>
        <time>2021-03-20T13:52:07.538Z</time>
      </trkpt>
      <trkpt lat="42.89682" lon="0.07153">
        <ele>1350</ele>
        <time>2021-03-20T13:52:12.527Z</time>
      </trkpt>
      <trkpt lat="42.897" lon="0.07158">
        <ele>1350</ele>
        <time>2021-03-20T13:52:17.539Z</time>
      </trkpt>
      <trkpt lat="42.89711" lon="0.07175">
        <ele>1338</ele>
        <time>2021-03-20T13:52:22.535Z</time>
      </trkpt>
      <trkpt lat="42.89723" lon="0.07193">
        <ele>1338</ele>
        <time>2021-03-20T13:52:27.527Z</time>
      </trkpt>
      <trkpt lat="42.89732" lon="0.07203">
        <ele>1338</ele>
        <time>2021-03-20T13:52:32.564Z</time>
      </trkpt>
      <trkpt lat="42.89738" lon="0.07205">
        <ele>1332</ele>
        <time>2021-03-20T13:52:37.528Z</time>
      </trkpt>
      <trkpt lat="42.8975" lon="0.07222">
        <ele>1335</ele>
        <time>2021-03-20T13:52:42.531Z</time>
      </trkpt>
      <trkpt lat="42.89757" lon="0.07234">
        <ele>1335</ele>
        <time>2021-03-20T13:52:47.530Z</time>
      </trkpt>
      <trkpt lat="42.89763" lon="0.07252">
        <ele>1342</ele>
        <time>2021-03-20T13:52:52.531Z</time>
      </trkpt>
      <trkpt lat="42.89767" lon="0.07264">
        <ele>1333</ele>
        <time>2021-03-20T13:52:57.534Z</time>
      </trkpt>
      <trkpt lat="42.8977" lon="0.07271">
        <ele>1338</ele>
        <time>2021-03-20T13:53:02.522Z</time>
      </trkpt>
      <trkpt lat="42.89775" lon="0.07279">
        <ele>1338</ele>
        <time>2021-03-20T13:53:07.555Z</time>
      </trkpt>
      <trkpt lat="42.89778" lon="0.07289">
        <ele>1338</ele>
        <time>2021-03-20T13:53:12.533Z</time>
      </trkpt>
      <trkpt lat="42.8978" lon="0.07295">
        <ele>1338</ele>
        <time>2021-03-20T13:53:17.529Z</time>
      </trkpt>
      <trkpt lat="42.89784" lon="0.073">
        <ele>1338</ele>
        <time>2021-03-20T13:53:22.529Z</time>
      </trkpt>
      <trkpt lat="42.8979" lon="0.07308">
        <ele>1338</ele>
        <time>2021-03-20T13:53:27.529Z</time>
      </trkpt>
      <trkpt lat="42.89797" lon="0.07317">
        <ele>1326</ele>
        <time>2021-03-20T13:53:32.528Z</time>
      </trkpt>
      <trkpt lat="42.89797" lon="0.07318">
        <ele>1326</ele>
        <time>2021-03-20T13:53:37.531Z</time>
      </trkpt>
      <trkpt lat="42.89801" lon="0.0733">
        <ele>1330</ele>
        <time>2021-03-20T13:55:31.531Z</time>
      </trkpt>
      <trkpt lat="42.89802" lon="0.07331">
        <ele>1330</ele>
        <time>2021-03-20T13:55:36.535Z</time>
      </trkpt>
      <trkpt lat="42.89802" lon="0.07331">
        <ele>1330</ele>
        <time>2021-03-20T13:55:41.534Z</time>
      </trkpt>
      <trkpt lat="42.89802" lon="0.07332">
        <ele>1330</ele>
        <time>2021-03-20T13:55:46.527Z</time>
      </trkpt>
      <trkpt lat="42.89802" lon="0.07332">
        <ele>1330</ele>
        <time>2021-03-20T13:55:51.530Z</time>
      </trkpt>
      <trkpt lat="42.898" lon="0.07334">
        <ele>1330</ele>
        <time>2021-03-20T13:57:19.531Z</time>
      </trkpt>
      <trkpt lat="42.89802" lon="0.0734">
        <ele>1330</ele>
        <time>2021-03-20T13:57:23.666Z</time>
      </trkpt>
      <trkpt lat="42.89804" lon="0.07349">
        <ele>1335</ele>
        <time>2021-03-20T13:57:28.535Z</time>
      </trkpt>
      <trkpt lat="42.89804" lon="0.07356">
        <ele>1335</ele>
        <time>2021-03-20T13:57:33.533Z</time>
      </trkpt>
      <trkpt lat="42.89806" lon="0.07367">
        <ele>1335</ele>
        <time>2021-03-20T13:57:38.530Z</time>
      </trkpt>
      <trkpt lat="42.89807" lon="0.07375">
        <ele>1335</ele>
        <time>2021-03-20T13:57:42.789Z</time>
      </trkpt>
      <trkpt lat="42.8981" lon="0.07383">
        <ele>1334</ele>
        <time>2021-03-20T13:57:47.530Z</time>
      </trkpt>
      <trkpt lat="42.89813" lon="0.07392">
        <ele>1334</ele>
        <time>2021-03-20T13:57:52.532Z</time>
      </trkpt>
      <trkpt lat="42.89813" lon="0.07401">
        <ele>1334</ele>
        <time>2021-03-20T13:57:57.659Z</time>
      </trkpt>
      <trkpt lat="42.89812" lon="0.07409">
        <ele>1334</ele>
        <time>2021-03-20T13:58:02.529Z</time>
      </trkpt>
      <trkpt lat="42.89812" lon="0.07415">
        <ele>1334</ele>
        <time>2021-03-20T13:58:06.779Z</time>
      </trkpt>
      <trkpt lat="42.89813" lon="0.07425">
        <ele>1334</ele>
        <time>2021-03-20T13:58:11.528Z</time>
      </trkpt>
      <trkpt lat="42.89814" lon="0.07434">
        <ele>1333</ele>
        <time>2021-03-20T13:58:16.528Z</time>
      </trkpt>
      <trkpt lat="42.89815" lon="0.07443">
        <ele>1333</ele>
        <time>2021-03-20T13:58:21.528Z</time>
      </trkpt>
      <trkpt lat="42.89813" lon="0.07452">
        <ele>1333</ele>
        <time>2021-03-20T13:58:26.529Z</time>
      </trkpt>
      <trkpt lat="42.89811" lon="0.0746">
        <ele>1333</ele>
        <time>2021-03-20T13:58:31.529Z</time>
      </trkpt>
      <trkpt lat="42.89811" lon="0.07468">
        <ele>1333</ele>
        <time>2021-03-20T13:58:36.527Z</time>
      </trkpt>
      <trkpt lat="42.89811" lon="0.07475">
        <ele>1333</ele>
        <time>2021-03-20T13:58:41.770Z</time>
      </trkpt>
      <trkpt lat="42.89813" lon="0.07481">
        <ele>1333</ele>
        <time>2021-03-20T13:58:46.529Z</time>
      </trkpt>
      <trkpt lat="42.89815" lon="0.07488">
        <ele>1334</ele>
        <time>2021-03-20T13:58:51.526Z</time>
      </trkpt>
      <trkpt lat="42.89817" lon="0.07493">
        <ele>1334</ele>
        <time>2021-03-20T13:58:55.770Z</time>
      </trkpt>
      <trkpt lat="42.89821" lon="0.07493">
        <ele>1329</ele>
        <time>2021-03-20T13:59:00.528Z</time>
      </trkpt>
      <trkpt lat="42.89825" lon="0.07496">
        <ele>1329</ele>
        <time>2021-03-20T13:59:05.534Z</time>
      </trkpt>
      <trkpt lat="42.89826" lon="0.07503">
        <ele>1329</ele>
        <time>2021-03-20T13:59:10.712Z</time>
      </trkpt>
      <trkpt lat="42.89828" lon="0.07509">
        <ele>1329</ele>
        <time>2021-03-20T13:59:15.533Z</time>
      </trkpt>
      <trkpt lat="42.89824" lon="0.07515">
        <ele>1330</ele>
        <time>2021-03-20T13:59:20.531Z</time>
      </trkpt>
      <trkpt lat="42.89826" lon="0.07521">
        <ele>1330</ele>
        <time>2021-03-20T13:59:25.532Z</time>
      </trkpt>
      <trkpt lat="42.89829" lon="0.07527">
        <ele>1330</ele>
        <time>2021-03-20T13:59:30.528Z</time>
      </trkpt>
      <trkpt lat="42.89833" lon="0.07531">
        <ele>1330</ele>
        <time>2021-03-20T13:59:34.672Z</time>
      </trkpt>
      <trkpt lat="42.89834" lon="0.07535">
        <ele>1330</ele>
        <time>2021-03-20T13:59:39.530Z</time>
      </trkpt>
      <trkpt lat="42.89838" lon="0.0754">
        <ele>1330</ele>
        <time>2021-03-20T13:59:44.540Z</time>
      </trkpt>
      <trkpt lat="42.89843" lon="0.07545">
        <ele>1332</ele>
        <time>2021-03-20T13:59:49.534Z</time>
      </trkpt>
      <trkpt lat="42.89847" lon="0.07546">
        <ele>1332</ele>
        <time>2021-03-20T13:59:54.531Z</time>
      </trkpt>
      <trkpt lat="42.89848" lon="0.07554">
        <ele>1323</ele>
        <time>2021-03-20T13:59:59.528Z</time>
      </trkpt>
      <trkpt lat="42.89849" lon="0.07561">
        <ele>1323</ele>
        <time>2021-03-20T14:00:03.780Z</time>
      </trkpt>
      <trkpt lat="42.89847" lon="0.07569">
        <ele>1332</ele>
        <time>2021-03-20T14:00:08.532Z</time>
      </trkpt>
      <trkpt lat="42.89845" lon="0.07576">
        <ele>1337</ele>
        <time>2021-03-20T14:00:13.538Z</time>
      </trkpt>
      <trkpt lat="42.89846" lon="0.07584">
        <ele>1337</ele>
        <time>2021-03-20T14:00:18.577Z</time>
      </trkpt>
      <trkpt lat="42.89849" lon="0.07585">
        <ele>1326</ele>
        <time>2021-03-20T14:00:23.527Z</time>
      </trkpt>
      <trkpt lat="42.8985" lon="0.07588">
        <ele>1326</ele>
        <time>2021-03-20T14:00:28.531Z</time>
      </trkpt>
      <trkpt lat="42.89852" lon="0.07595">
        <ele>1326</ele>
        <time>2021-03-20T14:00:33.534Z</time>
      </trkpt>
      <trkpt lat="42.89848" lon="0.076">
        <ele>1328</ele>
        <time>2021-03-20T14:00:38.534Z</time>
      </trkpt>
      <trkpt lat="42.89846" lon="0.07608">
        <ele>1340</ele>
        <time>2021-03-20T14:00:43.532Z</time>
      </trkpt>
      <trkpt lat="42.89848" lon="0.07615">
        <ele>1328</ele>
        <time>2021-03-20T14:00:48.538Z</time>
      </trkpt>
      <trkpt lat="42.89849" lon="0.07621">
        <ele>1328</ele>
        <time>2021-03-20T14:00:52.535Z</time>
      </trkpt>
      <trkpt lat="42.89854" lon="0.07631">
        <ele>1330</ele>
        <time>2021-03-20T14:00:57.535Z</time>
      </trkpt>
      <trkpt lat="42.89859" lon="0.07638">
        <ele>1330</ele>
        <time>2021-03-20T14:01:02.535Z</time>
      </trkpt>
      <trkpt lat="42.89863" lon="0.0764">
        <ele>1330</ele>
        <time>2021-03-20T14:01:07.533Z</time>
      </trkpt>
      <trkpt lat="42.89863" lon="0.07646">
        <ele>1330</ele>
        <time>2021-03-20T14:01:12.534Z</time>
      </trkpt>
      <trkpt lat="42.89864" lon="0.07652">
        <ele>1330</ele>
        <time>2021-03-20T14:01:17.539Z</time>
      </trkpt>
      <trkpt lat="42.89867" lon="0.07655">
        <ele>1332</ele>
        <time>2021-03-20T14:01:22.540Z</time>
      </trkpt>
      <trkpt lat="42.89872" lon="0.07655">
        <ele>1332</ele>
        <time>2021-03-20T14:01:27.534Z</time>
      </trkpt>
      <trkpt lat="42.89877" lon="0.07655">
        <ele>1322</ele>
        <time>2021-03-20T14:01:32.569Z</time>
      </trkpt>
      <trkpt lat="42.8988" lon="0.07659">
        <ele>1322</ele>
        <time>2021-03-20T14:01:37.535Z</time>
      </trkpt>
      <trkpt lat="42.89885" lon="0.0766">
        <ele>1322</ele>
        <time>2021-03-20T14:01:42.543Z</time>
      </trkpt>
      <trkpt lat="42.8989" lon="0.07656">
        <ele>1322</ele>
        <time>2021-03-20T14:01:47.535Z</time>
      </trkpt>
      <trkpt lat="42.89893" lon="0.07651">
        <ele>1319</ele>
        <time>2021-03-20T14:01:52.532Z</time>
      </trkpt>
      <trkpt lat="42.89893" lon="0.07642">
        <ele>1319</ele>
        <time>2021-03-20T14:01:57.538Z</time>
      </trkpt>
      <trkpt lat="42.89891" lon="0.07632">
        <ele>1319</ele>
        <time>2021-03-20T14:02:02.533Z</time>
      </trkpt>
      <trkpt lat="42.89891" lon="0.07623">
        <ele>1317</ele>
        <time>2021-03-20T14:02:07.537Z</time>
      </trkpt>
      <trkpt lat="42.8989" lon="0.07614">
        <ele>1317</ele>
        <time>2021-03-20T14:02:12.533Z</time>
      </trkpt>
      <trkpt lat="42.89885" lon="0.07605">
        <ele>1317</ele>
        <time>2021-03-20T14:02:17.537Z</time>
      </trkpt>
      <trkpt lat="42.89881" lon="0.07595">
        <ele>1312</ele>
        <time>2021-03-20T14:02:22.538Z</time>
      </trkpt>
      <trkpt lat="42.89882" lon="0.07589">
        <ele>1312</ele>
        <time>2021-03-20T14:02:26.535Z</time>
      </trkpt>
      <trkpt lat="42.89883" lon="0.07581">
        <ele>1312</ele>
        <time>2021-03-20T14:02:31.538Z</time>
      </trkpt>
      <trkpt lat="42.89885" lon="0.07574">
        <ele>1312</ele>
        <time>2021-03-20T14:02:36.538Z</time>
      </trkpt>
      <trkpt lat="42.89889" lon="0.07568">
        <ele>1308</ele>
        <time>2021-03-20T14:02:41.539Z</time>
      </trkpt>
      <trkpt lat="42.89894" lon="0.07563">
        <ele>1308</ele>
        <time>2021-03-20T14:02:46.533Z</time>
      </trkpt>
      <trkpt lat="42.89903" lon="0.07564">
        <ele>1301</ele>
        <time>2021-03-20T14:02:51.536Z</time>
      </trkpt>
      <trkpt lat="42.89913" lon="0.07569">
        <ele>1301</ele>
        <time>2021-03-20T14:03:50.539Z</time>
      </trkpt>
      <trkpt lat="42.89913" lon="0.07569">
        <ele>1301</ele>
        <time>2021-03-20T14:03:55.541Z</time>
      </trkpt>
      <trkpt lat="42.8991" lon="0.07567">
        <ele>1301</ele>
        <time>2021-03-20T14:04:00.535Z</time>
      </trkpt>
      <trkpt lat="42.89907" lon="0.07561">
        <ele>1301</ele>
        <time>2021-03-20T14:04:05.542Z</time>
      </trkpt>
      <trkpt lat="42.89904" lon="0.07561">
        <ele>1301</ele>
        <time>2021-03-20T14:04:09.537Z</time>
      </trkpt>
      <trkpt lat="42.89907" lon="0.07575">
        <ele>1306</ele>
        <time>2021-03-20T14:04:19.540Z</time>
      </trkpt>
      <trkpt lat="42.89908" lon="0.07574">
        <ele>1306</ele>
        <time>2021-03-20T14:04:24.536Z</time>
      </trkpt>
      <trkpt lat="42.89908" lon="0.07575">
        <ele>1306</ele>
        <time>2021-03-20T14:04:29.538Z</time>
      </trkpt>
      <trkpt lat="42.89911" lon="0.07576">
        <ele>1306</ele>
        <time>2021-03-20T14:04:34.567Z</time>
      </trkpt>
      <trkpt lat="42.89912" lon="0.07576">
        <ele>1306</ele>
        <time>2021-03-20T14:04:39.540Z</time>
      </trkpt>
      <trkpt lat="42.89911" lon="0.07575">
        <ele>1306</ele>
        <time>2021-03-20T14:06:57.529Z</time>
      </trkpt>
      <trkpt lat="42.8991" lon="0.07572">
        <ele>1306</ele>
        <time>2021-03-20T14:07:02.533Z</time>
      </trkpt>
      <trkpt lat="42.89912" lon="0.07568">
        <ele>1301</ele>
        <time>2021-03-20T14:07:06.606Z</time>
      </trkpt>
      <trkpt lat="42.89908" lon="0.07564">
        <ele>1301</ele>
        <time>2021-03-20T14:07:11.533Z</time>
      </trkpt>
      <trkpt lat="42.89909" lon="0.07559">
        <ele>1301</ele>
        <time>2021-03-20T14:07:16.555Z</time>
      </trkpt>
      <trkpt lat="42.89907" lon="0.07562">
        <ele>1301</ele>
        <time>2021-03-20T14:08:53.546Z</time>
      </trkpt>
      <trkpt lat="42.89908" lon="0.07565">
        <ele>1301</ele>
        <time>2021-03-20T14:08:57.543Z</time>
      </trkpt>
      <trkpt lat="42.89908" lon="0.07571">
        <ele>1306</ele>
        <time>2021-03-20T14:09:03.253Z</time>
      </trkpt>
      <trkpt lat="42.89905" lon="0.07571">
        <ele>1306</ele>
        <time>2021-03-20T14:09:07.574Z</time>
      </trkpt>
      <trkpt lat="42.89904" lon="0.07571">
        <ele>1306</ele>
        <time>2021-03-20T14:09:12.532Z</time>
      </trkpt>
      <trkpt lat="42.89902" lon="0.07566">
        <ele>1308</ele>
        <time>2021-03-20T14:12:30.576Z</time>
      </trkpt>
      <trkpt lat="42.89902" lon="0.07565">
        <ele>1308</ele>
        <time>2021-03-20T14:12:34.589Z</time>
      </trkpt>
      <trkpt lat="42.89906" lon="0.07561">
        <ele>1301</ele>
        <time>2021-03-20T14:12:39.532Z</time>
      </trkpt>
      <trkpt lat="42.89903" lon="0.0756">
        <ele>1301</ele>
        <time>2021-03-20T14:12:43.573Z</time>
      </trkpt>
      <trkpt lat="42.89899" lon="0.0756">
        <ele>1308</ele>
        <time>2021-03-20T14:12:48.545Z</time>
      </trkpt>
      <trkpt lat="42.89899" lon="0.07561">
        <ele>1308</ele>
        <time>2021-03-20T14:13:48.560Z</time>
      </trkpt>
      <trkpt lat="42.89902" lon="0.0756">
        <ele>1308</ele>
        <time>2021-03-20T14:13:53.536Z</time>
      </trkpt>
      <trkpt lat="42.89902" lon="0.0756">
        <ele>1308</ele>
        <time>2021-03-20T14:13:57.558Z</time>
      </trkpt>
      <trkpt lat="42.89904" lon="0.0756">
        <ele>1301</ele>
        <time>2021-03-20T14:14:02.559Z</time>
      </trkpt>
      <trkpt lat="42.89905" lon="0.07562">
        <ele>1301</ele>
        <time>2021-03-20T14:14:07.538Z</time>
      </trkpt>
      <trkpt lat="42.89907" lon="0.07565">
        <ele>1301</ele>
        <time>2021-03-20T14:16:42.570Z</time>
      </trkpt>
      <trkpt lat="42.89907" lon="0.07565">
        <ele>1301</ele>
        <time>2021-03-20T14:16:47.536Z</time>
      </trkpt>
      <trkpt lat="42.89907" lon="0.07565">
        <ele>1301</ele>
        <time>2021-03-20T14:16:52.563Z</time>
      </trkpt>
      <trkpt lat="42.89906" lon="0.07564">
        <ele>1301</ele>
        <time>2021-03-20T14:16:57.528Z</time>
      </trkpt>
      <trkpt lat="42.89881" lon="0.07513">
        <ele>1301</ele>
        <time>2021-03-20T14:17:02.523Z</time>
      </trkpt>
    </trkseg>
  </trk>
</gpx>